[[{"header":{"parameterUnit":"m.s-1","parameterCategory":1,"la1":31.0,"la2":29.5877,"lo1":-88.7671,"lo2":-86.6584,"dx":0.0162,"dy":0.0185,"nx":115,"ny":88,"refTime":"2022-11-06T18:00:00:Z","depth":0,"parameterNumber":2,"parameterNumberName":"U-component_of_WINDS"},"data":[0.0,0.0,0.0,0.0,0.0,0.0,0.0,0.0,0.0,0.0,0.0,0.0,0.0,0.0,0.0,0.0,0.0,0.0,0.0,0.0,0.0,0.0,0.0,0.0,0.0,0.0,0.0,0.0,0.0,0.0,0.0,0.0,0.0,0.0,0.0,0.0,0.0,0.0,0.0,0.0,0.0,0.0,0.0,0.0,0.0,0.0,0.0,0.0,0.0,0.0,0.0,0.0,0.0,0.0,0.0,0.0,0.0,0.0,0.0,0.0,0.0,0.0,0.0,0.0,0.0,0.0,0.0,0.0,0.0,0.0,0.0,0.0,0.0,0.0,0.0,0.0,0.0,0.0,0.0,0.0,0.0,0.0,0.0,0.0,0.0,0.0,0.0,0.0,0.0,0.0,0.0,0.0,0.0,0.0,0.0,0.0,0.0,0.0,0.0,0.0,0.0,0.0,0.0,0.0,0.0,0.0,0.0,0.0,0.0,0.0,0.0,0.0,0.0,0.0,0.0,0.0,0.0,0.0,0.0,0.0,0.0,0.0,0.0,0.0,0.0,0.0,0.0,0.0,0.0,0.0,0.0,0.0,0.0,0.0,0.0,0.0,0.0,0.0,0.0,0.0,0.0,0.0,0.0,0.0,0.0,0.0,0.0,0.0,0.0,0.0,0.0,0.0,0.0,0.0,0.0,0.0,0.0,0.0,0.0,0.0,0.0,0.0,0.0,0.0,0.0,0.0,0.0,0.0,0.0,0.0,0.0,0.0,0.0,0.0,0.0,0.0,0.0,0.0,0.0,0.0,0.0,0.0,0.0,0.0,0.0,0.0,0.0,0.0,0.0,0.0,0.0,0.0,0.0,0.0,0.0,0.0,0.0,0.0,0.0,0.0,0.0,0.0,0.0,0.0,0.0,0.0,0.0,0.0,0.0,0.0,0.0,0.0,0.0,0.0,0.0,0.0,0.0,0.0,0.0,0.0,0.0,0.0,0.0,0.0,0.0,0.0,0.0,0.0,0.0,0.0,0.0,0.0,0.0,0.0,0.0,0.0,0.0,0.0,0.0,0.0,0.0,0.0,0.0,0.0,0.0,0.0,0.0,0.0,0.0,0.0,0.0,0.0,0.0,0.0,0.0,0.0,0.0,0.0,0.0,0.0,0.0,0.0,0.0,0.0,0.0,0.0,0.0,0.0,0.0,0.0,0.0,0.0,0.0,0.0,0.0,0.0,0.0,0.0,0.0,0.0,0.0,0.0,0.0,0.0,0.0,0.0,0.0,0.0,0.0,0.0,0.0,0.0,0.0,0.0,0.0,0.0,0.0,0.0,0.0,0.0,0.0,0.0,0.0,0.0,0.0,0.0,0.0,0.0,0.0,0.0,0.0,0.0,0.0,0.0,0.0,0.0,0.0,0.0,0.0,0.0,0.0,0.0,0.0,0.0,0.0,0.0,0.0,0.0,0.0,0.0,0.0,0.0,0.0,0.0,0.0,0.0,0.0,0.0,0.0,0.0,0.0,0.0,0.0,0.0,0.0,0.0,0.0,0.0,0.0,0.0,0.0,0.0,0.0,0.0,0.0,0.0,0.0,0.0,0.0,0.0,0.0,0.0,0.0,0.0,0.0,0.0,0.0,0.0,0.0,0.0,0.0,0.0,0.0,0.0,0.0,0.0,0.0,0.0,0.0,0.0,0.0,0.0,0.0,0.0,0.0,0.0,0.0,0.0,0.0,0.0,0.0,0.0,0.0,0.0,0.0,0.0,0.0,0.0,0.0,0.0,0.0,0.0,0.0,0.0,0.0,0.0,0.0,0.0,0.0,0.0,0.0,0.0,0.0,0.0,0.0,0.0,0.0,0.0,0.0,0.0,0.0,0.0,0.0,0.0,0.0,0.0,0.0,0.0,0.0,0.0,0.0,0.0,0.0,0.0,0.0,0.0,0.0,0.0,0.0,0.0,0.0,0.0,0.0,0.0,0.0,0.0,0.0,0.0,0.0,0.0,0.0,0.0,0.0,0.0,0.0,0.0,0.0,0.0,0.0,0.0,0.0,0.0,0.0,0.0,0.0,0.0,0.0,0.0,0.0,0.0,0.0,0.0,0.0,0.0,0.0,0.0,0.0,0.0,0.0,0.0,0.0,0.0,0.0,0.0,0.0,0.0,0.0,0.0,0.0,0.0,0.0,0.0,0.0,0.0,0.0,0.0,0.0,0.0,0.0,0.0,0.0,0.0,0.0,0.0,0.0,0.0,0.0,0.0,0.0,0.0,0.0,0.0,0.0,0.0,0.0,0.0,0.0,0.0,0.0,0.0,0.0,0.0,0.0,0.0,0.0,0.0,0.0,0.0,0.0,0.0,0.0,0.0,0.0,0.0,0.0,0.0,0.0,0.0,0.0,0.0,0.0,0.0,0.0,0.0,0.0,0.0,0.0,0.0,0.0,0.0,0.0,0.0,0.0,0.0,0.0,0.0,0.0,0.0,0.0,0.0,0.0,0.0,0.0,0.0,0.0,0.0,0.0,0.0,0.0,0.0,0.0,0.0,0.0,0.0,0.0,0.0,0.0,0.0,0.0,0.0,0.0,0.0,0.0,0.0,0.0,0.0,0.0,0.0,0.0,0.0,0.0,0.0,0.0,0.0,0.0,0.0,0.0,0.0,0.0,0.0,0.0,0.0,0.0,0.0,0.0,0.0,0.0,0.0,0.0,0.0,0.0,0.0,0.0,0.0,0.0,0.0,0.0,0.0,0.0,0.0,0.0,0.0,0.0,0.0,0.0,0.0,0.0,0.0,0.0,0.0,0.0,0.0,0.0,0.0,0.0,0.0,0.0,0.0,0.0,0.0,0.0,0.0,0.0,0.0,0.0,0.0,0.0,0.0,0.0,0.0,0.0,0.0,0.0,0.0,0.0,0.0,0.0,0.0,0.0,0.0,0.0,0.0,0.0,0.0,0.0,0.0,0.0,0.0,0.0,0.0,0.0,0.0,0.0,0.0,0.0,0.0,0.0,0.0,0.0,0.0,0.0,0.0,0.0,0.0,0.0,0.0,0.0,0.0,0.0,0.0,0.0,0.0,0.0,0.0,0.0,0.0,0.0,0.0,0.0,0.0,0.0,0.0,0.0,0.0,0.0,0.0,0.0,0.0,0.0,0.0,0.0,0.0,0.0,0.0,0.0,0.0,0.0,0.0,0.0,0.0,0.0,0.0,0.0,0.0,0.0,0.0,0.0,0.0,0.0,0.0,0.0,0.0,0.0,0.0,0.0,0.0,0.0,0.0,0.0,0.0,0.0,0.0,0.0,0.0,0.0,0.0,0.0,0.0,0.0,0.0,0.0,0.0,0.0,0.0,0.0,0.0,0.0,0.0,0.0,0.0,0.0,0.0,0.0,0.0,0.0,0.0,0.0,0.0,0.0,0.0,0.0,0.0,0.0,0.0,0.0,0.0,0.0,0.0,0.0,0.0,0.0,0.0,0.0,0.0,0.0,0.0,0.0,0.0,0.0,0.0,0.0,0.0,0.0,0.0,0.0,0.0,0.0,0.0,0.0,0.0,0.0,0.0,0.0,0.0,0.0,0.0,0.0,0.0,0.0,0.0,0.0,0.0,0.0,0.0,0.0,0.0,0.0,0.0,0.0,0.0,0.0,0.0,0.0,0.0,0.0,0.0,0.0,0.0,0.0,0.0,0.0,0.0,0.0,0.0,0.0,0.0,0.0,0.0,0.0,0.0,0.0,0.0,0.0,0.0,0.0,0.0,0.0,0.0,0.0,0.0,0.0,0.0,0.0,0.0,0.0,0.0,0.0,0.0,0.0,0.0,0.0,0.0,0.0,0.0,0.0,0.0,0.0,0.0,0.0,0.0,0.0,0.0,0.0,0.0,0.0,0.0,0.0,0.0,0.0,0.0,0.0,0.0,0.0,0.0,0.0,0.0,0.0,0.0,0.0,0.0,0.0,0.0,0.0,0.0,0.0,0.0,0.0,0.0,0.0,0.0,0.0,0.0,0.0,0.0,0.0,0.0,0.0,0.0,0.0,0.0,0.0,0.0,0.0,0.0,0.0,0.0,0.0,0.0,0.0,0.0,0.0,0.0,0.0,0.0,0.0,0.0,0.0,0.0,0.0,0.0,0.0,0.0,0.0,0.0,0.0,0.0,0.0,0.0,0.0,0.0,0.0,0.0,0.0,0.0,0.0,0.0,0.0,0.0,0.0,0.0,0.0,0.0,0.0,0.0,0.0,0.0,0.0,0.0,0.0,0.0,0.0,0.0,0.9284,0.0,0.0,0.0,0.7626,0.0,0.0,0.0,0.0,0.0,0.0,0.0,0.0,0.0,0.0,0.0,0.0,0.0,0.0,0.0,0.0,0.0,0.0,0.0,0.0,0.0,0.0,0.0,0.0,0.0,0.0,0.0,0.0,0.0,0.0,0.0,0.0,0.0,0.0,0.0,0.0,0.0,0.0,0.0,0.0,0.0,0.0,0.0,0.0,0.0,0.0,0.0,0.0,0.0,0.0,0.0,0.0,0.0,0.0,0.0,0.0,0.0,0.0,0.0,0.0,0.0,0.0,0.0,0.0,0.0,0.0,0.0,0.0,0.0,0.0,0.0,0.0,0.0,0.0,0.0,0.0,0.0,0.0,0.0,0.0,0.0,0.0,0.0,0.0,0.0,0.0,0.0,0.0,0.0,0.0,0.0,0.0,0.0,0.0,0.0,0.0,0.0,0.0,0.0,0.0,0.0,0.0,0.0,0.0,0.0,0.0,0.0,0.0,0.0,0.0,0.9325,0.8004,0.9884,0.975,0.7336,0.0,0.0,0.0,0.0,0.0,0.0,0.0,0.0,0.0,0.0,0.0,0.0,0.0,0.0,0.0,0.0,0.0,0.0,0.0,0.0,0.0,0.0,0.0,0.0,0.0,0.0,0.0,0.0,0.0,0.0,0.0,0.0,0.0,0.0,0.0,0.0,0.0,0.0,0.0,0.0,0.0,0.0,0.0,0.0,0.0,0.0,0.0,0.0,0.0,0.0,0.0,0.0,0.0,0.0,0.0,0.0,0.0,0.0,0.0,0.0,0.0,0.0,0.0,0.0,0.0,0.0,0.0,0.0,0.0,0.0,0.0,0.0,0.0,0.0,0.0,0.0,0.0,0.0,0.0,0.0,0.0,0.0,0.0,0.0,0.0,0.0,0.0,0.0,0.0,0.0,0.0,0.0,0.0,0.0,0.0,0.0,0.0,0.0,0.0,0.0,0.0,0.0,0.0,0.0,0.0,0.0,0.0,0.0,0.0,0.0,0.0,0.0,1.0341,1.0279,0.7977,0.0,0.0,0.0,0.0,0.0,0.0,0.0,0.0,0.0,0.0,0.0,0.0,0.0,0.0,0.0,0.0,0.0,0.0,0.0,0.0,0.0,0.0,0.0,0.0,0.0,0.0,0.0,0.0,0.0,0.0,0.0,0.0,0.0,0.0,0.0,0.0,0.0,0.0,0.0,0.0,0.0,0.0,0.0,0.0,0.0,0.0,0.0,0.0,0.0,0.0,0.0,0.0,0.0,0.0,0.0,0.0,0.0,0.0,0.0,0.0,0.0,0.0,0.0,0.0,0.0,0.0,0.0,0.0,0.0,0.0,0.0,0.0,0.0,0.0,0.0,0.0,0.0,0.0,0.0,0.0,0.0,0.0,0.0,0.0,0.0,0.0,0.0,0.0,0.0,0.0,0.0,0.0,0.0,0.0,0.0,0.0,0.0,0.0,0.0,0.0,0.0,0.0,0.0,0.0,0.0,0.0,0.0,0.0,0.0,0.0,0.8891,1.0116,1.0088,0.0,0.977,0.0,0.0,0.0,0.0,0.0,0.0,0.0,0.0,0.0,0.0,0.0,0.0,0.0,0.0,0.0,0.0,0.0,0.0,0.0,0.0,0.0,0.0,0.0,0.0,0.0,0.0,0.0,0.0,0.0,0.0,0.0,0.0,0.0,0.0,0.0,0.0,0.0,0.0,0.0,0.0,0.0,0.0,0.0,0.0,0.0,0.0,0.0,0.0,0.0,0.0,0.0,0.0,0.0,0.0,0.0,0.0,0.0,0.0,0.0,0.0,0.0,0.0,0.0,0.0,0.0,0.0,0.0,0.0,0.0,0.0,0.0,0.0,0.0,0.0,0.0,0.0,0.0,0.0,0.0,0.0,0.0,0.0,0.0,0.0,0.0,0.0,0.0,0.0,0.0,0.0,0.0,0.0,0.0,0.0,0.0,0.0,0.0,0.0,0.0,0.0,0.0,0.0,0.0,0.0,0.0,0.0,0.0,0.0,0.0,0.0,1.0074,1.0097,0.9809,0.9961,0.0,0.0,0.0,0.0,0.0,0.0,0.0,0.0,0.0,0.0,0.0,0.0,0.0,0.0,0.0,0.0,0.0,0.0,0.0,0.0,0.0,0.0,0.0,0.0,0.0,0.0,0.0,0.0,0.0,0.0,0.0,0.0,0.0,0.0,0.0,0.0,0.0,0.0,0.0,0.0,0.0,0.0,0.0,0.0,0.0,0.0,0.0,0.0,0.0,0.0,0.0,0.0,0.0,0.0,0.0,0.0,0.0,0.0,0.0,0.0,0.0,0.0,0.0,0.0,0.0,0.0,0.0,0.0,0.0,0.0,0.0,0.0,0.0,0.0,0.0,0.0,0.0,0.0,0.0,0.0,0.0,0.0,0.0,0.0,0.0,0.0,0.0,0.0,0.0,0.0,0.0,0.0,0.0,0.0,0.0,0.0,0.0,0.0,0.0,0.0,0.0,0.0,0.0,0.0,0.0,0.0,0.0,0.0,0.0,0.0,1.0865,1.1157,1.0712,1.0682,1.063,1.0521,0.0,0.0,0.0,0.0,0.0,0.0,0.0,0.0,0.0,0.0,0.0,0.0,0.0,0.0,0.0,0.0,0.0,0.0,0.0,0.0,0.0,0.0,0.0,0.0,0.0,0.0,0.0,0.0,0.0,0.0,0.0,0.0,0.0,0.0,0.0,0.0,0.0,0.0,0.0,0.0,0.0,0.0,0.0,0.0,0.0,0.0,0.0,0.0,0.0,0.0,0.0,0.0,0.0,0.0,0.0,0.0,0.0,0.0,0.0,0.0,0.0,0.0,0.0,0.0,0.0,0.0,0.0,0.0,0.0,0.0,0.0,0.0,0.0,0.0,0.0,0.0,0.0,0.0,0.0,0.0,0.0,0.0,0.0,0.0,0.0,0.0,0.0,0.0,0.0,0.0,0.0,0.0,0.0,0.0,0.0,0.0,0.0,0.0,0.0,0.0,0.0,0.0,0.0,0.0,0.0,0.0,0.0,0.0,1.3867,1.2325,1.1818,1.2674,1.3286,1.2241,0.0,0.0,0.0,0.0,0.0,0.0,0.0,0.0,0.0,0.0,0.0,0.0,0.0,0.0,0.0,0.0,0.0,0.0,0.0,0.0,0.0,0.0,0.0,0.0,0.0,0.0,0.0,0.0,0.0,0.0,0.0,0.0,0.0,0.0,0.0,0.0,0.0,0.0,0.0,0.0,0.0,0.0,0.0,0.0,0.0,0.0,0.0,0.0,0.0,0.0,0.0,0.0,0.0,0.0,0.0,0.0,0.0,0.0,0.0,0.0,0.0,0.0,0.0,0.0,0.0,0.0,0.0,0.0,0.0,0.0,0.0,0.0,0.0,0.0,0.0,0.0,0.0,0.0,0.0,0.0,0.0,0.0,0.0,0.0,0.0,0.0,0.0,0.0,0.0,0.0,0.0,0.0,0.0,0.0,0.0,0.0,0.0,0.0,0.0,0.0,0.0,0.0,0.0,0.0,0.0,0.0,0.0,0.0,0.0,1.0709,1.0764,1.2298,1.5249,1.2866,1.1527,0.0,0.0,0.0,0.0,0.0,0.0,0.0,0.0,0.0,0.0,0.0,0.0,0.0,0.0,0.0,0.0,0.0,0.0,0.0,0.0,0.0,0.0,0.0,0.0,0.0,0.0,0.0,0.0,0.0,0.0,0.0,0.0,0.0,0.0,0.0,0.0,0.0,0.0,0.0,0.0,0.0,0.0,0.0,0.0,0.0,0.0,0.0,0.0,0.0,0.0,0.0,0.0,0.0,0.0,0.0,0.0,0.0,0.0,0.0,0.0,0.0,0.0,0.0,0.0,0.0,0.0,0.0,0.0,0.0,0.0,0.0,0.0,0.0,0.0,0.0,0.0,0.0,0.0,0.0,0.0,0.0,0.0,0.0,0.0,0.0,0.0,0.0,0.0,0.0,0.0,0.0,0.0,0.0,0.0,0.0,0.0,0.0,0.0,0.0,0.0,0.0,0.0,0.0,0.0,0.0,0.0,0.0,0.0,0.0,1.071,1.2289,1.4104,1.5924,1.3065,1.1358,0.0,0.0,0.0,0.0,0.0,0.0,0.0,0.0,0.0,0.0,0.0,0.0,0.0,0.0,0.0,0.0,0.0,0.0,0.0,0.0,0.0,0.0,0.0,0.0,0.0,0.0,0.0,0.0,0.0,0.0,0.0,0.0,0.0,0.0,0.0,0.0,0.0,0.0,0.0,0.0,0.0,0.0,0.0,0.0,0.0,0.0,0.0,0.0,0.0,0.0,0.0,0.0,0.0,0.0,0.0,0.0,0.0,0.0,0.0,0.0,0.0,0.0,0.0,0.0,0.0,0.0,0.0,0.0,0.0,0.0,0.0,0.0,0.0,0.0,0.0,0.0,0.0,0.0,0.0,0.0,0.0,0.0,0.0,0.0,0.0,0.0,0.0,0.0,0.0,0.0,0.0,0.0,0.0,0.0,0.0,0.0,0.0,0.0,0.0,0.0,0.0,0.0,0.0,0.0,0.0,0.0,0.0,0.0,1.0902,1.4728,1.715,1.7009,1.4576,1.4083,1.1881,0.0,0.0,0.0,0.0,0.0,0.0,0.0,0.0,0.0,0.0,0.0,0.0,0.0,0.0,0.0,0.0,0.0,0.0,0.0,0.0,0.0,0.0,0.0,0.0,0.0,0.0,0.0,0.0,0.0,0.0,0.0,0.0,0.0,0.0,0.0,0.0,0.0,0.0,0.0,0.0,0.0,0.0,0.0,0.0,0.0,0.0,0.0,0.0,0.0,0.0,0.0,0.0,0.0,0.0,0.0,0.0,0.0,0.0,0.0,0.0,0.0,0.0,0.0,0.0,0.0,0.0,0.0,0.0,0.0,0.0,0.0,0.0,0.0,0.0,0.0,0.0,0.0,0.0,0.0,0.0,0.0,0.0,0.0,0.0,0.0,0.0,0.0,0.0,0.0,0.0,0.0,0.0,0.0,0.0,0.0,0.0,0.0,0.0,0.0,0.0,0.0,0.0,0.0,0.0,0.0,0.0,0.0,0.0,0.0,1.205,1.4661,1.5897,1.5439,1.3094,1.169,0.0,0.0,0.0,0.0,0.0,0.0,0.0,0.0,0.0,0.0,0.0,0.0,0.0,0.0,0.0,0.0,0.0,0.0,0.0,0.0,0.0,0.0,0.0,0.0,0.0,0.0,0.0,0.0,0.0,0.0,0.0,0.0,0.0,0.0,0.0,0.0,0.0,0.0,0.0,0.0,0.0,0.0,0.0,0.0,0.0,0.0,0.0,0.0,0.0,0.0,0.0,0.0,0.0,0.0,0.0,0.0,0.0,0.0,0.0,0.0,0.0,0.0,0.0,0.0,0.0,0.0,0.0,0.0,0.0,0.0,0.0,0.0,0.0,0.0,0.0,0.0,0.0,0.0,0.0,0.0,0.0,0.0,0.0,0.0,0.0,0.0,0.0,0.0,0.0,0.0,0.0,0.0,0.0,0.0,0.0,0.0,0.0,0.0,0.0,0.0,0.0,0.0,0.0,0.0,0.0,0.0,0.0,0.0,0.0,1.3686,1.6467,1.774,1.7137,1.4326,1.2652,1.2316,0.0,0.0,0.0,0.0,0.0,0.0,0.0,0.0,0.0,0.0,0.0,0.0,0.0,0.0,0.0,0.0,0.0,0.0,0.0,0.0,0.0,0.0,0.0,0.0,0.0,0.0,0.0,0.0,0.0,0.0,0.0,0.0,0.0,0.0,0.0,0.0,0.0,0.0,0.0,0.0,0.0,0.0,0.0,0.0,0.0,0.0,0.0,0.0,0.0,0.0,0.0,0.0,0.0,0.0,0.0,0.0,0.0,0.0,0.0,0.0,0.0,0.0,0.0,0.0,0.0,0.0,0.0,0.0,0.0,0.0,0.0,0.0,0.0,0.0,0.0,0.0,0.0,0.0,0.0,0.0,0.0,0.0,0.0,0.0,0.0,0.0,0.0,0.0,0.0,0.0,0.0,0.0,0.0,0.0,0.0,0.0,0.0,0.0,0.0,0.0,0.0,0.0,0.0,0.0,0.0,0.0,0.0,0.0,1.849,2.174,2.2049,1.9186,1.7155,1.4602,0.0,0.0,0.0,0.0,0.0,0.0,0.0,0.0,0.0,0.0,0.0,0.0,0.0,0.0,0.0,0.0,0.0,0.0,0.0,0.0,0.0,0.0,0.0,0.0,0.0,0.0,0.0,0.0,0.0,0.0,0.0,0.0,0.0,0.0,0.0,0.0,0.0,0.0,0.0,0.0,0.0,0.0,0.0,0.0,0.0,0.0,0.0,0.0,0.0,0.0,0.0,0.0,0.0,0.0,0.0,0.0,0.0,0.0,0.0,0.0,0.0,0.0,0.0,0.0,0.0,0.0,0.0,0.0,0.0,0.0,0.0,0.0,0.0,0.0,0.0,0.0,0.0,0.0,0.0,0.0,0.0,0.0,0.0,0.0,0.0,0.0,0.0,0.0,0.0,0.0,0.0,0.0,0.0,0.0,0.0,0.0,0.0,0.0,0.0,0.0,0.0,0.0,0.0,0.0,0.0,0.0,0.0,0.0,0.0,2.0998,2.3963,2.3973,2.0757,1.7494,1.5193,0.0,0.0,0.0,0.0,0.0,0.0,0.0,0.0,0.0,0.0,0.0,0.0,0.0,0.0,0.0,0.0,0.0,0.0,0.0,0.0,0.0,0.0,0.0,0.0,0.0,0.0,0.0,0.0,0.0,0.0,0.0,0.0,0.0,0.0,0.0,0.0,0.0,0.0,0.0,0.0,0.0,0.0,0.0,0.0,0.0,0.0,0.0,0.0,0.0,0.0,0.0,0.0,0.0,0.0,0.0,0.0,0.0,0.0,0.0,0.0,0.0,0.0,0.0,0.0,0.0,0.0,0.0,0.0,0.0,0.0,0.0,0.0,0.0,0.0,0.0,0.0,0.0,0.0,0.0,0.0,0.0,0.0,0.0,0.0,0.0,0.0,0.0,0.0,0.0,0.0,0.0,0.0,0.0,0.0,0.0,0.0,0.0,0.0,0.0,0.0,0.0,0.0,0.0,0.0,0.0,0.0,0.0,0.0,2.1914,2.3465,2.5581,2.5519,2.3165,1.9319,1.6643,0.0,0.0,0.0,0.0,0.0,0.0,0.0,0.0,0.0,0.0,0.0,0.0,0.0,0.0,0.0,0.0,0.0,0.0,0.0,0.0,0.0,0.0,0.0,0.0,0.0,0.0,0.0,0.0,0.0,0.0,0.0,0.0,0.0,0.0,0.0,0.0,0.0,0.0,0.0,0.0,0.0,0.0,0.0,0.0,0.0,0.0,0.0,0.0,0.0,0.0,0.0,0.0,0.0,0.0,0.0,0.0,0.0,0.0,0.0,0.0,0.0,0.0,0.0,0.0,0.0,0.0,0.0,0.0,0.0,0.0,0.0,0.0,0.0,0.0,0.0,0.0,0.0,0.0,0.0,0.0,0.0,0.0,0.0,0.0,0.0,0.0,0.0,0.0,0.0,0.0,0.0,0.0,0.0,0.0,0.0,0.0,0.0,0.0,0.0,0.0,0.0,0.0,0.0,0.0,0.0,0.0,0.0,0.0,2.4763,2.5821,2.6831,2.6789,2.5519,2.1698,1.8431,0.0,0.0,0.0,0.0,0.0,0.0,0.0,0.0,0.0,0.0,0.0,0.0,0.0,0.0,0.0,0.0,0.0,0.0,0.0,0.0,0.0,0.0,0.0,0.0,0.0,0.0,0.0,0.0,0.0,0.0,0.0,0.0,0.0,0.0,0.0,0.0,0.0,0.0,0.0,0.0,0.0,0.0,0.0,0.0,0.0,0.0,0.0,0.0,0.0,0.0,0.0,0.0,0.0,0.0,0.0,0.0,0.0,0.0,0.0,0.0,0.0,0.0,0.0,0.0,0.0,0.0,0.0,0.0,0.0,0.0,0.0,0.0,0.0,0.0,0.0,0.0,0.0,0.0,0.0,0.0,0.0,0.0,0.0,0.0,0.0,0.0,0.0,0.0,0.0,0.0,0.0,0.0,0.0,0.0,0.0,0.0,0.0,0.0,0.0,0.0,0.0,0.0,0.0,0.0,0.0,0.0,0.0,0.0,2.5121,2.6854,2.8265,2.7865,2.555,2.167,1.8737,0.0,0.0,0.0,0.0,0.0,0.0,0.0,0.0,0.0,0.0,0.0,0.0,0.0,0.0,0.0,0.0,0.0,0.0,0.0,0.0,0.0,0.0,0.0,0.0,0.0,0.0,0.0,0.0,0.0,0.0,0.0,0.0,0.0,0.0,0.0,0.0,0.0,0.0,0.0,0.0,0.0,0.0,0.0,0.0,0.0,0.0,0.0,0.0,1.0711,0.0,0.0,0.0,0.0,0.0,0.0,0.0,0.0,0.0,0.0,0.0,0.0,0.0,0.0,0.0,0.0,0.0,0.0,0.0,0.0,0.0,0.0,0.0,0.0,0.0,0.0,0.0,0.0,0.0,0.0,0.0,0.0,0.0,0.0,0.0,0.0,0.0,0.0,0.0,0.0,0.0,0.0,0.0,0.0,0.0,0.0,0.0,0.0,0.0,0.0,0.0,0.0,0.0,0.0,0.0,0.0,0.0,0.0,0.0,2.6135,2.7909,2.8913,2.8279,2.5932,2.2859,1.9982,0.0,0.0,0.0,0.0,0.0,0.0,0.0,0.0,0.0,0.0,0.0,0.0,0.0,0.0,0.0,0.0,0.0,0.0,0.0,0.0,0.0,0.0,0.0,0.0,0.0,0.0,0.0,0.0,0.0,0.0,0.0,0.0,0.0,0.0,0.0,0.0,0.0,0.0,0.0,0.0,0.0,0.0,0.0,0.0,0.0,0.0,0.0,0.0,0.0,0.0,0.0,0.0,0.0,0.0,0.0,0.0,0.0,0.0,0.0,0.0,0.0,0.0,0.0,0.0,0.0,0.0,0.0,0.0,0.0,0.0,0.0,0.0,0.0,0.0,0.0,0.0,0.0,0.0,0.0,0.0,0.0,0.0,0.0,0.0,0.0,0.0,0.0,0.0,0.0,0.0,0.0,0.0,0.0,0.0,0.0,0.0,0.0,0.0,0.0,0.0,0.0,0.0,0.0,0.0,0.0,0.0,0.0,2.3909,2.7018,2.8979,2.9245,2.8457,2.6623,2.4436,2.1389,1.7476,0.0,0.0,0.0,0.0,0.0,0.0,0.0,0.0,0.0,0.0,0.0,0.0,0.0,0.0,0.0,0.0,0.0,0.0,0.0,0.0,0.0,0.0,0.0,0.0,0.0,0.0,0.0,0.0,0.0,0.0,0.0,0.0,0.0,0.0,0.0,0.0,0.0,0.0,1.0824,1.2577,0.0,0.0,0.0,0.0,0.0,0.0,0.0,0.0,1.3587,0.0,0.0,0.0,0.0,0.0,0.0,0.0,0.0,0.0,0.0,0.0,0.0,0.0,0.0,0.0,0.0,0.0,0.0,0.0,0.0,0.0,0.0,0.0,0.0,0.0,0.0,0.0,0.0,0.0,0.0,0.0,0.0,0.0,0.0,0.0,0.0,0.0,0.0,0.0,0.0,0.0,0.0,0.0,0.0,0.0,0.0,0.0,0.0,0.0,0.0,0.0,0.0,0.0,0.0,0.0,0.0,2.3275,2.3926,2.618,3.0087,2.9772,2.8829,2.7351,2.5183,2.2079,1.8038,0.0,0.0,0.0,0.0,0.0,0.0,0.0,0.0,0.0,0.0,0.0,0.0,0.0,0.0,0.0,0.0,0.0,0.0,0.0,0.0,0.0,0.0,0.0,0.0,0.0,0.0,0.0,0.0,0.0,0.0,0.0,0.0,0.0,0.0,0.0,0.0,0.0,0.0,0.0,1.4607,1.506,0.0,0.0,0.0,0.0,0.0,0.0,0.0,0.0,1.167,0.0,0.0,0.0,0.0,0.0,0.0,0.0,0.0,0.0,0.0,0.0,0.0,0.0,0.0,0.0,0.0,0.0,0.0,0.0,0.0,0.0,0.0,0.0,0.0,0.0,0.0,0.0,0.0,0.0,0.0,0.0,0.0,0.0,0.0,0.0,0.0,0.0,0.0,0.0,0.0,0.0,0.0,0.0,0.0,0.0,0.0,0.0,0.0,0.0,0.0,0.0,0.0,0.0,0.0,0.0,2.331,2.5984,2.8526,3.1,3.0448,2.9301,2.7677,2.5397,2.223,0.0,0.0,0.0,0.0,0.0,0.0,0.0,0.0,0.0,0.0,0.0,0.0,0.0,0.0,0.0,0.0,0.0,0.0,0.0,0.0,0.0,0.0,0.0,0.0,0.0,0.0,0.0,0.0,0.0,0.0,0.0,0.0,0.0,0.0,0.0,0.0,0.0,0.0,0.0,0.0,1.5468,1.6098,1.6486,0.0,0.0,0.0,0.0,0.0,0.0,1.304,1.1847,0.0,0.0,0.0,0.0,0.0,0.0,0.0,0.0,0.0,0.0,0.0,0.0,0.0,0.0,0.0,0.0,0.0,0.0,0.0,0.0,0.0,0.0,0.0,0.0,0.0,0.0,0.0,0.0,0.0,0.0,0.0,0.0,0.0,0.0,0.0,0.0,0.0,0.0,0.0,0.0,0.0,0.0,0.0,0.0,0.0,0.0,0.0,0.0,0.0,0.0,0.0,0.0,0.0,0.0,0.0,2.3034,2.742,3.0348,3.1609,3.0879,2.9659,2.8004,2.5495,2.2224,0.0,0.0,0.0,0.0,0.0,0.0,0.0,0.0,0.0,0.0,0.0,0.0,0.0,0.0,0.0,0.0,0.0,0.0,0.0,0.0,0.0,0.0,0.0,0.0,0.0,0.0,0.0,0.0,0.0,0.0,0.0,0.0,0.0,0.0,0.0,0.0,0.0,0.0,0.0,0.0,0.0,1.7311,1.7544,1.5651,0.0,0.0,0.0,0.0,1.5884,1.4695,0.0,0.0,0.0,0.0,0.0,0.0,0.0,0.0,0.0,0.0,0.0,0.0,0.0,0.0,0.0,0.0,0.0,0.0,0.0,0.0,0.0,0.0,0.0,0.0,0.0,0.0,0.0,0.0,0.0,0.0,0.0,0.0,0.0,0.0,0.0,0.0,0.0,0.0,0.0,0.0,0.0,0.0,0.0,0.0,0.0,0.0,0.0,0.0,0.0,0.0,0.0,0.0,0.0,0.0,0.0,0.0,2.3686,2.5961,2.8585,3.1465,3.0786,2.9743,2.8591,2.5643,2.2143,0.0,0.0,0.0,0.0,0.0,0.0,0.0,0.0,0.0,0.0,0.0,0.0,0.0,0.0,0.0,0.0,0.0,0.0,0.0,0.0,0.0,0.0,0.0,0.0,0.0,0.0,0.0,0.0,0.0,0.0,0.0,0.0,0.0,0.0,0.0,0.0,0.0,0.0,0.0,0.0,0.0,1.9158,1.8692,1.6886,1.5723,0.0,0.0,1.5994,1.7652,1.7542,0.0,0.0,0.0,0.0,0.0,0.0,0.0,0.0,0.0,0.0,0.0,0.0,0.0,0.0,0.0,0.0,0.0,0.0,0.0,0.0,0.0,0.0,0.0,0.0,0.0,0.0,0.0,0.0,0.0,0.0,0.0,0.0,0.0,0.0,0.0,0.0,0.0,0.0,0.0,0.0,0.0,0.0,0.0,0.0,0.0,0.0,0.0,0.0,0.0,0.0,0.0,0.0,0.0,0.0,0.0,2.0163,2.4487,2.8418,3.1071,3.2215,3.1013,2.9868,2.8831,2.5657,2.2103,0.0,0.0,0.0,0.0,0.0,0.0,0.0,0.0,0.0,0.0,0.0,0.0,0.0,0.0,0.0,0.0,0.0,0.0,0.0,0.0,0.0,0.0,0.0,0.0,0.0,0.0,0.0,0.0,0.0,0.0,0.0,0.0,0.0,0.0,0.0,0.0,0.0,0.0,0.0,0.0,0.0,0.0,2.0378,1.8776,0.0,0.0,0.0,1.7404,1.8197,0.0,0.0,0.0,0.0,0.0,0.0,0.0,0.0,0.0,0.0,0.0,0.0,0.0,0.0,0.0,0.0,0.0,0.0,0.0,0.0,0.0,0.0,0.0,0.0,0.0,0.0,0.0,0.0,0.0,0.0,0.0,0.0,0.0,0.0,0.0,0.0,0.0,0.0,0.0,0.0,0.0,0.0,0.0,0.0,0.0,0.0,0.0,0.0,0.0,0.0,0.0,0.0,0.0,0.0,0.0,0.0,0.0,2.4897,3.0237,3.2908,3.2621,3.1349,3.0162,2.908,2.6274,0.0,0.0,0.0,0.0,0.0,0.0,0.0,0.0,0.0,0.0,0.0,0.0,0.0,0.0,0.0,0.0,0.0,0.0,0.0,0.0,0.0,0.0,0.0,0.0,0.0,0.0,0.0,0.869,0.0,0.0,0.0,0.0,0.0,0.0,0.0,0.0,0.0,0.0,0.0,0.0,0.0,0.0,2.1148,2.1698,2.0522,2.0031,0.0,0.0,1.9168,1.9589,1.9927,1.8942,0.0,0.0,0.0,0.0,0.0,0.0,0.0,0.0,0.0,0.0,0.0,0.0,0.0,0.0,0.0,0.0,0.0,0.0,0.0,0.0,0.0,0.0,0.0,0.0,0.0,0.0,0.0,0.0,0.0,0.0,0.0,0.0,0.0,0.0,0.0,0.0,0.0,0.0,0.0,0.0,0.0,0.0,0.0,0.0,0.0,0.0,0.0,0.0,0.0,0.0,0.0,0.0,0.0,0.0,2.1292,2.481,2.9493,3.2058,3.223,3.172,3.0817,2.958,2.8005,2.4514,0.0,0.0,0.0,0.0,0.0,0.0,0.0,0.0,0.0,0.0,0.0,0.0,0.0,0.0,0.0,0.0,0.0,0.0,0.0,0.0,0.0,0.0,0.0,0.0,0.0,0.0,0.0,0.0,0.0,0.0,0.0,0.0,0.0,0.0,0.0,0.0,0.0,0.0,0.0,0.0,0.0,2.0896,2.2088,2.1763,2.1966,0.0,0.0,2.1677,2.2865,2.3352,2.1815,1.6517,0.0,0.0,0.0,0.0,0.0,0.0,0.0,0.0,0.0,0.0,0.0,0.0,0.0,0.0,0.0,0.0,0.0,0.0,0.0,0.0,0.0,0.0,0.0,0.0,0.0,0.0,0.0,0.0,0.0,0.0,0.0,0.0,0.0,0.0,0.0,0.0,0.0,0.0,0.0,0.0,0.0,0.0,0.0,0.0,0.0,0.0,0.0,0.0,0.0,0.0,0.0,0.0,0.0,2.1932,2.4823,3.0267,3.2809,3.2202,3.1345,3.0477,2.9624,2.8146,2.5301,0.0,0.0,0.0,0.0,0.0,0.0,0.0,0.0,0.0,0.0,0.0,0.0,0.0,0.0,0.0,0.0,0.0,0.0,0.0,0.0,0.0,0.0,0.0,0.0,0.0,0.0,0.0,0.0,1.3691,1.4127,1.2634,0.0,0.0,0.0,0.0,0.0,0.0,0.0,0.0,0.0,0.0,2.2938,2.3789,2.3696,0.0,0.0,2.3863,2.3193,2.384,2.3214,2.1322,1.7444,1.6517,0.0,0.0,0.0,0.0,0.0,0.0,0.0,0.0,0.0,0.0,0.0,0.0,0.0,0.0,0.0,0.0,0.0,0.0,0.0,0.0,0.0,0.0,0.0,0.0,0.0,0.0,0.0,0.0,0.0,0.0,0.0,0.0,0.0,0.0,0.0,0.0,0.0,0.0,0.0,0.0,0.0,0.0,0.0,0.0,0.0,0.0,0.0,0.0,0.0,0.0,0.0,0.0,2.2227,2.4633,3.0268,3.2751,3.1837,3.1031,3.0336,2.9753,2.8687,2.648,0.0,0.0,0.0,0.0,0.0,0.0,0.0,0.0,0.0,0.0,0.0,0.0,0.0,0.0,0.0,0.0,0.0,0.0,0.0,0.0,0.0,0.0,0.0,0.0,0.0,0.0,0.0,0.0,1.4853,1.4802,1.2661,0.0,0.0,0.0,0.0,0.0,0.0,0.0,0.0,0.0,0.0,2.3988,2.479,2.4707,2.4749,2.5282,2.4091,2.3244,2.3495,2.2314,2.0606,1.8384,0.0,0.0,0.0,0.0,0.0,0.0,0.0,0.0,0.0,0.0,0.0,0.0,0.0,0.0,0.0,0.0,0.0,0.0,0.0,0.0,0.0,0.0,0.0,0.0,0.0,0.0,0.0,0.8945,0.0,0.0,0.8905,0.0,0.0,0.0,0.0,0.0,0.0,0.0,0.0,0.0,0.0,0.0,0.0,0.0,0.0,0.0,0.0,0.0,0.0,0.0,0.0,0.0,0.0,2.1901,2.4255,2.9165,3.1438,3.1102,3.0881,3.0583,3.0098,3.0052,2.8393,2.4885,0.0,0.0,0.0,0.0,0.0,0.0,0.0,0.0,0.0,0.0,0.0,0.0,0.0,0.0,0.0,0.0,0.0,0.0,0.0,0.0,0.0,0.0,0.0,0.0,0.0,0.0,1.1104,1.182,1.2017,0.0,0.0,0.0,0.0,0.0,0.0,0.0,0.0,0.0,0.0,2.1878,2.3511,2.4738,2.4418,2.434,2.4831,2.2997,2.1587,2.1878,2.1044,2.0122,0.0,0.0,0.0,0.0,0.0,0.0,0.0,0.0,0.0,0.0,0.0,0.0,0.0,0.0,0.0,0.0,0.0,0.0,0.0,0.0,0.0,0.0,0.0,0.0,0.0,0.0,0.0,1.3288,1.1867,0.0,0.0,0.0,0.0,0.0,0.0,0.0,0.0,0.0,0.0,0.0,2.0934,2.1152,0.0,0.0,0.0,0.0,0.0,0.0,0.0,0.0,0.0,0.0,0.0,0.0,2.2511,2.5232,3.0154,3.2598,3.2326,3.1684,3.1129,3.0683,3.0175,2.8209,2.4626,0.0,0.0,0.0,0.0,0.0,0.0,0.0,0.0,0.0,0.0,0.0,0.0,0.0,0.0,0.0,0.0,0.0,0.0,0.0,0.0,0.0,0.0,0.0,0.0,0.0,1.2722,0.0,0.0,0.0,0.0,0.0,0.0,0.0,0.0,0.0,0.0,0.0,2.1183,2.2468,2.3852,2.5014,2.5848,2.6074,2.6345,0.0,0.0,0.0,0.0,0.0,0.0,0.0,0.0,0.0,0.0,0.0,0.0,0.0,0.0,1.9132,1.2914,1.2963,1.4283,1.5252,0.0,0.0,0.0,0.0,0.0,0.0,0.0,0.0,0.0,0.0,0.0,0.0,0.0,0.0,1.6687,1.5068,1.5006,0.0,0.0,0.0,0.0,0.0,0.0,0.0,0.0,2.2163,2.36,2.4495,2.4459,2.3985,0.0,2.2252,1.9872,0.0,0.0,0.0,0.0,0.0,0.0,0.0,0.0,2.3732,2.685,3.1064,3.3126,3.2818,3.2109,3.1415,3.0839,3.0164,2.8719,2.6402,2.4988,2.262,0.0,0.0,0.0,0.0,0.0,0.0,0.0,0.0,0.0,0.0,0.0,0.0,0.0,0.0,0.0,0.0,0.0,0.0,0.0,0.0,0.0,0.0,0.0,1.3971,0.0,0.0,0.0,0.0,0.0,0.0,0.0,0.0,0.0,1.7774,2.0915,2.3538,2.4618,2.5763,2.6418,2.6214,0.0,0.0,0.0,0.0,0.0,0.0,0.0,1.9939,2.0345,1.9904,1.9647,2.0179,2.21,2.3382,2.2782,0.0,0.0,1.6945,1.6922,1.8781,2.17,2.1359,2.0373,1.9818,2.0817,2.1743,0.0,0.0,0.0,0.0,0.0,0.0,0.0,0.0,2.0557,1.979,0.0,1.8423,0.0,0.0,0.0,0.0,0.0,2.0743,0.0,0.0,2.7846,2.9165,2.7993,2.7341,2.7032,2.6933,2.5782,2.4668,2.3463,2.0776,0.0,0.0,0.0,0.0,0.0,0.0,2.5511,2.9081,3.1737,3.2891,3.2558,3.2159,3.1505,3.0588,3.0095,2.9927,2.9995,2.7484,2.5214,2.3331,1.8142,0.0,0.0,0.0,0.0,0.0,0.0,0.0,0.0,0.0,0.0,0.0,0.0,0.0,0.0,0.0,0.0,0.0,0.0,0.0,0.0,1.468,0.0,0.0,0.0,0.0,0.0,0.0,0.0,0.0,0.0,0.0,2.0605,2.2501,2.4541,2.6215,0.0,0.0,0.0,0.0,2.6949,2.5929,2.3387,2.1863,2.2416,2.1736,2.1776,2.3536,0.0,0.0,2.5956,2.5641,2.5066,2.3406,2.5236,2.6194,2.4201,2.2742,2.3454,2.754,2.5265,2.2966,2.374,2.4537,2.5258,2.3281,0.0,0.0,0.0,0.0,2.2465,2.378,2.5515,2.5504,2.4497,2.2766,2.2766,0.0,0.0,0.0,0.0,0.0,0.0,2.4777,2.6865,2.8293,2.9435,3.045,3.0277,2.9947,2.9523,2.9577,2.9248,2.8561,2.8387,2.4086,1.6081,0.0,0.0,0.0,0.0,2.7778,3.0386,3.2565,3.3566,3.3417,3.2887,3.2175,3.1218,3.1099,3.0902,3.0608,2.9808,2.7869,2.4654,2.2222,0.0,0.0,0.0,0.0,0.0,0.0,0.0,0.0,0.0,0.0,0.0,0.0,0.0,0.0,0.0,0.0,0.0,0.0,0.0,1.3012,1.6149,1.6987,0.0,0.0,0.0,0.0,0.0,0.0,0.0,0.0,0.0,2.4033,2.532,2.6121,0.0,0.0,2.7227,2.6365,2.7175,2.7918,2.8083,2.6462,0.0,2.6049,2.4268,2.3373,2.4976,2.6764,2.7838,2.7481,2.8148,2.8584,2.8035,2.8601,2.8922,2.8383,2.7435,2.758,2.9572,2.8294,2.695,2.7803,2.7769,2.7448,2.877,2.6806,2.4717,2.4369,2.5267,2.6183,2.741,2.877,2.9039,2.8188,2.659,2.659,2.4833,2.1832,2.1832,0.0,0.0,0.0,2.7701,3.0056,3.0075,3.0727,3.1826,3.1587,3.1244,3.0881,3.0874,3.0968,3.1154,3.1193,2.796,2.1663,0.0,0.0,2.3256,2.6609,2.9613,3.2073,3.3258,3.3859,3.3791,3.3073,3.2421,3.1881,3.1612,3.1368,3.11,3.0848,2.9469,2.6712,2.4883,2.2444,0.0,0.0,0.0,0.0,0.0,0.0,0.0,0.0,0.0,0.0,0.0,1.0714,0.8149,0.0,0.0,0.0,1.4202,1.4973,1.679,1.8702,0.0,0.0,0.0,0.0,0.0,0.0,0.0,2.1752,2.415,2.6055,2.7118,2.783,2.7977,2.7346,2.8037,2.8413,2.7875,0.0,2.927,2.951,2.8219,2.7484,2.8123,2.6875,2.6232,2.7643,2.8426,2.8994,2.9248,2.9961,3.0431,3.0477,3.0496,3.0539,3.0474,2.9826,2.9396,2.9941,2.942,2.8945,2.9187,2.8723,2.8343,3.3514,3.3111,2.8248,2.6973,2.8154,2.9382,3.0237,3.0791,3.1361,3.0987,2.9937,2.9907,2.8188,2.5322,2.5322,0.0,2.9042,2.9845,3.122,3.3046,3.2714,3.2564,3.2481,3.1794,3.1428,3.1294,3.0529,3.081,3.1913,3.0984,3.0225,2.9748,2.9192,2.9015,2.9248,2.9552,3.109,3.3755,3.3732,3.3722,3.3739,3.2919,3.2483,3.2483,3.1881,3.1555,3.1489,3.0986,3.0161,2.9002,2.6585,2.4193,2.1977,0.0,0.0,0.0,0.0,0.0,0.0,0.0,0.0,0.0,0.0,0.0,0.0,0.0,0.0,1.6894,1.9412,0.0,2.2899,2.1834,0.0,0.0,0.0,1.9346,1.9635,2.1866,2.3396,2.3446,0.0,0.0,2.9729,2.9905,2.993,2.998,3.0337,3.0413,2.9882,3.0324,3.0692,3.0327,2.9076,2.8407,2.9157,2.92,2.9479,3.0522,3.0627,3.0461,3.0861,3.1025,3.1072,3.107,3.1206,3.1272,3.1072,3.0642,2.9943,2.8682,2.8865,2.9073,2.8545,2.8267,2.815,3.3514,3.3395,3.2138,3.1809,3.2123,3.2422,3.2662,3.2796,3.2946,3.2856,3.2572,3.2557,3.2138,3.139,3.139,3.1719,3.2347,3.2421,3.2814,3.3488,3.3291,3.2994,3.2674,3.2874,3.2436,3.1547,3.2103,3.2356,3.227,3.3011,3.2873,3.192,3.2216,3.1255,2.9143,3.0849,3.2262,3.3207,3.3203,3.328,3.3431,3.3203,3.3083,3.3083,3.2647,3.2123,3.153,3.1027,3.0204,2.8986,2.8309,2.7148,2.5334,2.0289,0.0,0.0,0.0,0.0,0.0,0.0,0.0,0.0,0.0,1.4166,1.037,0.0,1.8888,0.0,2.3942,2.5207,2.2753,2.3286,0.0,0.0,2.2196,2.2533,2.5034,2.5552,2.5921,2.6474,2.8574,3.0161,3.0602,3.0859,3.1185,3.1562,3.1029,3.0413,2.9924,3.0533,3.1013,3.0926,3.0446,3.0209,3.0443,3.0701,3.0863,3.1159,3.1288,3.1396,3.1516,3.154,3.154,3.154,3.1562,3.1584,3.154,3.1405,3.0034,2.7295,2.7125,2.7955,2.8425,2.7981,2.7345,3.4335,3.4256,3.4351,3.4382,3.4352,3.4069,3.3799,3.3514,3.3814,3.3799,3.3514,3.3514,3.3514,3.3514,3.3736,3.3795,3.3809,3.3774,3.397,3.4384,3.3831,3.3572,3.3578,3.3259,3.2871,3.2455,3.2417,3.2593,3.2902,3.3373,3.3688,3.3832,3.3938,3.3243,3.1783,3.1946,3.1998,3.183,3.2417,3.2899,3.329,3.3033,3.2434,3.1461,3.1691,3.1141,2.9736,2.9653,2.8987,2.7547,2.7242,2.6544,2.5393,2.2211,2.0263,0.0,0.0,0.0,0.0,0.0,0.0,0.0,0.0,0.0,0.0,0.0,2.115,2.1169,2.516,2.6655,2.401,2.5059,2.5887,2.5837,2.5469,2.6071,2.8216,2.8366,2.8391,2.8561,3.0181,3.1461,3.1834,3.2035,3.2261,3.2566,3.1985,3.1422,3.1157,3.1289,3.1418,3.1517,3.124,3.1071,3.1272,3.1407,3.1496,3.1496,3.1606,3.1717,3.1717,3.1717,3.1717,3.1717,3.1717,3.1717,3.1695,3.116,2.9692,2.6887,2.6115,2.6696,2.7223,2.6935,2.6384,3.5429,3.5347,3.5568,3.5693,3.5699,3.5052,3.441,3.3784,3.4368,3.4338,3.3873,3.3889,3.3933,3.4023,3.4343,3.4563,3.4604,3.4631,3.4944,3.5404,3.4453,3.4205,3.4499,3.3269,3.2949,3.3341,3.2193,3.228,3.3533,3.3116,3.36,3.4928,3.4706,3.4539,3.4419,3.26,3.1234,3.0458,3.1599,3.2374,3.2751,3.2248,3.1075,2.9249,3.0236,2.9844,2.784,2.8191,2.7651,2.6019,2.5461,2.4967,2.4431,2.4079,2.3226,0.0,2.0879,0.0,0.0,0.0,0.0,0.0,0.0,0.0,0.0,2.1985,2.197,2.137,2.51,2.7135,2.6214,2.7057,2.7841,2.838,2.8794,2.9274,2.9935,3.0373,3.0478,3.0131,3.1315,3.2441,3.2964,3.3115,3.309,3.3,3.2757,3.2485,3.2522,3.2037,3.1799,3.1959,3.1584,3.1381,3.1606,3.1695,3.1695,3.1717,3.1717,3.1717,3.1717,3.1717,3.1717,3.1717,3.1717,3.1717,3.1717,3.078,2.9186,2.6742,2.6138,2.5972,2.5859,2.5795,2.5474,3.576,3.6043,3.6411,3.6738,3.7011,3.6568,3.5907,3.5114,3.525,3.5549,3.5925,3.5925,3.6178,3.661,3.6234,3.6354,3.6738,3.6145,3.6033,3.6318,3.5438,3.4585,3.3804,3.3436,3.2987,3.25,3.2664,3.2937,3.3208,3.4091,3.3948,3.2875,3.4315,3.3654,3.1016,0.0,0.0,0.0,3.0945,3.0781,2.9926,2.978,2.9531,2.916,3.0734,0.0,2.9456,2.9595,2.8912,2.7143,2.7296,0.0,0.0,0.0,0.0,0.0,0.0,0.0,0.0,0.0,0.0,0.0,2.3211,2.3035,2.2282,2.4632,2.5778,2.4858,2.7067,2.8706,2.9001,2.925,2.9613,3.0052,2.9922,3.0126,3.0963,3.086,3.0902,3.1541,3.1964,3.2441,3.2946,3.3115,3.3004,3.281,3.2593,3.2376,3.2179,3.2025,3.1959,3.1959,3.1739,3.1629,3.1695,3.1717,3.1717,3.1717,3.1717,3.1717,3.1717,3.1719,3.1717,3.1719,3.1717,3.1719,3.1695,3.1472,3.0582,2.8467,2.7332,2.6537,2.5849,2.5523,2.5284,3.5196,0.0,3.5945,3.6328,0.0,3.6605,3.6242,3.5861,3.606,3.6441,3.6956,3.6956,3.7135,3.7387,3.6815,3.6694,3.6973,3.637,3.6052,3.5965,3.532,3.4597,3.3838,3.3452,3.3206,3.3127,3.3089,3.3261,3.3598,3.3924,3.3747,3.3143,3.4152,3.388,3.244,3.3241,3.2954,3.1455,3.1547,3.1456,3.1126,3.0561,2.9881,2.9135,3.0197,0.0,0.0,0.0,0.0,0.0,0.0,0.0,0.0,0.0,0.0,2.5477,2.4249,2.3738,2.4305,2.4582,2.546,2.71,2.7501,2.7218,2.6088,2.7821,2.88,2.8524,2.9503,3.0256,3.0557,3.0411,3.0396,3.0584,3.0271,3.0326,3.0943,3.1101,3.134,3.1928,3.2208,3.2361,3.2392,3.2481,3.2571,3.255,3.2356,3.2159,3.2025,3.1915,3.1871,3.1849,3.1783,3.1717,3.1717,3.1717,3.1717,3.1717,3.1717,3.1717,3.1717,3.1822,3.1901,3.1925,3.2003,3.2078,3.1978,3.193,3.1205,2.8898,2.7808,2.698,2.5863,2.5597,2.5522,3.4599,3.5022,3.5265,3.5776,3.6414,3.636,3.6396,3.6559,0.0,0.0,0.0,3.7481,3.754,3.7595,3.7069,3.6869,3.6986,3.6536,3.6169,3.5847,3.5225,3.4694,3.4267,3.3496,3.339,3.3878,3.3368,3.339,3.3894,3.3467,3.3493,3.3901,3.4152,3.4452,3.48,3.4724,3.3921,3.2483,3.2171,3.215,3.2396,3.1526,3.0392,2.9019,2.9618,2.9227,2.7839,2.907,2.89,2.7035,2.7027,2.6909,2.6515,2.649,2.7143,2.8574,2.9082,2.9559,3.003,3.008,3.0256,3.0713,3.0839,3.0638,3.0125,3.0507,3.0934,3.1361,3.1406,3.1406,3.1406,3.0972,3.0751,3.0814,3.0362,3.0284,3.086,3.1194,3.1536,3.1948,3.2174,3.2179,3.1869,3.2001,3.2111,3.2245,3.2159,3.1959,3.1937,3.1805,3.1739,3.1739,3.1717,3.1717,3.1695,3.1797,3.1773,3.1821,3.1824,3.1826,3.1875,3.2027,3.2152,3.2176,3.2347,3.2371,3.2299,3.2368,3.1428,2.8787,2.8256,2.772,2.6072,2.586,2.5908,3.4605,3.5021,3.5405,3.6225,3.7291,3.6939,3.7234,3.7825,3.6931,3.6987,3.7748,3.773,3.8073,3.8545,3.7924,3.7947,3.8436,3.7834,3.7631,3.7738,3.6373,3.5527,3.5061,3.3747,3.3133,3.3219,3.3133,3.3133,3.3283,3.3712,3.3738,3.3428,3.434,3.4645,3.4209,3.3666,3.325,3.2962,3.1626,3.0469,2.9524,2.9353,2.9164,2.8969,2.9969,3.0181,2.9503,2.9679,2.9428,2.8631,2.9051,2.9503,2.986,2.9835,3.0186,3.0859,3.1009,3.1105,3.116,3.118,3.1205,3.1286,3.1712,3.1742,3.1235,3.1235,3.1311,3.1406,3.1457,3.1406,3.1391,3.1041,3.0949,3.1232,3.0641,3.0548,3.135,3.1196,3.1199,3.1647,3.1935,3.2045,3.1957,3.2135,3.2179,3.2091,3.2003,3.1937,3.1805,3.1739,3.1717,3.1717,3.1717,3.1717,3.1747,3.1978,3.2079,3.2076,3.2225,3.2299,3.2183,3.2347,3.2395,3.2418,3.2465,3.2559,3.2512,3.2866,3.1952,2.9994,2.9425,2.8693,2.671,2.6379,2.6195,3.4,3.4537,3.4715,3.5312,3.6148,3.6452,3.7125,3.7929,3.6986,3.7244,3.8289,3.8354,3.8502,3.8712,3.7761,3.7471,3.7729,3.6844,3.6264,3.5956,3.5352,3.4739,3.41,3.3407,3.3115,3.3115,3.3115,3.3115,3.3133,3.3411,3.339,3.3154,3.3704,3.3831,3.356,3.324,3.3115,3.309,3.2376,3.1737,3.1205,3.0839,3.0839,3.116,3.1411,3.1537,3.1582,3.1582,3.1311,3.0713,3.0939,3.1085,3.1035,3.1035,3.1135,3.1386,3.1687,3.1838,3.1838,3.1838,3.1838,3.1838,3.2043,3.2265,3.2311,3.2014,3.1984,3.2286,3.2311,3.221,3.1957,3.1534,3.1266,3.1179,3.0573,3.042,3.0802,3.1071,3.1116,3.116,3.1538,3.1781,3.1627,3.1739,3.1849,3.1805,3.1849,3.1805,3.1719,3.1824,3.185,3.1721,3.1717,3.1795,3.1901,3.2176,3.2323,3.2299,3.2394,3.23,3.2015,3.2201,3.2457,3.219,3.2569,3.3093,3.3116,3.2917,3.195,3.0457,2.9335,2.8249,2.6699,2.6227,2.6109,3.3411,3.3878,3.3878,3.4251,3.493,3.5776,3.661,3.7308,3.6649,3.7019,3.7994,3.8088,3.8069,3.7975,3.7039,3.661,3.6492,3.5749,3.5047,3.4454,3.4418,3.4042,3.3411,3.3197,3.3115,3.3115,3.3115,3.3115,3.3115,3.3115,3.3115,3.3115,3.3115,3.3115,3.3115,3.3115,3.3115,3.3115,3.3115,3.3115,3.309,3.2641,3.2616,3.3014,3.2516,3.2394,3.2864,3.2867,3.2667,3.2265,3.234,3.2215,3.1808,3.1783,3.1783,3.1834,3.2164,3.2416,3.2394,3.231,3.2247,3.2247,3.2247,3.2443,3.2818,3.2624,3.2549,3.2886,3.2893,3.2742,3.237,3.1957,3.1516,3.1094,3.0645,3.0352,3.0284,3.0713,3.0937,3.0645,3.1139,3.1451,3.1318,3.134,3.1494,3.1695,3.1717,3.1719,3.1797,3.2001,3.2002,3.1926,3.1797,3.185,3.2127,3.2489,3.2628,3.2628,3.2722,3.2577,3.2237,3.2636,3.2894,3.2548,3.3047,3.3454,3.3398,3.2951,3.1771,3.0057,2.9025,2.7956,2.6445,2.6163,2.6136,3.3133,3.3176,3.3219,3.3688,3.4543,3.5305,3.5749,3.5849,3.5709,3.5749,3.5941,3.5882,3.5922,3.5882,3.5809,3.5729,3.5729,3.5628,3.5467,3.5285,3.4724,3.4356,3.4105,3.3454,3.3115,3.3115,3.3115,3.3115,3.3115,3.3115,3.3115,3.3115,3.3115,3.3115,3.3115,3.3115,3.3115,3.3115,3.3115,3.3115,3.309,3.304,3.304,3.309,3.2516,3.2219,3.2365,3.229,3.2244,3.2244,3.2717,3.2989,3.2939,3.2914,3.2914,3.2914,3.2964,3.3014,3.2972,3.263,3.2364,3.2367,3.2364,3.2389,3.2484,3.2781,3.2821,3.2574,3.2466,3.2441,3.2376,3.1981,3.1673,3.1472,3.1049,3.0668,3.0306,3.0261,3.0284,3.0261,3.0803,3.105,3.1139,3.1408,3.1653,3.1723,3.1797,3.1807,3.1891,3.199,3.2041,3.2182,3.203,3.1979,3.2371,3.2877,3.2887,3.2826,3.3202,3.3047,3.2872,3.3189,3.3845,3.2965,3.3502,3.3396,3.2996,3.2499,3.1739,2.9702,2.8801,2.8402,2.7008,2.6509,2.6382,3.3115,3.3115,3.3115,3.3598,3.4371,3.4765,3.5169,3.5548,3.5108,3.4883,3.4827,3.4371,3.4677,3.5568,3.5108,3.4883,3.4841,3.4345,3.4142,3.4074,3.3768,3.3645,3.3603,3.3283,3.3115,3.3115,3.3115,3.3115,3.3115,3.3115,3.3115,3.3115,3.3115,3.3115,3.3115,3.3115,3.3115,3.3115,3.3115,3.3115,3.3115,3.3115,3.3115,3.3065,3.2842,3.2717,3.2717,3.2717,3.2717,3.2742,3.2964,3.3115,3.309,3.2961,3.2939,3.3047,3.2939,3.2745,3.246,3.2264,3.2154,3.2154,3.2154,3.2179,3.2154,3.2329,3.2198,3.1671,3.1913,3.2242,3.2335,3.1981,3.1584,3.125,3.078,3.042,3.0238,3.0352,3.0465,3.0668,3.096,3.1229,3.141,3.1714,3.1926,3.1953,3.2053,3.2063,3.1692,3.1687,3.1627,3.1493,3.2126,3.2794,3.2765,3.2394,3.2389,3.2342,3.211,3.1913,3.1556,3.1812,3.2167,3.2395,3.2547,3.2698,3.2748,3.141,3.0302,2.8906,2.7914,2.7368,2.6727,2.6618,2.6537,3.3115,3.3115,3.3115,3.3475,3.4047,3.4042,3.4371,3.4821,3.4267,3.4042,3.3979,3.3368,3.3768,3.4739,3.4288,3.4042,3.3937,3.339,3.3115,3.3115,3.3115,3.3136,3.3115,3.3115,3.3115,3.3115,3.3115,3.3115,3.3115,3.3115,3.3115,3.3115,3.3115,3.3115,3.3115,3.3115,3.3115,3.3115,3.3115,3.3115,3.3115,3.3115,3.3115,3.3115,3.3115,3.3115,3.3115,3.3115,3.3115,3.309,3.3115,3.3115,3.3115,3.2918,3.2896,3.3025,3.2788,3.246,3.2111,3.1869,3.1737,3.1803,3.1759,3.1713,3.1779,3.1891,3.1693,3.1294,3.1649,3.2023,3.1915,3.1695,3.1316,3.0915,3.0555,3.0352,3.0261,3.0397,3.0578,3.0848,3.1103,3.1513,3.186,3.2079,3.2202,3.2226,3.2347,3.2227,3.1627,3.1703,3.178,3.0835,3.2447,3.3361,3.2909,3.282,3.2348,3.199,3.1786,3.133,3.0219,3.0686,3.1047,3.1917,3.1458,3.1201,3.1407,3.0302,2.9237,2.8495,2.7579,2.6756,2.6655,2.6646,2.6672,3.3115,3.3115,3.3115,3.3133,3.3176,3.3197,3.3219,3.3411,3.3219,3.3197,3.3219,3.3133,3.3154,3.3326,3.3283,3.3176,3.3176,3.3133,3.3115,3.3115,3.3115,3.3115,3.3115,3.3115,3.3115,3.3115,3.3115,3.3115,3.3115,3.3115,3.3115,3.3115,3.3115,3.3115,3.3115,3.3115,3.3115,3.3115,3.3115,3.3115,3.3115,3.3115,3.3115,3.3115,3.3115,3.3115,3.3115,3.3115,3.3115,3.3115,3.3115,3.309,3.309,3.3072,3.305,3.2982,3.2636,3.24,3.2179,3.1496,3.1094,3.125,3.1184,3.1094,3.1383,3.1582,3.1627,3.1629,3.1605,3.1516,3.1162,3.1071,3.1005,3.0915,3.0847,3.06,3.0261,3.0238,3.0352,3.0625,3.111,3.1668,3.23,3.2465,3.2441,3.2418,3.2441,3.2176,3.1618,3.2316,3.2029,3.1389,3.2174,3.3645,3.2753,3.2878,3.3126,3.2521,3.1866,3.199,3.1662,3.1355,3.1377,3.1446,3.1292,3.0877,3.0235,2.9527,2.8734,2.8037,2.7381,2.6798,2.6807,2.6793,2.6761,3.3115,3.3115,3.3115,3.3115,3.3115,3.3115,3.3115,3.3115,3.3115,3.3115,3.3115,3.3115,3.3115,3.3115,3.3115,3.3115,3.3115,3.3115,3.3115,3.3115,3.3115,3.3115,3.3115,3.3115,3.3115,3.3115,3.3115,3.3115,3.3115,3.3115,3.3115,3.3115,3.3115,3.3115,3.3115,3.3115,3.3115,3.3115,3.3115,3.3115,3.3115,3.3115,3.3115,3.3115,3.3115,3.3115,3.3115,3.3115,3.3115,3.3115,3.3115,3.3004,3.2853,3.2723,3.2419,3.2025,3.1935,3.1739,3.1294,3.0915,3.0826,3.1072,3.1005,3.105,3.1273,3.1385,3.1407,3.1296,3.1251,3.1117,3.1005,3.0916,3.0916,3.0893,3.0645,3.0466,3.0261,3.0216,3.0306,3.0648,3.1179,3.1832,3.2441,3.2794,3.2718,3.2114,3.2197,3.1781,3.07,3.0687,3.0649,2.9786,3.0375,3.1278,3.097,3.2272,3.2924,3.1942,3.1223,3.0585,3.0122,3.0081,3.0042,3.0903,3.0924,3.0663,2.9998,2.9451,2.8605,2.7957,2.7284,2.713,2.711,2.7075,2.6949,3.3115,3.3115,3.3115,3.3115,3.3115,3.3115,3.3115,3.3115,3.3115,3.3115,3.3115,3.3115,3.3115,3.3115,3.3115,3.3115,3.3115,3.3115,3.3115,3.3115,3.3115,3.3115,3.3115,3.3115,3.3115,3.3115,3.3115,3.3115,3.3115,3.3115,3.3115,3.3115,3.3115,3.3115,3.3115,3.3115,3.3115,3.3115,3.3115,3.3115,3.3115,3.3115,3.3115,3.3115,3.3115,3.3115,3.3115,3.3115,3.3047,3.2982,3.2961,3.281,3.2528,3.2419,3.2113,3.1562,3.1518,3.1339,3.0892,3.0623,3.0623,3.0962,3.0939,3.096,3.1184,3.1273,3.1206,3.105,3.1074,3.1097,3.1128,3.1083,3.106,3.1061,3.0835,3.0629,3.0491,3.0468,3.0675,3.1158,3.1902,3.2512,3.2959,3.3311,3.3183,3.2448,3.2492,3.1688,3.0474,3.0031,2.956,2.8708,2.9775,3.038,3.0458,3.1534,3.1891,3.1047,3.1309,3.0293,2.9283,2.9141,2.9384,3.0201,3.0412,3.019,2.9829,2.9318,2.8719,2.8086,2.7721,2.7488,2.7445,2.7361,2.7275,3.3115,3.3115,3.3115,3.3115,3.3115,3.3115,3.3115,3.3115,3.3115,3.3115,3.3115,3.3115,3.3115,3.3115,3.3115,3.3115,3.3115,3.3115,3.3115,3.3115,3.3115,3.3115,3.3115,3.3115,3.3115,3.3115,3.3115,3.3115,3.3115,3.3115,3.3115,3.3115,3.3115,3.3115,3.3115,3.3115,3.3115,3.3115,3.3115,3.3115,3.3115,3.3115,3.3115,3.3068,3.3068,3.3047,3.3093,3.309,3.2982,3.2745,3.2723,3.2481,3.2067,3.2179,3.2113,3.1472,3.1316,3.1273,3.1117,3.051,3.0374,3.0826,3.0781,3.0802,3.105,3.1229,3.1229,3.096,3.1098,3.124,3.1228,3.1321,3.1391,3.1437,3.1482,3.141,3.1158,3.1019,3.1274,3.2018,3.2841,3.3694,3.3974,3.4019,3.3872,3.355,3.2876,3.1917,3.0893,3.0531,3.0083,2.9191,2.9428,3.001,3.0375,3.0712,3.0505,3.036,3.1146,3.1079,2.9793,2.9277,2.9629,3.0285,3.0413,3.0215,2.9933,2.9441,2.9051,2.8487,2.8213,2.8005,2.7984,2.7944,2.7741,3.3115,3.3115,3.3115,3.3115,3.3115,3.3115,3.3115,3.3115,3.3115,3.3115,3.3115,3.3115,3.3115,3.3115,3.3115,3.3115,3.3115,3.3115,3.3115,3.3115,3.3115,3.3115,3.309,3.3115,3.3115,3.3115,3.3115,3.309,3.3068,3.3115,3.3115,3.3115,3.3115,3.3115,3.3115,3.3115,3.3115,3.3115,3.3115,3.3115,3.3115,3.309,3.3004,3.2853,3.2831,3.2766,3.2661,3.2918,3.2961,3.2702,3.2702,3.2198,3.1337,3.1582,3.1092,2.9669,2.9966,3.0079,2.9829,2.9783,2.9988,3.0578,3.0892,3.1094,3.1206,3.1362,3.1184,3.0647,3.0743,3.0743,3.0293,3.0995,3.1536,3.1665,3.1734,3.1849,3.1831,3.1902,3.2183,3.2556,3.3076,3.362,3.4095,3.4261,3.3966,3.3298,3.2423,3.1458,3.0531,2.9822,2.9164,2.8521,2.9191,2.9539,2.9586,2.9799,2.9928,3.0005,3.0719,3.1234,3.0121,2.9707,3.0039,3.0263,3.0361,3.0256,2.9968,2.9632,2.9286,2.9095,2.8883,2.875,2.8697,2.8455,2.8101,3.3115,3.3115,3.3115,3.3115,3.3115,3.3115,3.3115,3.3115,3.3115,3.3115,3.3115,3.3115,3.3115,3.3115,3.3115,3.3115,3.3115,3.3115,3.3115,3.3115,3.3115,3.3115,3.3025,3.2788,3.2636,3.2568,3.2633,3.2633,3.2568,3.2918,3.3115,3.3115,3.3115,3.3115,3.3115,3.3115,3.3115,3.3115,3.3115,3.3072,3.2961,3.2939,3.2831,3.2636,3.2593,3.2463,3.2288,3.2661,3.2702,3.2484,3.2376,3.1649,3.0441,3.0757,3.0238,2.8818,2.8772,2.9096,2.8862,2.8932,2.9141,2.9715,3.0011,3.0147,3.0238,3.0535,3.0468,3.0077,3.0228,3.0276,3.0035,3.0916,3.1741,3.201,3.2375,3.2502,3.2626,3.2794,3.2913,3.3124,3.3528,3.4028,3.4362,3.4041,3.3745,3.2926,3.1793,3.0845,2.988,2.9032,2.8548,2.8281,2.8521,2.8628,2.8514,2.8839,2.9286,2.9702,3.0194,3.0471,3.0091,3.0242,3.0547,3.0634,3.0713,3.05,3.0238,2.9975,2.9653,2.9595,2.9494,2.9416,2.9216,2.8588,2.8133,3.3115,3.3115,3.3115,3.3115,3.3115,3.3115,3.3115,3.3115,3.3115,3.3115,3.3115,3.319,3.319,3.319,3.3316,3.3366,3.3169,3.3086,3.3043,3.3021,3.2953,3.2866,3.268,3.2198,3.1823,3.1647,3.1779,3.1757,3.1581,3.2239,3.2939,3.2702,3.2658,3.2874,3.2658,3.2874,3.2677,3.259,3.2698,3.2568,3.2351,3.2373,3.2264,3.2047,3.1981,3.1825,3.1605,3.1737,3.1959,3.1893,3.1717,3.0958,2.9943,2.9943,2.9418,2.7882,2.8073,2.8236,2.819,2.8094,2.8207,2.8555,2.8695,2.8395,2.8872,2.9436,2.9633,2.9345,2.9686,2.9947,3.0192,3.098,3.1728,3.2437,3.3088,3.3466,3.3406,3.36,3.3672,3.3648,3.4198,3.4775,3.4702,3.3918,3.3375,3.2828,3.1436,3.025,2.9775,2.9112,2.8468,2.832,2.8359,2.8476,2.8562,2.891,2.9399,2.9758,3.0111,3.0183,3.0322,3.0564,3.0762,3.0888,3.0928,3.0723,3.0527,3.028,3.0117,2.9983,2.9946,2.991,2.9429,2.8713,2.771,3.3115,3.3115,3.3115,3.3115,3.3115,3.3115,3.3093,3.3115,3.3093,3.3097,3.319,3.3542,3.3674,3.3721,3.4076,3.4299,3.3948,3.3269,3.2874,3.2763,3.2248,3.1805,3.1542,3.1315,3.1071,3.0893,3.0985,3.0778,3.0576,3.0982,3.1092,3.0957,3.1114,3.1024,3.0957,3.1024,3.0845,3.071,3.0687,3.062,3.0395,3.035,3.0147,2.992,2.9966,2.9852,2.9601,2.9624,3.0125,3.0846,3.0846,2.9897,2.8308,2.8657,2.8308,2.6907,2.7078,2.7413,2.7336,2.7404,2.7746,2.8468,2.8633,2.9094,2.9271,2.957,2.9412,2.9032,2.907,2.9125,2.8798,2.9663,3.0897,3.2504,3.362,3.4165,3.4145,3.434,3.4486,3.4486,3.4654,3.4751,3.4482,3.3819,3.3101,3.2678,3.1308,2.9816,2.9542,2.9113,2.8398,2.8457,2.8516,2.8645,2.8867,2.9199,2.9567,2.9928,3.015,3.0218,3.0379,3.0644,3.0781,3.0928,3.1052,3.0951,3.0843,3.0634,3.0524,3.0319,3.039,3.0288,2.9379,2.8531,2.7197,3.1867,3.1889,3.1889,3.1867,3.1889,3.1889,3.223,3.2734,3.2802,3.3217,3.3709,3.4076,3.4023,3.3803,3.4053,3.3996,3.3649,3.2968,3.2665,3.2503,3.1856,3.1553,3.1459,3.1274,3.0928,3.0697,3.0743,3.0559,3.0215,3.0331,3.0331,3.0102,2.992,2.9852,2.992,2.9852,2.9784,2.967,2.9624,2.9487,2.9235,2.9212,2.9097,2.8935,2.8866,2.8796,2.8727,2.8704,2.905,2.9601,2.9647,2.8958,2.7487,2.7722,2.7318,2.5864,2.6443,2.6806,2.6774,2.6947,2.7361,2.7811,2.8197,2.8346,2.8495,2.8807,2.8674,2.8304,2.854,2.8663,2.8978,3.0073,3.1746,3.3398,3.4212,3.4555,3.4555,3.4678,3.4775,3.4799,3.4775,3.4506,3.4041,3.3124,3.2423,3.164,3.0224,2.9556,2.9273,2.8811,2.8633,2.8769,2.8906,2.9101,2.9297,2.959,2.9805,3.0156,3.0449,3.0469,3.0605,3.082,3.1016,3.1161,3.1204,3.1186,3.1019,3.0857,3.0646,3.055,3.0714,3.0302,2.9351,2.8271,2.6935,3.0215,3.0215,3.0215,3.0215,3.0351,3.0352,3.1219,3.2187,3.242,3.3118,3.4055,3.4456,3.3978,3.3448,3.357,3.3195,3.2582,3.2369,3.2204,3.1919,3.156,3.1442,3.1917,3.1171,3.0791,3.0598,3.09,3.0322,2.9749,3.0132,3.0027,2.9387,2.9115,2.9073,2.8865,2.8958,2.9073,2.8843,2.8727,2.8564,2.8355,2.8285,2.8168,2.8075,2.8028,2.8096,2.8121,2.8192,2.8285,2.8355,2.8495,2.8004,2.7176,2.7033,2.6685,2.6079,2.6226,2.6497,2.6534,2.6845,2.7043,2.7255,2.7249,2.7129,2.7497,2.7877,2.8028,2.795,2.8119,2.8767,2.9766,3.1666,3.2976,3.3992,3.4531,3.4775,3.4799,3.4799,3.4799,3.475,3.475,3.3967,3.3049,3.1968,3.1077,3.082,2.958,2.9106,2.9018,2.8913,2.8984,2.9344,2.95,2.9637,2.9805,3.0,3.0176,3.0391,3.0781,3.0937,3.0976,3.1142,3.1347,3.148,3.1458,3.1314,3.11,3.0917,3.0792,3.0827,3.0982,3.022,2.9225,2.8064,2.6813,3.0215,3.0215,3.0215,3.0283,3.0488,3.0881,3.132,3.1758,3.2182,3.2581,3.2982,3.3362,3.3339,3.2956,3.3284,3.3346,3.2741,3.1977,3.1327,3.0905,3.0805,3.1096,3.1354,3.0568,3.0024,2.987,2.8922,2.863,2.8775,2.8495,2.7886,2.7828,2.7862,2.7452,2.73,2.7375,2.7027,2.6887,2.6887,2.6839,2.6672,2.6624,2.6596,2.6524,2.652,2.6424,2.6356,2.6332,2.6332,2.6524,2.7051,2.7184,2.6416,2.6194,2.6207,2.631,2.6348,2.6562,2.6836,2.7012,2.7187,2.7526,2.7565,2.7676,2.8008,2.8047,2.8144,2.8164,2.8269,2.8767,2.9854,3.1129,3.2376,3.34,3.4164,3.4605,3.475,3.4775,3.4799,3.4604,3.4066,3.3425,3.3001,3.1257,3.0401,2.9828,2.9292,2.8657,2.875,2.8996,2.9375,2.9833,2.9989,3.0106,3.0185,3.0332,3.0469,3.0644,3.0996,3.1278,3.1317,3.1463,3.1636,3.1695,3.1665,3.1515,3.1397,3.1221,3.1138,3.1203,3.1016,2.991,2.8836,2.7735,2.6339,2.9234,2.8885,2.9199,2.9271,2.9253,2.9815,3.0415,3.1019,3.1526,3.2085,3.2673,3.3165,3.3056,3.2462,3.2687,3.2574,3.2072,3.157,3.1004,3.064,3.0579,3.0725,3.0643,3.007,2.9643,2.9967,2.9312,2.8869,2.8542,2.8087,2.7733,2.7237,2.7117,2.7063,2.6705,2.6551,2.6472,2.6319,2.5995,2.582,2.5698,2.5698,2.5698,2.5776,2.5893,2.603,2.6104,2.6079,2.6172,2.6393,2.6809,2.6807,2.6236,2.6206,2.644,2.6641,2.6939,2.7076,2.7311,2.75,2.7734,2.7956,2.7976,2.8093,2.8242,2.8301,2.8301,2.8301,2.8361,2.8714,2.9828,3.0923,3.1869,3.23,3.2951,3.33,3.3449,3.414,3.4555,3.4164,3.3549,3.2602,3.1615,3.0432,2.9881,2.94,2.9306,2.8809,2.9473,2.9726,2.9922,3.0234,3.041,3.0556,3.0566,3.0644,3.0771,3.0918,3.1152,3.1364,3.1477,3.1689,3.191,3.1903,3.1871,3.2011,3.1923,3.1689,3.141,3.1355,3.0836,2.9589,2.8411,2.742,2.5752,2.8109,2.7303,2.81,2.8154,2.7854,2.8615,2.9519,3.0298,3.0773,3.1482,3.2337,3.2916,3.2205,3.1764,3.156,3.1193,3.078,3.0707,3.0422,3.0334,3.0387,3.0366,3.0104,2.9713,2.958,3.0406,2.9616,2.9111,2.8884,2.852,2.7825,2.7408,2.712,2.6912,2.6803,2.6582,2.6436,2.6456,2.6236,2.6055,2.601,2.601,2.601,2.6089,2.6284,2.6484,2.6484,2.6504,2.6621,2.6967,2.707,2.6914,2.6777,2.6797,2.709,2.7064,2.7428,2.7624,2.778,2.8054,2.8223,2.8301,2.8281,2.8281,2.8301,2.8301,2.8301,2.8301,2.8361,2.8734,2.9801,3.0587,3.1231,3.1615,3.164,3.1589,3.1895,3.3275,3.3499,3.3126,3.2401,3.1513,3.0691,2.9717,2.934,2.908,2.8988,2.9172,2.9863,3.0254,3.0332,3.0508,3.0664,3.0752,3.0771,3.0762,3.0908,3.1045,3.1259,3.1429,3.1623,3.1915,3.2083,3.2111,3.2131,3.2137,3.2021,3.1662,3.1442,3.141,3.0599,2.9378,2.8213,2.7121,2.5297,2.7878,2.7061,2.8172,2.8464,2.8347,2.9205,2.9784,3.0163,3.0582,3.0675,3.0533,3.0608,3.0526,3.0156,3.0026,2.9764,2.9633,2.9691,2.9755,2.9782,2.9854,2.9818,2.9829,2.9344,2.9242,2.908,2.8785,2.8586,2.8711,2.8278,2.7773,2.7225,2.7115,2.6973,2.6738,2.6445,2.666,2.6855,2.6738,2.6635,2.6635,2.6693,2.6674,2.6674,2.6816,2.6894,2.6914,2.6914,2.6928,2.7006,2.7363,2.7506,2.7409,2.7207,2.7266,2.7526,2.7682,2.7878,2.8132,2.8223,2.8301,2.8301,2.8301,2.8301,2.8301,2.8301,2.8301,2.8301,2.8381,2.8734,2.9775,3.0042,3.0613,3.1154,3.1334,3.1334,3.1509,3.1764,3.2069,3.1637,3.0974,3.0453,2.977,2.9312,2.9158,2.9129,2.9262,2.9531,3.0137,3.0371,3.043,3.0625,3.0869,3.0888,3.0888,3.0888,3.0918,3.1025,3.1209,3.1433,3.1681,3.2067,3.2245,3.2042,3.1952,3.1899,3.1731,3.1506,3.1442,3.141,3.034,2.9215,2.7982,2.6755,2.5196,2.826,2.761,2.8764,2.9058,2.8873,2.9611,2.9867,2.9756,2.9926,2.9777,2.9575,2.9661,2.9606,2.9396,2.9343,2.9237,2.9158,2.929,2.9448,2.9554,2.9448,2.9396,2.9448,2.8946,2.8734,2.8602,2.8285,2.8232,2.8615,2.8291,2.7832,2.7754,2.7676,2.7559,2.7363,2.7233,2.7194,2.7305,2.7148,2.7031,2.707,2.7207,2.7266,2.7109,2.7246,2.7344,2.7363,2.7363,2.7461,2.7676,2.7891,2.7995,2.791,2.7832,2.7754,2.793,2.7995,2.8047,2.8262,2.8301,2.8301,2.8301,2.8301,2.8301,2.8301,2.8301,2.8301,2.8301,2.8301,2.8495,2.9006,2.9112,2.9375,2.9717,2.9958,2.9984,2.9932,2.9932,3.0037,3.0214,3.0162,2.9764,2.9172,2.8892,2.8937,2.9121,2.9414,2.9883,3.043,3.0547,3.0586,3.0703,3.0928,3.0928,3.0928,3.0928,3.085,3.0927,3.1099,3.132,3.1522,3.1797,3.1832,3.1675,3.1635,3.1717,3.1589,3.1442,3.141,3.1377,3.0714,2.9722,2.7916,2.6321,2.4858,2.88,2.8163,2.9342,2.9584,2.9269,2.971,2.9699,2.9379,2.9311,2.909,2.8799,2.9082,2.9158,2.8973,2.892,2.8946,2.8946,2.9185,2.9237,2.9211,2.9026,2.8946,2.8814,2.8575,2.8354,2.8388,2.8322,2.8301,2.8335,2.8269,2.8242,2.8027,2.8105,2.8191,2.7995,2.7545,2.7643,2.7682,2.7409,2.7187,2.7344,2.7604,2.7663,2.7324,2.7643,2.7793,2.7819,2.7819,2.793,2.8125,2.8242,2.8281,2.8281,2.8301,2.8301,2.8301,2.8301,2.8301,2.8301,2.8301,2.8301,2.8301,2.8301,2.8301,2.8301,2.8301,2.8301,2.8301,2.8301,2.8327,2.8441,2.8354,2.8361,2.8415,2.8468,2.8381,2.8548,2.8654,2.8761,2.8973,2.9304,2.9319,2.8905,2.8888,2.9012,2.9512,2.9805,3.0117,3.0605,3.0771,3.083,3.0849,3.0928,3.0928,3.0928,3.0928,3.0791,3.0733,3.0862,3.1051,3.12,3.137,3.1347,3.1451,3.157,3.1621,3.1474,3.141,3.141,3.1345,3.1134,3.0015,2.7883,2.6321,2.5008,2.9147,2.8389,2.9561,2.9775,2.9332,2.9377,2.9312,2.914,2.9122,2.8814,2.8403,2.8429,2.8495,2.8461,2.8461,2.8434,2.8441,2.8521,2.8601,2.8601,2.8541,2.8468,2.8415,2.8354,2.8301,2.8301,2.8301,2.8301,2.8301,2.8301,2.8125,2.7936,2.7917,2.7819,2.7897,2.7578,2.75,2.8008,2.7819,2.7761,2.8015,2.8125,2.8125,2.8132,2.8125,2.8164,2.8144,2.8144,2.8223,2.8262,2.8301,2.8301,2.8301,2.8301,2.8301,2.8301,2.8301,2.8301,2.8301,2.8301,2.8301,2.8301,2.8301,2.8301,2.8301,2.8301,2.8301,2.8301,2.8301,2.8301,2.8301,2.8301,2.8301,2.8301,2.8301,2.8301,2.8301,2.8301,2.8301,2.8503,2.9066,2.9176,2.9027,2.9051,2.918,2.9726,3.0215,3.0508,3.0723,3.084,3.0928,3.0928,3.0879,3.0879,3.0762,3.0791,3.0655,3.0509,3.0607,3.0751,3.0921,3.1083,3.1183,3.1276,3.1433,3.1538,3.1442,3.141,3.141,3.1281,3.1037,2.9509,2.7519,2.6221,2.5229,3.0002,2.9437,2.9878,2.9952,2.9694,2.9379,2.9161,2.9039,2.8787,2.8521,2.8327,2.8301,2.8301,2.8301,2.8301,2.8301,2.8301,2.8301,2.8301,2.8301,2.8301,2.8301,2.8301,2.8301,2.8301,2.8301,2.8301,2.8301,2.8301,2.8281,2.8164,2.8073,2.8054,2.8093,2.7995,2.7832,2.7969,2.8164,2.8132,2.8015,2.8034,2.8164,2.8301,2.8301,2.8301,2.8301,2.8301,2.8301,2.8301,2.8301,2.8301,2.8301,2.8301,2.8301,2.8301,2.8301,2.8301,2.8301,2.8301,2.8301,2.8301,2.8301,2.8301,2.8301,2.8301,2.8301,2.8301,2.8301,2.8301,2.8301,2.8301,2.8301,2.8301,2.8301,2.834,2.834,2.834,2.832,2.8359,2.8574,2.882,2.9121,2.9414,2.9609,2.9726,3.0,3.041,3.0684,3.0801,3.0888,3.0928,3.0928,3.0879,3.085,3.0655,3.0548,3.0372,3.0254,3.0233,3.0414,3.0704,3.0847,3.1009,3.1208,3.1405,3.1442,3.141,3.141,3.141,3.1184,3.0926,2.9215,2.7618,2.6855,2.57,3.0556,3.033,3.0147,2.9989,2.978,2.9175,2.8893,2.884,2.8495,2.8301,2.8301,2.8301,2.8301,2.8301,2.8301,2.8301,2.8301,2.8301,2.8301,2.8301,2.8301,2.8301,2.8301,2.8301,2.8301,2.8301,2.8301,2.8301,2.8301,2.8301,2.8281,2.8301,2.8223,2.8262,2.8242,2.8112,2.8073,2.8047,2.8203,2.8151,2.8015,2.8164,2.8262,2.8301,2.8301,2.8301,2.8301,2.8301,2.8301,2.8301,2.8301,2.8301,2.8301,2.8301,2.8301,2.8301,2.8301,2.8301,2.8301,2.8301,2.8301,2.8301,2.8301,2.8301,2.8301,2.8301,2.8301,2.8301,2.8301,2.8301,2.8301,2.8301,2.8301,2.834,2.8445,2.8445,2.8503,2.8613,2.8789,2.9043,2.9316,2.9609,2.9902,3.0195,3.0351,3.0391,3.0605,3.0869,3.0898,3.0869,3.0869,3.082,3.0587,3.0538,3.046,3.0295,3.009,2.993,2.9935,3.0116,3.0421,3.0661,3.0817,3.1061,3.1355,3.141,3.141,3.141,3.1377,3.1087,3.0552,2.9248,2.7982,2.7088,2.5853,3.041,3.0725,3.0198,2.9676,2.9157,2.8581,2.8381,2.8415,2.8335,2.8301,2.8301,2.8301,2.8301,2.8301,2.8301,2.8301,2.8301,2.8301,2.8301,2.8301,2.8301,2.8301,2.8301,2.8301,2.8301,2.8301,2.8301,2.8301,2.8301,2.8301,2.8301,2.8301,2.8301,2.8301,2.8223,2.8073,2.7897,2.7936,2.8132,2.8269,2.8191,2.8242,2.8281,2.8301,2.8301,2.8301,2.8301,2.8301,2.8301,2.8301,2.8301,2.8301,2.8301,2.8301,2.8301,2.8301,2.8301,2.8301,2.8301,2.8301,2.8301,2.8301,2.8301,2.8301,2.8301,2.8301,2.8301,2.8301,2.8301,2.8301,2.8301,2.8301,2.8398,2.8496,2.8672,2.8848,2.8965,2.9188,2.9364,2.9579,2.9794,2.998,3.0234,3.0508,3.0605,3.0644,3.0664,3.0928,3.0791,3.0762,3.0762,3.0674,3.0274,3.0157,3.0197,3.005,2.9844,2.9664,2.9573,2.9848,3.0186,3.0387,3.0641,3.1098,3.141,3.141,3.1377,3.1313,3.1184,3.0908,3.0145,2.8723,2.6988,2.5551,2.452,2.9933,2.9738,2.9527,2.9317,2.9052,2.8521,2.8301,2.8301,2.8301,2.8301,2.8301,2.8301,2.8301,2.8301,2.8301,2.8301,2.8301,2.8301,2.8301,2.8301,2.8301,2.8301,2.8301,2.8301,2.8301,2.8301,2.8301,2.8301,2.8301,2.8301,2.8301,2.8301,2.8301,2.8301,2.8203,2.8132,2.7956,2.7858,2.8054,2.821,2.8015,2.8184,2.8301,2.8301,2.8301,2.8301,2.8301,2.8301,2.8301,2.8301,2.8301,2.8301,2.8301,2.8301,2.8301,2.8301,2.8301,2.8301,2.8301,2.8301,2.8301,2.8301,2.8301,2.8301,2.8301,2.8301,2.8301,2.8301,2.832,2.8359,2.832,2.8516,2.873,2.8789,2.8984,2.9238,2.9414,2.9637,2.9833,3.0009,3.0126,3.0254,3.0508,3.0781,3.082,3.0888,3.0908,3.0898,3.0733,3.0587,3.0557,3.047,3.0069,2.9815,2.9844,2.9726,2.9587,2.9413,2.9255,2.966,3.0049,3.0265,3.0529,3.1016,3.1216,3.094,3.0843,3.1055,3.0649,2.9689,2.892,2.8065,2.6203,2.4229,2.3529,2.9475,2.9105,2.8946,2.8867,2.8787,2.8441,2.8301,2.8301,2.8301,2.8301,2.8301,2.8301,2.8301,2.8301,2.8301,2.8301,2.8301,2.8301,2.8301,2.8301,2.8301,2.8301,2.8301,2.8301,2.8301,2.8301,2.8301,2.8301,2.8301,2.8301,2.8301,2.8301,2.8301,2.8301,2.8301,2.8281,2.8151,2.8034,2.8066,2.8184,2.7976,2.8125,2.8301,2.8301,2.8301,2.8301,2.8301,2.8301,2.8301,2.8301,2.8301,2.8301,2.8301,2.8301,2.8301,2.8301,2.8301,2.8301,2.8301,2.8301,2.8301,2.8301,2.8301,2.8301,2.8301,2.8301,2.8301,2.832,2.8379,2.8476,2.8516,2.8848,2.9101,2.9199,2.9512,2.9766,2.9844,3.0048,3.0243,3.0419,3.0488,3.0566,3.0644,3.084,3.083,3.0898,3.0898,3.0791,3.0616,3.044,3.0264,3.0128,2.9892,2.9667,2.9471,2.9398,2.936,2.9318,2.924,2.9609,2.9932,3.0176,3.0556,3.1135,3.1069,3.0455,3.0,2.9739,2.8937,2.7965,2.7253,2.6617,2.5244,2.3461,2.327,2.9105,2.9052,2.8548,2.8354,2.8361,2.8327,2.8301,2.8301,2.8301,2.8301,2.8301,2.8301,2.8301,2.8301,2.8301,2.8301,2.8301,2.8301,2.8301,2.8301,2.8301,2.8301,2.8301,2.8301,2.8301,2.8301,2.8301,2.8301,2.8301,2.8301,2.8301,2.8301,2.8301,2.8301,2.8301,2.8301,2.8281,2.8308,2.8281,2.8242,2.8242,2.8262,2.8281,2.8301,2.8301,2.8301,2.8301,2.8301,2.8301,2.8301,2.8301,2.8301,2.8301,2.8301,2.8301,2.8301,2.8301,2.8301,2.8301,2.8301,2.8301,2.8301,2.8301,2.834,2.832,2.834,2.8437,2.8594,2.875,2.8887,2.9062,2.9277,2.95,2.9696,2.998,3.0215,3.0293,3.04,3.0576,3.0654,3.0791,3.0908,3.0859,3.0879,3.085,3.085,3.0879,3.0733,3.045,3.0216,3.0,2.9852,2.9675,2.945,2.9273,2.9179,2.9115,2.9085,2.9197,2.9543,2.9892,3.0193,3.0669,3.1244,3.1196,3.085,2.945,2.818,2.7255,2.6349,2.5663,2.4858,2.3673,2.2996,2.2928,2.8594,2.8568,2.8361,2.8301,2.8301,2.8301,2.8301,2.8301,2.8301,2.8301,2.8301,2.8301,2.8301,2.8301,2.834,2.8359,2.834,2.8301,2.8301,2.832,2.8359,2.8301,2.832,2.8398,2.8359,2.8301,2.8301,2.8359,2.8301,2.834,2.832,2.8301,2.8301,2.8301,2.8301,2.8301,2.8301,2.8281,2.8301,2.8301,2.8301,2.8301,2.8301,2.8301,2.8301,2.8301,2.8301,2.8301,2.8301,2.8301,2.8301,2.8301,2.8301,2.8301,2.8301,2.8301,2.8301,2.8301,2.8301,2.8301,2.8301,2.832,2.834,2.8457,2.8625,2.8711,2.8848,2.907,2.9199,2.9336,2.9442,2.9746,2.9961,3.0078,3.0332,3.0586,3.0703,3.0771,3.0869,3.0849,3.0928,3.0898,3.085,3.0616,3.0557,3.0528,3.0499,3.0382,3.0128,2.9863,2.9675,2.9557,2.9417,2.9202,2.9064,2.911,2.9133,2.9128,2.9212,2.9404,2.9779,3.0248,3.0793,3.1393,3.1371,3.1148,2.9077,2.7159,2.5755,2.4741,2.4533,2.4225,2.3515,2.3075,2.2893,2.8301,2.8301,2.8301,2.8301,2.8301,2.8301,2.8301,2.8301,2.8301,2.8359,2.8496,2.8516,2.8633,2.8711,2.873,2.8758,2.8758,2.875,2.875,2.873,2.875,2.8809,2.8816,2.8738,2.8875,2.8758,2.8738,2.873,2.8555,2.8535,2.8437,2.834,2.8301,2.8301,2.8301,2.8301,2.8301,2.8301,2.8301,2.8301,2.8301,2.8301,2.8301,2.8301,2.8301,2.8301,2.8301,2.8301,2.8301,2.8301,2.8301,2.8301,2.8301,2.8301,2.8379,2.8457,2.8516,2.8594,2.875,2.8574,2.8652,2.8809,2.8613,2.873,2.9004,2.9043,2.9199,2.9422,2.9676,2.9774,2.9872,3.0195,3.0391,3.0508,3.0586,3.084,3.0879,3.0928,3.0928,3.0928,3.0898,3.082,3.0674,3.0392,3.0186,3.0128,3.0098,2.9852,2.9702,2.9621,2.9427,2.9363,2.9287,2.9179,2.911,2.9165,2.9158,2.9151,2.9298,2.9483,2.9951,3.0473,3.0987,3.1453,3.1631,3.0942,2.8239,2.6284,2.5076,2.4359,2.412,2.3806,2.3345,2.3153,2.2974,2.8301,2.8301,2.8301,2.8301,2.8301,2.834,2.834,2.834,2.834,2.8574,2.8898,2.8945,2.9082,2.9481,2.954,2.9481,2.9461,2.9481,2.9461,2.9461,2.9364,2.9442,2.9461,2.9442,2.9344,2.9461,2.9442,2.9168,2.8945,2.8809,2.8633,2.8418,2.834,2.832,2.8301,2.8301,2.8301,2.8301,2.8301,2.8301,2.8301,2.8301,2.8301,2.8301,2.8301,2.8301,2.8301,2.8301,2.832,2.834,2.832,2.832,2.832,2.832,2.8574,2.8781,2.8898,2.9141,2.9305,2.9062,2.9199,2.9383,2.9199,2.9297,2.9394,2.9453,2.9618,2.9833,3.0067,3.0137,3.0254,3.0527,3.081,3.0849,3.0849,3.0928,3.0928,3.0928,3.0928,3.0898,3.082,3.0704,3.0323,3.0058,2.945,2.9177,2.8943,2.8612,2.8647,2.942,2.9271,2.9221,2.9195,2.9158,2.9189,2.9389,2.9383,2.941,2.952,2.9732,3.0236,3.0671,3.1163,3.1613,3.1987,3.0821,2.8131,2.6106,2.458,2.4115,2.3941,2.3781,2.35,2.3247,2.3046,2.8301,2.8301,2.8301,2.8301,2.834,2.8613,2.8723,2.875,2.8723,2.8984,2.9394,2.9375,2.9492,2.9598,2.9598,2.9637,2.9637,2.9598,2.9598,2.9637,2.9735,2.9657,2.9637,2.9676,2.9637,2.9637,2.9618,2.9618,2.9336,2.9141,2.8898,2.875,2.8535,2.8418,2.8379,2.832,2.834,2.832,2.832,2.8301,2.8301,2.8301,2.8301,2.8301,2.8301,2.8301,2.8301,2.8301,2.8398,2.8652,2.8418,2.8379,2.8703,2.8723,2.8926,2.9344,2.9422,2.9481,2.9559,2.9481,2.9598,2.9931,2.9863,2.9883,2.9961,2.998,3.0039,3.0282,3.0439,3.0508,3.0547,3.0771,3.0928,3.0928,3.0928,3.0928,3.0898,3.082,3.082,3.0674,3.0645,3.0185,2.9861,2.9094,2.8496,2.814,2.7829,2.75,2.771,2.8531,2.9003,2.8946,2.9351,2.9421,2.9584,2.9763,2.971,2.9717,2.9837,2.9937,3.0168,3.0603,3.125,3.1292,3.0938,2.982,2.8018,2.6106,2.416,2.4048,2.3901,2.3781,2.3656,2.334,2.3086,2.8301,2.8301,2.8301,2.8379,2.8574,2.8809,2.9054,2.9355,2.9258,2.9414,2.9813,2.9852,2.995,3.0146,3.0185,3.0137,3.0165,3.0224,3.0204,3.0176,3.0067,3.0185,3.0146,3.0087,3.0185,3.0126,3.0067,3.0106,2.9785,2.9414,2.918,2.916,2.8894,2.8855,2.8875,2.8867,2.873,2.8574,2.8418,2.832,2.8301,2.8301,2.8301,2.832,2.832,2.832,2.834,2.834,2.8535,2.8848,2.8594,2.875,2.9082,2.9199,2.9219,2.9559,2.9579,2.9833,3.0067,2.997,3.0146,3.0332,3.0449,3.0469,3.0469,3.0469,3.0586,3.0723,3.083,3.0908,3.0908,3.0928,3.0928,3.0928,3.0928,3.0928,3.082,3.0762,3.0616,3.047,3.0126,2.968,2.9045,2.8201,2.7483,2.709,2.6814,2.6597,2.6981,2.7872,2.8349,2.8516,2.9238,2.9839,2.9933,2.9922,3.001,2.9982,3.0148,3.0248,3.0263,3.0493,3.1027,3.0342,2.9361,2.8135,2.6858,2.5398,2.3884,2.3821,2.3768,2.3581,2.3474,2.3367,2.3126,2.832,2.8379,2.8379,2.8691,2.8957,2.9082,2.9512,3.0156,2.9863,2.9902,3.0215,3.0254,3.0449,3.0644,3.0713,3.0752,3.0713,3.0713,3.0693,3.0859,3.0732,3.0713,3.0732,3.0888,3.0673,3.081,3.081,3.0488,3.0215,2.9863,2.9637,2.9657,2.952,2.9422,2.9383,2.9403,2.9227,2.8965,2.8711,2.8535,2.834,2.8301,2.832,2.8359,2.8379,2.8398,2.8437,2.8496,2.8574,2.8867,2.9043,2.9199,2.9473,2.9657,2.9676,2.9794,2.9911,3.0185,3.0478,3.041,3.0517,3.0732,3.0908,3.0801,3.0762,3.0742,3.082,3.0859,3.0908,3.0928,3.0928,3.0898,3.0898,3.0791,3.0733,3.0645,3.0528,3.043,3.0263,3.0094,2.9882,2.9347,2.8342,2.7515,2.6629,2.6088,2.5487,2.5347,2.5868,2.6776,2.7344,2.7701,2.8208,2.8915,2.97,2.9785,3.0145,3.0296,3.0263,3.01,2.9822,3.0202,3.077,2.9292,2.7654,2.6773,2.5568,2.4292,2.3589,2.3621,2.3527,2.3354,2.326,2.322,2.3126,2.8496,2.8809,2.9121,2.9512,2.9863,2.9902,3.0176,3.0703,3.0625,3.0605,3.0703,3.0723,3.0762,3.0908,3.0928,3.0928,3.0928,3.0928,3.0928,3.0908,3.0928,3.0928,3.0928,3.0928,3.0928,3.0928,3.0888,3.082,3.0605,3.0302,3.0067,3.0048,2.9891,2.9755,2.9735,2.9735,2.9618,2.9394,2.9305,2.8894,2.8476,2.8398,2.8398,2.8633,2.8742,2.8926,2.907,2.9246,2.9492,2.9785,2.9531,2.9715,3.0048,3.0048,3.0263,3.0517,3.0458,3.0586,3.0723,3.0742,3.081,3.083,3.0928,3.0928,3.0908,3.0928,3.0928,3.0928,3.0928,3.0928,3.0898,3.0869,3.0791,3.0674,3.048,3.0352,3.0205,3.0046,2.9896,2.9669,2.9481,2.8702,2.7696,2.6759,2.5889,2.4958,2.3979,2.3702,2.4151,2.4918,2.5789,2.6203,2.6597,2.732,2.8493,2.9413,2.9691,2.9855,2.9855,2.9641,2.9347,2.9094,2.8885,2.7301,2.583,2.5258,2.4631,2.3714,2.3201,2.3313,2.33,2.3126,2.3046,2.3006,2.3,2.8711,2.8937,2.9394,2.9833,3.0156,3.0195,3.0449,3.0869,3.0928,3.0928,3.0928,3.0928,3.0898,3.0898,3.0928,3.0869,3.0898,3.0928,3.0928,3.0928,3.0928,3.0928,3.0928,3.0928,3.0928,3.0928,3.0928,3.0888,3.0849,3.0703,3.0508,3.0478,3.0243,3.0146,3.0146,3.0165,3.0048,2.9891,2.9872,2.95,2.8914,2.8914,2.8953,2.918,2.9258,2.9394,2.9461,2.9618,2.9852,3.0137,3.0137,3.0059,3.0215,3.0156,3.0293,3.0449,3.0527,3.0684,3.082,3.0928,3.0928,3.0928,3.0928,3.0928,3.0928,3.0928,3.0928,3.0928,3.0928,3.0928,3.082,3.0791,3.0626,3.048,3.0245,3.0039,2.9917,2.9733,2.9197,2.8488,2.8166,2.7495,2.6504,2.5629,2.4808,2.4061,2.3024,2.2948,2.329,2.3495,2.4244,2.4887,2.5394,2.6319,2.7635,2.8493,2.9068,2.9232,2.9199,2.874,2.8196,2.7537,2.6727,2.5722,2.4916,2.4296,2.3622,2.315,2.2974,2.3094,2.3041,2.2934,2.2893,2.2893,2.2907,2.8957,2.9094,2.943,2.9771,3.0082,3.0102,3.0306,3.0636,3.0704,3.0674,3.0557,3.047,3.0587,3.0704,3.0898,3.082,3.0762,3.084,3.0869,3.0928,3.0928,3.0928,3.0928,3.0928,3.0928,3.0928,3.0928,3.0928,3.0908,3.0801,3.0801,3.0908,3.0928,3.0908,3.0928,3.0869,3.0654,3.0391,3.0254,3.0126,2.9872,2.9657,2.9598,2.9618,2.9676,2.9696,2.9755,2.9852,3.0028,3.0263,3.0586,3.0547,3.0469,3.0391,3.0391,3.0488,3.0508,3.0664,3.0801,3.0928,3.0928,3.0928,3.0928,3.0898,3.0889,3.083,3.083,3.0849,3.0849,3.0801,3.0713,3.0566,3.0419,3.0202,2.9936,2.9755,2.9605,2.9464,2.8722,2.783,2.726,2.6649,2.5539,2.4635,2.396,2.3236,2.2928,2.2893,2.2928,2.3099,2.3509,2.404,2.4501,2.5566,2.6655,2.7254,2.78,2.7998,2.7866,2.7486,2.6997,2.6076,2.5421,2.4959,2.4178,2.3882,2.3523,2.3121,2.3027,2.2974,2.292,2.2893,2.2893,2.2893,2.2893,2.9336,2.9924,2.9602,2.946,2.9517,2.9536,2.9621,2.9667,2.9697,2.9697,2.952,2.8938,2.8909,2.9726,3.0616,3.0616,3.0069,3.0411,3.0811,3.0928,3.0928,3.0928,3.0928,3.0928,3.0928,3.0928,3.0928,3.0928,3.0928,3.0928,3.0928,3.0928,3.0928,3.0928,3.0928,3.0888,3.0849,3.0664,3.0684,3.0615,3.041,3.0156,2.9863,2.9922,3.0078,3.0341,3.0527,3.0625,3.0684,3.0762,3.0849,3.0781,3.0742,3.0664,3.0664,3.0644,3.0644,3.0723,3.0908,3.0869,3.082,3.084,3.0801,3.0771,3.0732,3.0575,3.0563,3.0536,3.0528,3.0515,3.0397,3.0238,3.0043,2.9756,2.9508,2.9422,2.9321,2.9318,2.9066,2.8346,2.7741,2.6562,2.5008,2.4324,2.3879,2.3304,2.3167,2.3099,2.2928,2.2928,2.3065,2.3324,2.3802,2.4297,2.5177,2.5667,2.6136,2.6388,2.6355,2.5719,2.5081,2.4421,2.3882,2.3894,2.4051,2.3932,2.3527,2.314,2.3073,2.302,2.2947,2.2893,2.2893,2.2893,2.2893]},{"header":{"parameterUnit":"m.s-1","parameterCategory":1,"la1":31.0,"la2":29.5877,"lo1":-88.7671,"lo2":-86.6584,"dx":0.0162,"dy":0.0185,"nx":115,"ny":88,"refTime":"2022-11-06T18:00:00:Z","depth":0,"parameterNumber":3,"parameterNumberName":"V-component_of_WINDS"},"data":[0.0,0.0,0.0,0.0,0.0,0.0,0.0,0.0,0.0,0.0,0.0,0.0,0.0,0.0,0.0,0.0,0.0,0.0,0.0,0.0,0.0,0.0,0.0,0.0,0.0,0.0,0.0,0.0,0.0,0.0,0.0,0.0,0.0,0.0,0.0,0.0,0.0,0.0,0.0,0.0,0.0,0.0,0.0,0.0,0.0,0.0,0.0,0.0,0.0,0.0,0.0,0.0,0.0,0.0,0.0,0.0,0.0,0.0,0.0,0.0,0.0,0.0,0.0,0.0,0.0,0.0,0.0,0.0,0.0,0.0,0.0,0.0,0.0,0.0,0.0,0.0,0.0,0.0,0.0,0.0,0.0,0.0,0.0,0.0,0.0,0.0,0.0,0.0,0.0,0.0,0.0,0.0,0.0,0.0,0.0,0.0,0.0,0.0,0.0,0.0,0.0,0.0,0.0,0.0,0.0,0.0,0.0,0.0,0.0,0.0,0.0,0.0,0.0,0.0,0.0,0.0,0.0,0.0,0.0,0.0,0.0,0.0,0.0,0.0,0.0,0.0,0.0,0.0,0.0,0.0,0.0,0.0,0.0,0.0,0.0,0.0,0.0,0.0,0.0,0.0,0.0,0.0,0.0,0.0,0.0,0.0,0.0,0.0,0.0,0.0,0.0,0.0,0.0,0.0,0.0,0.0,0.0,0.0,0.0,0.0,0.0,0.0,0.0,0.0,0.0,0.0,0.0,0.0,0.0,0.0,0.0,0.0,0.0,0.0,0.0,0.0,0.0,0.0,0.0,0.0,0.0,0.0,0.0,0.0,0.0,0.0,0.0,0.0,0.0,0.0,0.0,0.0,0.0,0.0,0.0,0.0,0.0,0.0,0.0,0.0,0.0,0.0,0.0,0.0,0.0,0.0,0.0,0.0,0.0,0.0,0.0,0.0,0.0,0.0,0.0,0.0,0.0,0.0,0.0,0.0,0.0,0.0,0.0,0.0,0.0,0.0,0.0,0.0,0.0,0.0,0.0,0.0,0.0,0.0,0.0,0.0,0.0,0.0,0.0,0.0,0.0,0.0,0.0,0.0,0.0,0.0,0.0,0.0,0.0,0.0,0.0,0.0,0.0,0.0,0.0,0.0,0.0,0.0,0.0,0.0,0.0,0.0,0.0,0.0,0.0,0.0,0.0,0.0,0.0,0.0,0.0,0.0,0.0,0.0,0.0,0.0,0.0,0.0,0.0,0.0,0.0,0.0,0.0,0.0,0.0,0.0,0.0,0.0,0.0,0.0,0.0,0.0,0.0,0.0,0.0,0.0,0.0,0.0,0.0,0.0,0.0,0.0,0.0,0.0,0.0,0.0,0.0,0.0,0.0,0.0,0.0,0.0,0.0,0.0,0.0,0.0,0.0,0.0,0.0,0.0,0.0,0.0,0.0,0.0,0.0,0.0,0.0,0.0,0.0,0.0,0.0,0.0,0.0,0.0,0.0,0.0,0.0,0.0,0.0,0.0,0.0,0.0,0.0,0.0,0.0,0.0,0.0,0.0,0.0,0.0,0.0,0.0,0.0,0.0,0.0,0.0,0.0,0.0,0.0,0.0,0.0,0.0,0.0,0.0,0.0,0.0,0.0,0.0,0.0,0.0,0.0,0.0,0.0,0.0,0.0,0.0,0.0,0.0,0.0,0.0,0.0,0.0,0.0,0.0,0.0,0.0,0.0,0.0,0.0,0.0,0.0,0.0,0.0,0.0,0.0,0.0,0.0,0.0,0.0,0.0,0.0,0.0,0.0,0.0,0.0,0.0,0.0,0.0,0.0,0.0,0.0,0.0,0.0,0.0,0.0,0.0,0.0,0.0,0.0,0.0,0.0,0.0,0.0,0.0,0.0,0.0,0.0,0.0,0.0,0.0,0.0,0.0,0.0,0.0,0.0,0.0,0.0,0.0,0.0,0.0,0.0,0.0,0.0,0.0,0.0,0.0,0.0,0.0,0.0,0.0,0.0,0.0,0.0,0.0,0.0,0.0,0.0,0.0,0.0,0.0,0.0,0.0,0.0,0.0,0.0,0.0,0.0,0.0,0.0,0.0,0.0,0.0,0.0,0.0,0.0,0.0,0.0,0.0,0.0,0.0,0.0,0.0,0.0,0.0,0.0,0.0,0.0,0.0,0.0,0.0,0.0,0.0,0.0,0.0,0.0,0.0,0.0,0.0,0.0,0.0,0.0,0.0,0.0,0.0,0.0,0.0,0.0,0.0,0.0,0.0,0.0,0.0,0.0,0.0,0.0,0.0,0.0,0.0,0.0,0.0,0.0,0.0,0.0,0.0,0.0,0.0,0.0,0.0,0.0,0.0,0.0,0.0,0.0,0.0,0.0,0.0,0.0,0.0,0.0,0.0,0.0,0.0,0.0,0.0,0.0,0.0,0.0,0.0,0.0,0.0,0.0,0.0,0.0,0.0,0.0,0.0,0.0,0.0,0.0,0.0,0.0,0.0,0.0,0.0,0.0,0.0,0.0,0.0,0.0,0.0,0.0,0.0,0.0,0.0,0.0,0.0,0.0,0.0,0.0,0.0,0.0,0.0,0.0,0.0,0.0,0.0,0.0,0.0,0.0,0.0,0.0,0.0,0.0,0.0,0.0,0.0,0.0,0.0,0.0,0.0,0.0,0.0,0.0,0.0,0.0,0.0,0.0,0.0,0.0,0.0,0.0,0.0,0.0,0.0,0.0,0.0,0.0,0.0,0.0,0.0,0.0,0.0,0.0,0.0,0.0,0.0,0.0,0.0,0.0,0.0,0.0,0.0,0.0,0.0,0.0,0.0,0.0,0.0,0.0,0.0,0.0,0.0,0.0,0.0,0.0,0.0,0.0,0.0,0.0,0.0,0.0,0.0,0.0,0.0,0.0,0.0,0.0,0.0,0.0,0.0,0.0,0.0,0.0,0.0,0.0,0.0,0.0,0.0,0.0,0.0,0.0,0.0,0.0,0.0,0.0,0.0,0.0,0.0,0.0,0.0,0.0,0.0,0.0,0.0,0.0,0.0,0.0,0.0,0.0,0.0,0.0,0.0,0.0,0.0,0.0,0.0,0.0,0.0,0.0,0.0,0.0,0.0,0.0,0.0,0.0,0.0,0.0,0.0,0.0,0.0,0.0,0.0,0.0,0.0,0.0,0.0,0.0,0.0,0.0,0.0,0.0,0.0,0.0,0.0,0.0,0.0,0.0,0.0,0.0,0.0,0.0,0.0,0.0,0.0,0.0,0.0,0.0,0.0,0.0,0.0,0.0,0.0,0.0,0.0,0.0,0.0,0.0,0.0,0.0,0.0,0.0,0.0,0.0,0.0,0.0,0.0,0.0,0.0,0.0,0.0,0.0,0.0,0.0,0.0,0.0,0.0,0.0,0.0,0.0,0.0,0.0,0.0,0.0,0.0,0.0,0.0,0.0,0.0,0.0,0.0,0.0,0.0,0.0,0.0,0.0,0.0,0.0,0.0,0.0,0.0,0.0,0.0,0.0,0.0,0.0,0.0,0.0,0.0,0.0,0.0,0.0,0.0,0.0,0.0,0.0,0.0,0.0,0.0,0.0,0.0,0.0,0.0,0.0,0.0,0.0,0.0,0.0,0.0,0.0,0.0,0.0,0.0,0.0,0.0,0.0,0.0,0.0,0.0,0.0,0.0,0.0,0.0,0.0,0.0,0.0,0.0,0.0,0.0,0.0,0.0,0.0,0.0,0.0,0.0,0.0,0.0,0.0,0.0,0.0,0.0,0.0,0.0,0.0,0.0,0.0,0.0,0.0,0.0,0.0,0.0,0.0,0.0,0.0,0.0,0.0,0.0,0.0,0.0,0.0,0.0,0.0,0.0,0.0,0.0,0.0,0.0,0.0,0.0,0.0,0.0,0.0,0.0,0.0,0.0,0.0,0.0,0.0,0.0,0.0,0.0,0.0,0.0,0.0,0.0,0.0,0.0,0.0,0.0,0.0,0.0,0.0,0.0,0.0,0.0,0.0,0.0,0.0,0.0,0.0,0.0,0.0,0.0,0.0,0.0,0.0,0.0,0.0,0.0,0.0,0.0,0.0,0.0,0.0,0.0,0.0,0.0,0.0,0.0,0.0,0.0,0.0,0.0,0.0,0.0,0.0,0.0,0.0,0.0,0.0,0.0,0.0,0.0,0.0,0.0,0.0,0.0,0.0,0.0,0.0,0.0,0.0,0.0,0.0,0.0,0.0,0.0,0.0,0.0,0.0,0.0,0.0,0.0,0.7713,0.0,0.0,0.0,0.7454,0.0,0.0,0.0,0.0,0.0,0.0,0.0,0.0,0.0,0.0,0.0,0.0,0.0,0.0,0.0,0.0,0.0,0.0,0.0,0.0,0.0,0.0,0.0,0.0,0.0,0.0,0.0,0.0,0.0,0.0,0.0,0.0,0.0,0.0,0.0,0.0,0.0,0.0,0.0,0.0,0.0,0.0,0.0,0.0,0.0,0.0,0.0,0.0,0.0,0.0,0.0,0.0,0.0,0.0,0.0,0.0,0.0,0.0,0.0,0.0,0.0,0.0,0.0,0.0,0.0,0.0,0.0,0.0,0.0,0.0,0.0,0.0,0.0,0.0,0.0,0.0,0.0,0.0,0.0,0.0,0.0,0.0,0.0,0.0,0.0,0.0,0.0,0.0,0.0,0.0,0.0,0.0,0.0,0.0,0.0,0.0,0.0,0.0,0.0,0.0,0.0,0.0,0.0,0.0,0.0,0.0,0.0,0.0,0.0,0.0,0.7602,0.6687,0.8275,0.8551,0.7304,0.0,0.0,0.0,0.0,0.0,0.0,0.0,0.0,0.0,0.0,0.0,0.0,0.0,0.0,0.0,0.0,0.0,0.0,0.0,0.0,0.0,0.0,0.0,0.0,0.0,0.0,0.0,0.0,0.0,0.0,0.0,0.0,0.0,0.0,0.0,0.0,0.0,0.0,0.0,0.0,0.0,0.0,0.0,0.0,0.0,0.0,0.0,0.0,0.0,0.0,0.0,0.0,0.0,0.0,0.0,0.0,0.0,0.0,0.0,0.0,0.0,0.0,0.0,0.0,0.0,0.0,0.0,0.0,0.0,0.0,0.0,0.0,0.0,0.0,0.0,0.0,0.0,0.0,0.0,0.0,0.0,0.0,0.0,0.0,0.0,0.0,0.0,0.0,0.0,0.0,0.0,0.0,0.0,0.0,0.0,0.0,0.0,0.0,0.0,0.0,0.0,0.0,0.0,0.0,0.0,0.0,0.0,0.0,0.0,0.0,0.0,0.0,0.8581,0.9014,0.7933,0.0,0.0,0.0,0.0,0.0,0.0,0.0,0.0,0.0,0.0,0.0,0.0,0.0,0.0,0.0,0.0,0.0,0.0,0.0,0.0,0.0,0.0,0.0,0.0,0.0,0.0,0.0,0.0,0.0,0.0,0.0,0.0,0.0,0.0,0.0,0.0,0.0,0.0,0.0,0.0,0.0,0.0,0.0,0.0,0.0,0.0,0.0,0.0,0.0,0.0,0.0,0.0,0.0,0.0,0.0,0.0,0.0,0.0,0.0,0.0,0.0,0.0,0.0,0.0,0.0,0.0,0.0,0.0,0.0,0.0,0.0,0.0,0.0,0.0,0.0,0.0,0.0,0.0,0.0,0.0,0.0,0.0,0.0,0.0,0.0,0.0,0.0,0.0,0.0,0.0,0.0,0.0,0.0,0.0,0.0,0.0,0.0,0.0,0.0,0.0,0.0,0.0,0.0,0.0,0.0,0.0,0.0,0.0,0.0,0.0,0.67,0.7409,0.8087,0.0,0.9675,0.0,0.0,0.0,0.0,0.0,0.0,0.0,0.0,0.0,0.0,0.0,0.0,0.0,0.0,0.0,0.0,0.0,0.0,0.0,0.0,0.0,0.0,0.0,0.0,0.0,0.0,0.0,0.0,0.0,0.0,0.0,0.0,0.0,0.0,0.0,0.0,0.0,0.0,0.0,0.0,0.0,0.0,0.0,0.0,0.0,0.0,0.0,0.0,0.0,0.0,0.0,0.0,0.0,0.0,0.0,0.0,0.0,0.0,0.0,0.0,0.0,0.0,0.0,0.0,0.0,0.0,0.0,0.0,0.0,0.0,0.0,0.0,0.0,0.0,0.0,0.0,0.0,0.0,0.0,0.0,0.0,0.0,0.0,0.0,0.0,0.0,0.0,0.0,0.0,0.0,0.0,0.0,0.0,0.0,0.0,0.0,0.0,0.0,0.0,0.0,0.0,0.0,0.0,0.0,0.0,0.0,0.0,0.0,0.0,0.0,0.7661,0.7951,0.8304,0.9077,0.0,0.0,0.0,0.0,0.0,0.0,0.0,0.0,0.0,0.0,0.0,0.0,0.0,0.0,0.0,0.0,0.0,0.0,0.0,0.0,0.0,0.0,0.0,0.0,0.0,0.0,0.0,0.0,0.0,0.0,0.0,0.0,0.0,0.0,0.0,0.0,0.0,0.0,0.0,0.0,0.0,0.0,0.0,0.0,0.0,0.0,0.0,0.0,0.0,0.0,0.0,0.0,0.0,0.0,0.0,0.0,0.0,0.0,0.0,0.0,0.0,0.0,0.0,0.0,0.0,0.0,0.0,0.0,0.0,0.0,0.0,0.0,0.0,0.0,0.0,0.0,0.0,0.0,0.0,0.0,0.0,0.0,0.0,0.0,0.0,0.0,0.0,0.0,0.0,0.0,0.0,0.0,0.0,0.0,0.0,0.0,0.0,0.0,0.0,0.0,0.0,0.0,0.0,0.0,0.0,0.0,0.0,0.0,0.0,0.0,0.784,0.8561,0.8929,0.9265,0.9677,1.0193,0.0,0.0,0.0,0.0,0.0,0.0,0.0,0.0,0.0,0.0,0.0,0.0,0.0,0.0,0.0,0.0,0.0,0.0,0.0,0.0,0.0,0.0,0.0,0.0,0.0,0.0,0.0,0.0,0.0,0.0,0.0,0.0,0.0,0.0,0.0,0.0,0.0,0.0,0.0,0.0,0.0,0.0,0.0,0.0,0.0,0.0,0.0,0.0,0.0,0.0,0.0,0.0,0.0,0.0,0.0,0.0,0.0,0.0,0.0,0.0,0.0,0.0,0.0,0.0,0.0,0.0,0.0,0.0,0.0,0.0,0.0,0.0,0.0,0.0,0.0,0.0,0.0,0.0,0.0,0.0,0.0,0.0,0.0,0.0,0.0,0.0,0.0,0.0,0.0,0.0,0.0,0.0,0.0,0.0,0.0,0.0,0.0,0.0,0.0,0.0,0.0,0.0,0.0,0.0,0.0,0.0,0.0,0.0,0.8168,0.8343,0.911,1.0541,1.1148,1.0688,0.0,0.0,0.0,0.0,0.0,0.0,0.0,0.0,0.0,0.0,0.0,0.0,0.0,0.0,0.0,0.0,0.0,0.0,0.0,0.0,0.0,0.0,0.0,0.0,0.0,0.0,0.0,0.0,0.0,0.0,0.0,0.0,0.0,0.0,0.0,0.0,0.0,0.0,0.0,0.0,0.0,0.0,0.0,0.0,0.0,0.0,0.0,0.0,0.0,0.0,0.0,0.0,0.0,0.0,0.0,0.0,0.0,0.0,0.0,0.0,0.0,0.0,0.0,0.0,0.0,0.0,0.0,0.0,0.0,0.0,0.0,0.0,0.0,0.0,0.0,0.0,0.0,0.0,0.0,0.0,0.0,0.0,0.0,0.0,0.0,0.0,0.0,0.0,0.0,0.0,0.0,0.0,0.0,0.0,0.0,0.0,0.0,0.0,0.0,0.0,0.0,0.0,0.0,0.0,0.0,0.0,0.0,0.0,0.0,0.6522,0.7372,0.9383,1.239,1.043,0.978,0.0,0.0,0.0,0.0,0.0,0.0,0.0,0.0,0.0,0.0,0.0,0.0,0.0,0.0,0.0,0.0,0.0,0.0,0.0,0.0,0.0,0.0,0.0,0.0,0.0,0.0,0.0,0.0,0.0,0.0,0.0,0.0,0.0,0.0,0.0,0.0,0.0,0.0,0.0,0.0,0.0,0.0,0.0,0.0,0.0,0.0,0.0,0.0,0.0,0.0,0.0,0.0,0.0,0.0,0.0,0.0,0.0,0.0,0.0,0.0,0.0,0.0,0.0,0.0,0.0,0.0,0.0,0.0,0.0,0.0,0.0,0.0,0.0,0.0,0.0,0.0,0.0,0.0,0.0,0.0,0.0,0.0,0.0,0.0,0.0,0.0,0.0,0.0,0.0,0.0,0.0,0.0,0.0,0.0,0.0,0.0,0.0,0.0,0.0,0.0,0.0,0.0,0.0,0.0,0.0,0.0,0.0,0.0,0.0,0.6889,0.8115,1.0026,1.2484,1.0242,0.9436,0.0,0.0,0.0,0.0,0.0,0.0,0.0,0.0,0.0,0.0,0.0,0.0,0.0,0.0,0.0,0.0,0.0,0.0,0.0,0.0,0.0,0.0,0.0,0.0,0.0,0.0,0.0,0.0,0.0,0.0,0.0,0.0,0.0,0.0,0.0,0.0,0.0,0.0,0.0,0.0,0.0,0.0,0.0,0.0,0.0,0.0,0.0,0.0,0.0,0.0,0.0,0.0,0.0,0.0,0.0,0.0,0.0,0.0,0.0,0.0,0.0,0.0,0.0,0.0,0.0,0.0,0.0,0.0,0.0,0.0,0.0,0.0,0.0,0.0,0.0,0.0,0.0,0.0,0.0,0.0,0.0,0.0,0.0,0.0,0.0,0.0,0.0,0.0,0.0,0.0,0.0,0.0,0.0,0.0,0.0,0.0,0.0,0.0,0.0,0.0,0.0,0.0,0.0,0.0,0.0,0.0,0.0,0.0,0.6656,0.9667,1.0664,1.1032,1.0773,1.0843,0.9783,0.0,0.0,0.0,0.0,0.0,0.0,0.0,0.0,0.0,0.0,0.0,0.0,0.0,0.0,0.0,0.0,0.0,0.0,0.0,0.0,0.0,0.0,0.0,0.0,0.0,0.0,0.0,0.0,0.0,0.0,0.0,0.0,0.0,0.0,0.0,0.0,0.0,0.0,0.0,0.0,0.0,0.0,0.0,0.0,0.0,0.0,0.0,0.0,0.0,0.0,0.0,0.0,0.0,0.0,0.0,0.0,0.0,0.0,0.0,0.0,0.0,0.0,0.0,0.0,0.0,0.0,0.0,0.0,0.0,0.0,0.0,0.0,0.0,0.0,0.0,0.0,0.0,0.0,0.0,0.0,0.0,0.0,0.0,0.0,0.0,0.0,0.0,0.0,0.0,0.0,0.0,0.0,0.0,0.0,0.0,0.0,0.0,0.0,0.0,0.0,0.0,0.0,0.0,0.0,0.0,0.0,0.0,0.0,0.0,0.8051,0.9555,1.0939,1.209,1.0521,0.9951,0.0,0.0,0.0,0.0,0.0,0.0,0.0,0.0,0.0,0.0,0.0,0.0,0.0,0.0,0.0,0.0,0.0,0.0,0.0,0.0,0.0,0.0,0.0,0.0,0.0,0.0,0.0,0.0,0.0,0.0,0.0,0.0,0.0,0.0,0.0,0.0,0.0,0.0,0.0,0.0,0.0,0.0,0.0,0.0,0.0,0.0,0.0,0.0,0.0,0.0,0.0,0.0,0.0,0.0,0.0,0.0,0.0,0.0,0.0,0.0,0.0,0.0,0.0,0.0,0.0,0.0,0.0,0.0,0.0,0.0,0.0,0.0,0.0,0.0,0.0,0.0,0.0,0.0,0.0,0.0,0.0,0.0,0.0,0.0,0.0,0.0,0.0,0.0,0.0,0.0,0.0,0.0,0.0,0.0,0.0,0.0,0.0,0.0,0.0,0.0,0.0,0.0,0.0,0.0,0.0,0.0,0.0,0.0,0.0,0.9048,1.0503,1.184,1.2958,1.1167,1.0628,1.1536,0.0,0.0,0.0,0.0,0.0,0.0,0.0,0.0,0.0,0.0,0.0,0.0,0.0,0.0,0.0,0.0,0.0,0.0,0.0,0.0,0.0,0.0,0.0,0.0,0.0,0.0,0.0,0.0,0.0,0.0,0.0,0.0,0.0,0.0,0.0,0.0,0.0,0.0,0.0,0.0,0.0,0.0,0.0,0.0,0.0,0.0,0.0,0.0,0.0,0.0,0.0,0.0,0.0,0.0,0.0,0.0,0.0,0.0,0.0,0.0,0.0,0.0,0.0,0.0,0.0,0.0,0.0,0.0,0.0,0.0,0.0,0.0,0.0,0.0,0.0,0.0,0.0,0.0,0.0,0.0,0.0,0.0,0.0,0.0,0.0,0.0,0.0,0.0,0.0,0.0,0.0,0.0,0.0,0.0,0.0,0.0,0.0,0.0,0.0,0.0,0.0,0.0,0.0,0.0,0.0,0.0,0.0,0.0,1.1979,1.3192,1.3661,1.3325,1.2607,1.1824,0.0,0.0,0.0,0.0,0.0,0.0,0.0,0.0,0.0,0.0,0.0,0.0,0.0,0.0,0.0,0.0,0.0,0.0,0.0,0.0,0.0,0.0,0.0,0.0,0.0,0.0,0.0,0.0,0.0,0.0,0.0,0.0,0.0,0.0,0.0,0.0,0.0,0.0,0.0,0.0,0.0,0.0,0.0,0.0,0.0,0.0,0.0,0.0,0.0,0.0,0.0,0.0,0.0,0.0,0.0,0.0,0.0,0.0,0.0,0.0,0.0,0.0,0.0,0.0,0.0,0.0,0.0,0.0,0.0,0.0,0.0,0.0,0.0,0.0,0.0,0.0,0.0,0.0,0.0,0.0,0.0,0.0,0.0,0.0,0.0,0.0,0.0,0.0,0.0,0.0,0.0,0.0,0.0,0.0,0.0,0.0,0.0,0.0,0.0,0.0,0.0,0.0,0.0,0.0,0.0,0.0,0.0,0.0,0.0,1.3057,1.4649,1.5513,1.5553,1.3837,1.2947,0.0,0.0,0.0,0.0,0.0,0.0,0.0,0.0,0.0,0.0,0.0,0.0,0.0,0.0,0.0,0.0,0.0,0.0,0.0,0.0,0.0,0.0,0.0,0.0,0.0,0.0,0.0,0.0,0.0,0.0,0.0,0.0,0.0,0.0,0.0,0.0,0.0,0.0,0.0,0.0,0.0,0.0,0.0,0.0,0.0,0.0,0.0,0.0,0.0,0.0,0.0,0.0,0.0,0.0,0.0,0.0,0.0,0.0,0.0,0.0,0.0,0.0,0.0,0.0,0.0,0.0,0.0,0.0,0.0,0.0,0.0,0.0,0.0,0.0,0.0,0.0,0.0,0.0,0.0,0.0,0.0,0.0,0.0,0.0,0.0,0.0,0.0,0.0,0.0,0.0,0.0,0.0,0.0,0.0,0.0,0.0,0.0,0.0,0.0,0.0,0.0,0.0,0.0,0.0,0.0,0.0,0.0,0.0,1.3282,1.4931,1.6043,1.6931,1.7615,1.5557,1.4436,0.0,0.0,0.0,0.0,0.0,0.0,0.0,0.0,0.0,0.0,0.0,0.0,0.0,0.0,0.0,0.0,0.0,0.0,0.0,0.0,0.0,0.0,0.0,0.0,0.0,0.0,0.0,0.0,0.0,0.0,0.0,0.0,0.0,0.0,0.0,0.0,0.0,0.0,0.0,0.0,0.0,0.0,0.0,0.0,0.0,0.0,0.0,0.0,0.0,0.0,0.0,0.0,0.0,0.0,0.0,0.0,0.0,0.0,0.0,0.0,0.0,0.0,0.0,0.0,0.0,0.0,0.0,0.0,0.0,0.0,0.0,0.0,0.0,0.0,0.0,0.0,0.0,0.0,0.0,0.0,0.0,0.0,0.0,0.0,0.0,0.0,0.0,0.0,0.0,0.0,0.0,0.0,0.0,0.0,0.0,0.0,0.0,0.0,0.0,0.0,0.0,0.0,0.0,0.0,0.0,0.0,0.0,0.0,1.5361,1.697,1.7279,1.7984,1.9099,1.7337,1.5951,0.0,0.0,0.0,0.0,0.0,0.0,0.0,0.0,0.0,0.0,0.0,0.0,0.0,0.0,0.0,0.0,0.0,0.0,0.0,0.0,0.0,0.0,0.0,0.0,0.0,0.0,0.0,0.0,0.0,0.0,0.0,0.0,0.0,0.0,0.0,0.0,0.0,0.0,0.0,0.0,0.0,0.0,0.0,0.0,0.0,0.0,0.0,0.0,0.0,0.0,0.0,0.0,0.0,0.0,0.0,0.0,0.0,0.0,0.0,0.0,0.0,0.0,0.0,0.0,0.0,0.0,0.0,0.0,0.0,0.0,0.0,0.0,0.0,0.0,0.0,0.0,0.0,0.0,0.0,0.0,0.0,0.0,0.0,0.0,0.0,0.0,0.0,0.0,0.0,0.0,0.0,0.0,0.0,0.0,0.0,0.0,0.0,0.0,0.0,0.0,0.0,0.0,0.0,0.0,0.0,0.0,0.0,0.0,1.53,1.7026,1.7791,1.8553,1.9319,1.7372,1.6432,0.0,0.0,0.0,0.0,0.0,0.0,0.0,0.0,0.0,0.0,0.0,0.0,0.0,0.0,0.0,0.0,0.0,0.0,0.0,0.0,0.0,0.0,0.0,0.0,0.0,0.0,0.0,0.0,0.0,0.0,0.0,0.0,0.0,0.0,0.0,0.0,0.0,0.0,0.0,0.0,0.0,0.0,0.0,0.0,0.0,0.0,0.0,0.0,1.0888,0.0,0.0,0.0,0.0,0.0,0.0,0.0,0.0,0.0,0.0,0.0,0.0,0.0,0.0,0.0,0.0,0.0,0.0,0.0,0.0,0.0,0.0,0.0,0.0,0.0,0.0,0.0,0.0,0.0,0.0,0.0,0.0,0.0,0.0,0.0,0.0,0.0,0.0,0.0,0.0,0.0,0.0,0.0,0.0,0.0,0.0,0.0,0.0,0.0,0.0,0.0,0.0,0.0,0.0,0.0,0.0,0.0,0.0,0.0,1.6114,1.8059,1.8375,1.8918,1.9719,1.8635,1.7737,0.0,0.0,0.0,0.0,0.0,0.0,0.0,0.0,0.0,0.0,0.0,0.0,0.0,0.0,0.0,0.0,0.0,0.0,0.0,0.0,0.0,0.0,0.0,0.0,0.0,0.0,0.0,0.0,0.0,0.0,0.0,0.0,0.0,0.0,0.0,0.0,0.0,0.0,0.0,0.0,0.0,0.0,0.0,0.0,0.0,0.0,0.0,0.0,0.0,0.0,0.0,0.0,0.0,0.0,0.0,0.0,0.0,0.0,0.0,0.0,0.0,0.0,0.0,0.0,0.0,0.0,0.0,0.0,0.0,0.0,0.0,0.0,0.0,0.0,0.0,0.0,0.0,0.0,0.0,0.0,0.0,0.0,0.0,0.0,0.0,0.0,0.0,0.0,0.0,0.0,0.0,0.0,0.0,0.0,0.0,0.0,0.0,0.0,0.0,0.0,0.0,0.0,0.0,0.0,0.0,0.0,0.0,1.4958,1.6986,1.9135,1.9014,1.9353,2.0359,2.0345,1.9386,1.7438,0.0,0.0,0.0,0.0,0.0,0.0,0.0,0.0,0.0,0.0,0.0,0.0,0.0,0.0,0.0,0.0,0.0,0.0,0.0,0.0,0.0,0.0,0.0,0.0,0.0,0.0,0.0,0.0,0.0,0.0,0.0,0.0,0.0,0.0,0.0,0.0,0.0,0.0,0.8352,1.1715,0.0,0.0,0.0,0.0,0.0,0.0,0.0,0.0,1.4085,0.0,0.0,0.0,0.0,0.0,0.0,0.0,0.0,0.0,0.0,0.0,0.0,0.0,0.0,0.0,0.0,0.0,0.0,0.0,0.0,0.0,0.0,0.0,0.0,0.0,0.0,0.0,0.0,0.0,0.0,0.0,0.0,0.0,0.0,0.0,0.0,0.0,0.0,0.0,0.0,0.0,0.0,0.0,0.0,0.0,0.0,0.0,0.0,0.0,0.0,0.0,0.0,0.0,0.0,0.0,0.0,1.4351,1.5005,1.6558,1.9076,1.9706,2.0257,2.0822,2.1699,2.0883,1.8256,0.0,0.0,0.0,0.0,0.0,0.0,0.0,0.0,0.0,0.0,0.0,0.0,0.0,0.0,0.0,0.0,0.0,0.0,0.0,0.0,0.0,0.0,0.0,0.0,0.0,0.0,0.0,0.0,0.0,0.0,0.0,0.0,0.0,0.0,0.0,0.0,0.0,0.0,0.0,1.4339,1.5595,0.0,0.0,0.0,0.0,0.0,0.0,0.0,0.0,1.3249,0.0,0.0,0.0,0.0,0.0,0.0,0.0,0.0,0.0,0.0,0.0,0.0,0.0,0.0,0.0,0.0,0.0,0.0,0.0,0.0,0.0,0.0,0.0,0.0,0.0,0.0,0.0,0.0,0.0,0.0,0.0,0.0,0.0,0.0,0.0,0.0,0.0,0.0,0.0,0.0,0.0,0.0,0.0,0.0,0.0,0.0,0.0,0.0,0.0,0.0,0.0,0.0,0.0,0.0,0.0,1.4442,1.6355,1.8327,2.047,2.0731,2.1143,2.1868,2.2346,2.1234,0.0,0.0,0.0,0.0,0.0,0.0,0.0,0.0,0.0,0.0,0.0,0.0,0.0,0.0,0.0,0.0,0.0,0.0,0.0,0.0,0.0,0.0,0.0,0.0,0.0,0.0,0.0,0.0,0.0,0.0,0.0,0.0,0.0,0.0,0.0,0.0,0.0,0.0,0.0,0.0,1.5134,1.6328,1.7795,0.0,0.0,0.0,0.0,0.0,0.0,1.5472,1.4533,0.0,0.0,0.0,0.0,0.0,0.0,0.0,0.0,0.0,0.0,0.0,0.0,0.0,0.0,0.0,0.0,0.0,0.0,0.0,0.0,0.0,0.0,0.0,0.0,0.0,0.0,0.0,0.0,0.0,0.0,0.0,0.0,0.0,0.0,0.0,0.0,0.0,0.0,0.0,0.0,0.0,0.0,0.0,0.0,0.0,0.0,0.0,0.0,0.0,0.0,0.0,0.0,0.0,0.0,0.0,1.4516,1.7447,1.9897,2.1801,2.1823,2.2173,2.2957,2.3057,2.1579,0.0,0.0,0.0,0.0,0.0,0.0,0.0,0.0,0.0,0.0,0.0,0.0,0.0,0.0,0.0,0.0,0.0,0.0,0.0,0.0,0.0,0.0,0.0,0.0,0.0,0.0,0.0,0.0,0.0,0.0,0.0,0.0,0.0,0.0,0.0,0.0,0.0,0.0,0.0,0.0,0.0,1.716,1.8731,1.7024,0.0,0.0,0.0,0.0,1.895,1.8208,0.0,0.0,0.0,0.0,0.0,0.0,0.0,0.0,0.0,0.0,0.0,0.0,0.0,0.0,0.0,0.0,0.0,0.0,0.0,0.0,0.0,0.0,0.0,0.0,0.0,0.0,0.0,0.0,0.0,0.0,0.0,0.0,0.0,0.0,0.0,0.0,0.0,0.0,0.0,0.0,0.0,0.0,0.0,0.0,0.0,0.0,0.0,0.0,0.0,0.0,0.0,0.0,0.0,0.0,0.0,0.0,1.4873,1.7041,1.9372,2.1803,2.2884,2.3474,2.3595,2.4334,2.2656,0.0,0.0,0.0,0.0,0.0,0.0,0.0,0.0,0.0,0.0,0.0,0.0,0.0,0.0,0.0,0.0,0.0,0.0,0.0,0.0,0.0,0.0,0.0,0.0,0.0,0.0,0.0,0.0,0.0,0.0,0.0,0.0,0.0,0.0,0.0,0.0,0.0,0.0,0.0,0.0,0.0,1.84,1.9146,1.7794,1.7328,0.0,0.0,1.9061,2.1036,2.128,0.0,0.0,0.0,0.0,0.0,0.0,0.0,0.0,0.0,0.0,0.0,0.0,0.0,0.0,0.0,0.0,0.0,0.0,0.0,0.0,0.0,0.0,0.0,0.0,0.0,0.0,0.0,0.0,0.0,0.0,0.0,0.0,0.0,0.0,0.0,0.0,0.0,0.0,0.0,0.0,0.0,0.0,0.0,0.0,0.0,0.0,0.0,0.0,0.0,0.0,0.0,0.0,0.0,0.0,0.0,1.3204,1.5581,1.8565,2.1205,2.3379,2.3556,2.3945,2.4706,2.494,2.2913,0.0,0.0,0.0,0.0,0.0,0.0,0.0,0.0,0.0,0.0,0.0,0.0,0.0,0.0,0.0,0.0,0.0,0.0,0.0,0.0,0.0,0.0,0.0,0.0,0.0,0.0,0.0,0.0,0.0,0.0,0.0,0.0,0.0,0.0,0.0,0.0,0.0,0.0,0.0,0.0,0.0,0.0,2.0556,1.9337,0.0,0.0,0.0,2.109,2.3109,0.0,0.0,0.0,0.0,0.0,0.0,0.0,0.0,0.0,0.0,0.0,0.0,0.0,0.0,0.0,0.0,0.0,0.0,0.0,0.0,0.0,0.0,0.0,0.0,0.0,0.0,0.0,0.0,0.0,0.0,0.0,0.0,0.0,0.0,0.0,0.0,0.0,0.0,0.0,0.0,0.0,0.0,0.0,0.0,0.0,0.0,0.0,0.0,0.0,0.0,0.0,0.0,0.0,0.0,0.0,0.0,0.0,1.6597,2.0347,2.3149,2.4862,2.4465,2.4698,2.5728,2.5651,0.0,0.0,0.0,0.0,0.0,0.0,0.0,0.0,0.0,0.0,0.0,0.0,0.0,0.0,0.0,0.0,0.0,0.0,0.0,0.0,0.0,0.0,0.0,0.0,0.0,0.0,0.0,0.7267,0.0,0.0,0.0,0.0,0.0,0.0,0.0,0.0,0.0,0.0,0.0,0.0,0.0,0.0,1.9764,2.1888,2.1181,2.1646,0.0,0.0,2.3382,2.5442,2.5823,2.5051,0.0,0.0,0.0,0.0,0.0,0.0,0.0,0.0,0.0,0.0,0.0,0.0,0.0,0.0,0.0,0.0,0.0,0.0,0.0,0.0,0.0,0.0,0.0,0.0,0.0,0.0,0.0,0.0,0.0,0.0,0.0,0.0,0.0,0.0,0.0,0.0,0.0,0.0,0.0,0.0,0.0,0.0,0.0,0.0,0.0,0.0,0.0,0.0,0.0,0.0,0.0,0.0,0.0,0.0,1.5684,1.8087,2.1873,2.4377,2.5494,2.6003,2.6291,2.6518,2.6838,2.4541,0.0,0.0,0.0,0.0,0.0,0.0,0.0,0.0,0.0,0.0,0.0,0.0,0.0,0.0,0.0,0.0,0.0,0.0,0.0,0.0,0.0,0.0,0.0,0.0,0.0,0.0,0.0,0.0,0.0,0.0,0.0,0.0,0.0,0.0,0.0,0.0,0.0,0.0,0.0,0.0,0.0,2.0311,2.26,2.3236,2.4638,0.0,0.0,2.6122,2.833,2.9292,2.8016,2.2812,0.0,0.0,0.0,0.0,0.0,0.0,0.0,0.0,0.0,0.0,0.0,0.0,0.0,0.0,0.0,0.0,0.0,0.0,0.0,0.0,0.0,0.0,0.0,0.0,0.0,0.0,0.0,0.0,0.0,0.0,0.0,0.0,0.0,0.0,0.0,0.0,0.0,0.0,0.0,0.0,0.0,0.0,0.0,0.0,0.0,0.0,0.0,0.0,0.0,0.0,0.0,0.0,0.0,1.5734,1.8201,2.1739,2.4222,2.5529,2.5782,2.6087,2.6586,2.6973,2.5467,0.0,0.0,0.0,0.0,0.0,0.0,0.0,0.0,0.0,0.0,0.0,0.0,0.0,0.0,0.0,0.0,0.0,0.0,0.0,0.0,0.0,0.0,0.0,0.0,0.0,0.0,0.0,0.0,1.2753,1.3145,1.1653,0.0,0.0,0.0,0.0,0.0,0.0,0.0,0.0,0.0,0.0,2.3572,2.5566,2.5439,0.0,0.0,2.7391,2.6887,2.8286,2.8349,2.7261,2.4455,2.2812,0.0,0.0,0.0,0.0,0.0,0.0,0.0,0.0,0.0,0.0,0.0,0.0,0.0,0.0,0.0,0.0,0.0,0.0,0.0,0.0,0.0,0.0,0.0,0.0,0.0,0.0,0.0,0.0,0.0,0.0,0.0,0.0,0.0,0.0,0.0,0.0,0.0,0.0,0.0,0.0,0.0,0.0,0.0,0.0,0.0,0.0,0.0,0.0,0.0,0.0,0.0,0.0,1.6391,1.8457,2.227,2.482,2.5983,2.6038,2.637,2.7026,2.7312,2.6221,0.0,0.0,0.0,0.0,0.0,0.0,0.0,0.0,0.0,0.0,0.0,0.0,0.0,0.0,0.0,0.0,0.0,0.0,0.0,0.0,0.0,0.0,0.0,0.0,0.0,0.0,0.0,0.0,1.3625,1.3623,1.2081,0.0,0.0,0.0,0.0,0.0,0.0,0.0,0.0,0.0,0.0,2.5808,2.7351,2.7111,2.7336,2.8797,2.7866,2.7306,2.8218,2.8021,2.7221,2.5655,0.0,0.0,0.0,0.0,0.0,0.0,0.0,0.0,0.0,0.0,0.0,0.0,0.0,0.0,0.0,0.0,0.0,0.0,0.0,0.0,0.0,0.0,0.0,0.0,0.0,0.0,0.0,0.5132,0.0,0.0,0.5122,0.0,0.0,0.0,0.0,0.0,0.0,0.0,0.0,0.0,0.0,0.0,0.0,0.0,0.0,0.0,0.0,0.0,0.0,0.0,0.0,0.0,0.0,1.7894,1.9142,2.3882,2.6585,2.6977,2.7171,2.7506,2.8036,2.8085,2.6827,2.411,0.0,0.0,0.0,0.0,0.0,0.0,0.0,0.0,0.0,0.0,0.0,0.0,0.0,0.0,0.0,0.0,0.0,0.0,0.0,0.0,0.0,0.0,0.0,0.0,0.0,0.0,0.9494,1.0573,1.1454,0.0,0.0,0.0,0.0,0.0,0.0,0.0,0.0,0.0,0.0,2.4033,2.64,2.7504,2.8151,2.8783,2.9494,2.8273,2.7599,2.8609,2.9131,2.8637,0.0,0.0,0.0,0.0,0.0,0.0,0.0,0.0,0.0,0.0,0.0,0.0,0.0,0.0,0.0,0.0,0.0,0.0,0.0,0.0,0.0,0.0,0.0,0.0,0.0,0.0,0.0,0.9555,0.8387,0.0,0.0,0.0,0.0,0.0,0.0,0.0,0.0,0.0,0.0,0.0,1.9015,2.0831,0.0,0.0,0.0,0.0,0.0,0.0,0.0,0.0,0.0,0.0,0.0,0.0,1.7946,2.0731,2.4337,2.6842,2.807,2.8032,2.8183,2.8612,2.8354,2.6681,2.342,0.0,0.0,0.0,0.0,0.0,0.0,0.0,0.0,0.0,0.0,0.0,0.0,0.0,0.0,0.0,0.0,0.0,0.0,0.0,0.0,0.0,0.0,0.0,0.0,0.0,1.1556,0.0,0.0,0.0,0.0,0.0,0.0,0.0,0.0,0.0,0.0,0.0,2.2494,2.4817,2.7349,2.9287,3.0064,3.0127,3.0306,0.0,0.0,0.0,0.0,0.0,0.0,0.0,0.0,0.0,0.0,0.0,0.0,0.0,0.0,2.6272,1.9418,1.915,2.0518,2.227,0.0,0.0,0.0,0.0,0.0,0.0,0.0,0.0,0.0,0.0,0.0,0.0,0.0,0.0,1.2775,1.1484,1.1437,0.0,0.0,0.0,0.0,0.0,0.0,0.0,0.0,1.916,2.1134,2.2299,2.3931,2.3855,0.0,2.2107,2.0178,0.0,0.0,0.0,0.0,0.0,0.0,0.0,0.0,1.8983,2.2084,2.5324,2.7612,2.8813,2.8847,2.8913,2.9074,2.8593,2.7164,2.4782,2.4395,2.2844,0.0,0.0,0.0,0.0,0.0,0.0,0.0,0.0,0.0,0.0,0.0,0.0,0.0,0.0,0.0,0.0,0.0,0.0,0.0,0.0,0.0,0.0,0.0,1.3536,0.0,0.0,0.0,0.0,0.0,0.0,0.0,0.0,0.0,1.8567,2.2478,2.6113,2.8288,2.9932,3.0965,3.1137,0.0,0.0,0.0,0.0,0.0,0.0,0.0,2.9805,3.052,2.9405,2.8587,2.9122,3.1162,3.2406,3.1393,0.0,0.0,2.4945,2.4535,2.6667,3.0918,2.9771,2.7977,2.7752,2.915,3.0553,0.0,0.0,0.0,0.0,0.0,0.0,0.0,0.0,1.5881,1.534,0.0,1.4361,0.0,0.0,0.0,0.0,0.0,1.5507,0.0,0.0,2.2903,2.4554,2.5012,2.5608,2.5878,2.5868,2.598,2.5322,2.3824,1.9759,0.0,0.0,0.0,0.0,0.0,0.0,2.1006,2.3366,2.6897,2.8908,2.9283,2.9662,2.9734,2.9506,2.8779,2.8276,2.8032,2.6196,2.4778,2.3898,1.8972,0.0,0.0,0.0,0.0,0.0,0.0,0.0,0.0,0.0,0.0,0.0,0.0,0.0,0.0,0.0,0.0,0.0,0.0,0.0,0.0,1.4874,0.0,0.0,0.0,0.0,0.0,0.0,0.0,0.0,0.0,0.0,2.3495,2.5573,2.82,3.1035,0.0,0.0,0.0,0.0,3.0764,3.0765,3.0651,3.0899,3.1608,3.2879,3.3693,3.3495,0.0,0.0,3.4096,3.6408,3.7513,3.4864,3.6167,3.6302,3.1504,3.123,3.3457,3.8124,3.5957,3.3889,3.4826,3.5701,3.7054,1.9535,0.0,0.0,0.0,0.0,1.8622,1.9668,2.094,2.0954,2.0149,1.8809,1.8809,0.0,0.0,0.0,0.0,0.0,0.0,2.0176,2.3098,2.4731,2.662,2.8802,2.8984,2.9269,2.9587,2.9256,2.9088,2.9,2.7174,2.2683,1.5959,0.0,0.0,0.0,0.0,2.3412,2.5952,2.8153,2.9795,3.0891,3.0601,3.0333,3.0147,2.9933,2.9518,2.8919,2.8287,2.7148,2.5391,2.2961,0.0,0.0,0.0,0.0,0.0,0.0,0.0,0.0,0.0,0.0,0.0,0.0,0.0,0.0,0.0,0.0,0.0,0.0,0.0,1.3984,1.7148,1.8236,0.0,0.0,0.0,0.0,0.0,0.0,0.0,0.0,0.0,2.8327,2.9127,2.9983,0.0,0.0,3.202,3.1317,3.2065,3.3124,3.4257,3.4447,0.0,3.631,3.5601,3.5355,3.6726,3.7479,3.7664,3.7054,3.7824,3.8279,3.7372,3.7826,3.7778,3.6616,3.6161,3.7272,3.9783,3.9122,3.7826,3.7788,3.8441,3.9292,2.4114,2.2443,2.074,2.0425,2.1178,2.197,2.3,2.4114,2.434,2.3653,2.2336,2.2336,2.0722,1.7977,1.7977,0.0,0.0,0.0,2.3503,2.6156,2.6902,2.8218,2.9906,3.0271,3.0569,3.0881,3.0942,3.1069,3.1325,3.0788,2.7446,2.1592,0.0,0.0,2.0462,2.3156,2.5714,2.8004,2.9554,3.0755,3.1579,3.1146,3.0868,3.0754,3.0527,3.016,2.9706,2.9855,2.9309,2.7964,2.6307,2.4574,0.0,0.0,0.0,0.0,0.0,0.0,0.0,0.0,0.0,0.0,0.0,1.2476,0.9323,0.0,0.0,0.0,1.5912,1.7055,1.9358,2.1162,0.0,0.0,0.0,0.0,0.0,0.0,0.0,2.5189,2.8433,3.1017,3.2317,3.2585,3.2613,3.2482,3.2972,3.3268,3.311,0.0,3.4999,3.6118,3.6693,3.7441,3.8619,3.8071,3.7901,3.925,3.9171,3.9094,3.9391,3.9491,3.9525,3.9539,3.9475,3.9442,3.9492,3.9446,3.9817,4.1305,4.1151,4.0626,4.0404,4.0736,4.1143,2.8122,2.7752,2.3703,2.2608,2.3572,2.46,2.5343,2.5837,2.6373,2.603,2.5093,2.5067,2.3653,2.1295,2.1295,0.0,2.4397,2.5744,2.7199,2.879,2.9166,2.945,2.96,3.0337,3.0716,3.0853,3.1718,3.2044,3.1948,3.1876,3.0925,2.9138,2.7461,2.6212,2.5537,2.655,2.7994,2.97,3.1011,3.1653,3.1634,3.1478,3.1368,3.1368,3.0754,3.0473,3.0541,3.0885,3.1096,3.1067,2.9204,2.7466,2.6075,0.0,0.0,0.0,0.0,0.0,0.0,0.0,0.0,0.0,0.0,0.0,0.0,0.0,0.0,1.9371,2.2306,0.0,2.729,2.5992,0.0,0.0,0.0,2.3133,2.3452,2.6117,2.7944,2.8004,0.0,0.0,3.5429,3.5639,3.5669,3.5729,3.5169,3.4948,3.5454,3.5899,3.6457,3.6913,3.7807,3.8653,3.9313,3.996,4.0482,4.0781,4.0506,4.024,4.0769,4.0939,4.1001,4.0905,4.0899,4.08,4.1001,4.1081,4.1689,4.2472,4.2443,4.2301,4.247,4.2656,4.2733,2.8122,2.8021,2.6967,2.6691,2.6924,2.7175,2.7376,2.7519,2.7645,2.757,2.7301,2.7318,2.6967,2.6339,2.6339,2.6615,2.7143,2.766,2.8462,2.953,2.9811,3.06,3.19,3.2588,3.3406,3.4353,3.4691,3.5041,3.5333,3.4371,3.3635,3.309,3.2252,3.0614,2.8359,2.9403,3.0582,3.1685,3.2028,3.2173,3.2073,3.2028,3.1983,3.1983,3.1253,3.1122,3.1668,3.1231,3.138,3.2299,3.1857,3.1161,3.0092,2.4126,0.0,0.0,0.0,0.0,0.0,0.0,0.0,0.0,0.0,1.6771,1.2358,0.0,2.2139,0.0,2.7062,2.8966,2.7056,2.7782,0.0,0.0,2.6452,2.6884,2.9834,3.0418,3.0823,3.1481,3.4053,3.5985,3.643,3.6776,3.7165,3.7614,3.6735,3.5926,3.5623,3.659,3.7664,3.849,3.897,3.9548,4.04,4.0695,4.0817,4.0837,4.0591,4.0458,4.0612,4.0643,4.0643,4.0643,4.0626,4.0608,4.0643,4.0698,4.1624,4.3469,4.3621,4.3047,4.2692,4.2984,4.3391,2.8906,2.9,2.8888,2.885,2.8825,2.8555,2.8329,2.8122,2.8373,2.8329,2.8122,2.8122,2.8122,2.8122,2.8465,2.8578,2.8621,2.9262,2.9988,3.0756,3.1307,3.2208,3.3431,3.4403,3.5096,3.5535,3.6201,3.6357,3.6025,3.5052,3.4695,3.4882,3.379,3.2882,3.2132,3.2191,3.2138,3.1865,3.2382,3.2507,3.2218,3.2426,3.1977,3.0849,3.145,3.1448,3.0692,3.1043,3.1187,3.0966,3.1235,3.1011,3.0195,2.644,2.4148,0.0,0.0,0.0,0.0,0.0,0.0,0.0,0.0,0.0,0.0,0.0,2.4984,2.4299,2.9007,3.1071,2.8551,2.9864,3.0851,3.0791,3.0386,3.1105,3.3589,3.3768,3.3798,3.3962,3.5968,3.7494,3.7896,3.8135,3.8404,3.8811,3.833,3.7781,3.7545,3.8296,3.9146,3.9667,3.9985,4.0265,4.08,4.0746,4.0677,4.0677,4.0591,4.0505,4.0505,4.0505,4.0505,4.0505,4.0505,4.0505,4.0522,4.0885,4.1916,4.3768,4.4279,4.3885,4.3514,4.3739,4.4073,3.0093,3.0189,3.011,3.0083,2.9955,2.951,2.8938,2.8348,2.8806,2.8781,2.8423,2.8405,2.8473,2.8549,2.9138,2.9422,2.9555,3.0538,3.1361,3.2018,3.2982,3.3797,3.4499,3.5794,3.6194,3.5833,3.7075,3.7052,3.5921,3.5242,3.5214,3.5777,3.4068,3.4015,3.5564,3.4654,3.3311,3.1678,3.2367,3.248,3.2044,3.2496,3.1623,2.9473,3.162,3.183,2.9693,3.107,3.1082,2.9345,2.9779,2.9788,2.9116,2.8697,2.7679,0.0,2.4855,0.0,0.0,0.0,0.0,0.0,0.0,0.0,0.0,2.6171,2.6183,2.5412,2.988,3.2303,3.124,3.2317,3.3291,3.3859,3.4582,3.5198,3.5715,3.6317,3.6484,3.5908,3.7362,3.8661,3.9242,3.9421,3.9391,3.9415,3.9517,3.9539,3.9761,4.0052,4.0291,4.0314,4.0608,4.0667,4.0591,4.0522,4.0522,4.0505,4.0505,4.0505,4.0505,4.0505,4.0505,4.0505,4.0505,4.0505,4.0505,4.1173,4.2317,4.4177,4.4763,4.4815,4.4564,4.4511,4.474,3.1086,3.0818,3.1408,3.1447,3.1125,3.1405,3.0736,2.9497,2.9578,2.9829,3.0111,3.0111,3.0357,3.0753,3.0471,3.0572,3.0964,3.0939,3.1427,3.2344,3.3192,3.4135,3.5235,3.6489,3.7367,3.7843,3.8627,3.8907,3.8625,3.7531,3.7292,3.7776,3.6043,3.527,3.5562,0.0,0.0,0.0,3.2185,3.1255,3.1159,3.1245,3.1051,3.0595,3.2387,0.0,3.2822,3.3013,3.2679,3.1886,3.2422,0.0,0.0,0.0,0.0,0.0,0.0,0.0,0.0,0.0,0.0,0.0,2.7692,2.7482,2.6584,2.9355,3.0687,2.9624,3.2258,3.4248,3.4562,3.5523,3.6084,3.5974,3.6991,3.7579,3.7147,3.7436,3.7654,3.7631,3.8093,3.8661,3.9308,3.9421,3.9463,3.9625,3.9803,3.998,4.0139,4.0261,4.0314,4.0314,4.0487,4.0574,4.0522,4.0505,4.0505,4.0505,4.0505,4.0505,4.0505,4.0553,4.0505,4.0553,4.0505,4.0553,4.0522,4.0646,4.1708,4.4205,4.56,4.6022,4.4886,4.4713,4.4803,3.2821,0.0,3.2758,3.2567,0.0,3.2315,3.1959,3.1208,3.1037,3.0952,3.1009,3.1009,3.116,3.1406,3.1478,3.1618,3.1893,3.1931,3.264,3.3943,3.4558,3.5554,3.6969,3.7894,3.8368,3.8488,3.9086,3.9247,3.8907,3.805,3.7893,3.8422,3.6946,3.6292,3.6546,3.6878,3.6559,3.5592,3.4353,3.3585,3.3305,3.3243,3.2753,3.19,3.3574,0.0,0.0,0.0,0.0,0.0,0.0,0.0,0.0,0.0,0.0,3.043,2.8963,2.8321,2.8966,2.9295,3.0342,3.2332,3.2811,3.2437,3.1091,3.3155,3.4322,3.3993,3.516,3.6058,3.6417,3.7097,3.7411,3.7308,3.8013,3.8468,3.8426,3.8449,3.8658,3.9035,3.9159,3.9388,3.9867,3.9844,3.9821,3.9839,4.0046,4.0204,4.0261,4.0349,4.0383,4.0401,4.0453,4.0505,4.0505,4.0505,4.0505,4.0505,4.0505,4.0505,4.0505,4.0869,4.1154,4.1185,4.1519,4.1757,4.144,4.1378,4.2316,4.5089,4.6453,4.6849,4.6181,4.606,4.6102,3.4675,3.4304,3.4279,3.3802,3.3113,3.3172,3.3133,3.2954,0.0,0.0,0.0,3.166,3.171,3.1827,3.2259,3.2547,3.2651,3.2861,3.3839,3.5304,3.5924,3.6921,3.8267,3.9046,3.9137,3.8716,3.9156,3.9137,3.8649,3.8036,3.8066,3.8487,3.7475,3.7147,3.7729,3.7853,3.7632,3.7081,3.6523,3.602,3.5588,3.5477,3.4655,3.3053,3.4755,3.4831,3.314,3.4606,3.4442,3.2183,3.2138,3.2033,3.1599,3.1569,3.2347,3.4053,3.4697,3.5266,3.5789,3.5848,3.6058,3.6643,3.6793,3.6553,3.5862,3.6357,3.6866,3.7375,3.7387,3.7387,3.7387,3.795,3.8229,3.8179,3.8688,3.9244,3.9588,3.9525,3.9602,4.0074,4.0043,4.0139,4.0335,4.0231,4.0143,4.0086,4.0204,4.0314,4.0331,4.0436,4.0487,4.0487,4.0505,4.0505,4.0522,4.079,4.0759,4.082,4.0917,4.0965,4.1075,4.155,4.1996,4.2076,4.2731,4.286,4.2572,4.247,4.3556,4.6406,4.7141,4.7413,4.7894,4.7876,4.7717,3.5873,3.5522,3.6186,3.5754,3.4699,3.513,3.4874,3.4058,3.289,3.2472,3.2669,3.269,3.2951,3.336,3.3003,3.3096,3.3486,3.3106,3.3513,3.4618,3.5939,3.6829,3.7434,3.8778,3.9355,3.9283,3.9355,3.9355,3.9228,3.8653,3.8683,3.9053,3.8096,3.7766,3.8371,3.89,3.9103,3.8937,3.6222,3.4743,3.4682,3.4673,3.4526,3.4333,3.5636,3.5968,3.516,3.537,3.507,3.4158,3.4622,3.516,3.5625,3.5595,3.6014,3.6776,3.6956,3.7028,3.7135,3.7118,3.7148,3.7285,3.7793,3.7871,3.7225,3.7225,3.7315,3.7387,3.7447,3.7387,3.7451,3.8547,3.9171,3.9045,4.025,4.0956,4.0444,4.0563,4.0659,4.0461,4.0283,4.0196,4.0266,4.0174,4.0139,4.0209,4.0279,4.0331,4.0436,4.0487,4.0505,4.0505,4.0505,4.0505,4.068,4.144,4.1806,4.1661,4.2235,4.262,4.2659,4.2829,4.3038,4.302,4.3229,4.3256,4.3145,4.3269,4.4334,4.6241,4.7205,4.8109,4.9193,4.9416,4.9071,3.7719,3.7281,3.7596,3.7251,3.6385,3.6136,3.5501,3.4641,3.4453,3.3942,3.3357,3.3341,3.3469,3.3763,3.4187,3.4562,3.48,3.5117,3.5715,3.6629,3.7213,3.7786,3.8416,3.9071,3.9421,3.9421,3.9421,3.9421,3.9355,3.9119,3.9137,3.9337,3.8815,3.8705,3.8991,3.9265,3.9421,3.9391,3.7949,3.7159,3.7148,3.6793,3.6793,3.7135,3.7434,3.7584,3.7597,3.7597,3.7315,3.6643,3.6913,3.7045,3.6985,3.6985,3.7105,3.7404,3.7764,3.7943,3.7943,3.7943,3.7943,3.7943,3.823,3.8452,3.8464,3.8153,3.8075,3.8434,3.8464,3.86,3.881,3.9555,4.0064,4.0132,4.1035,4.144,4.1156,4.0953,4.0919,4.0885,4.0595,4.0405,4.0526,4.0487,4.0401,4.0436,4.0401,4.0436,4.0553,4.0917,4.0996,4.0601,4.0505,4.0741,4.1154,4.2076,4.2651,4.2572,4.2891,4.3304,4.3563,4.3766,4.4014,4.4306,4.4368,4.4418,4.4449,4.4791,4.5629,4.6732,4.7812,4.8868,4.982,5.0114,4.9823,3.9119,3.8716,3.8716,3.8333,3.7663,3.6805,3.5976,3.5365,3.5936,3.5555,3.4511,3.4408,3.4428,3.4532,3.5534,3.5976,3.6096,3.6777,3.7501,3.8098,3.8183,3.8519,3.9119,3.9301,3.9421,3.9421,3.9421,3.9421,3.9421,3.9421,3.9421,3.9421,3.9421,3.9421,3.9421,3.9421,3.9421,3.9421,3.9421,3.9421,3.9391,3.8901,3.8871,3.9302,3.8751,3.8649,3.9122,3.917,3.8931,3.8452,3.8542,3.8392,3.7866,3.7836,3.7836,3.7896,3.8332,3.8631,3.8649,3.872,3.8772,3.8772,3.8772,3.8965,3.9415,3.8966,3.8876,3.9409,3.9505,3.9631,3.9884,4.0266,4.0612,4.0936,4.1273,4.1489,4.1539,4.1223,4.1055,4.1273,4.095,4.0712,4.0814,4.0797,4.0629,4.0522,4.0505,4.0553,4.079,4.1422,4.1471,4.1233,4.079,4.0996,4.1916,4.3114,4.3644,4.3595,4.3671,4.3974,4.432,4.4561,4.476,4.5108,4.5277,4.5366,4.5601,4.5877,4.6607,4.7638,4.8365,4.9036,4.9999,5.0192,5.0206,3.9355,3.9319,3.9283,3.8881,3.8071,3.7204,3.6777,3.668,3.6816,3.6777,3.6534,3.6593,3.6554,3.6593,3.6719,3.6797,3.6797,3.6894,3.7049,3.7223,3.7853,3.824,3.8464,3.9083,3.9421,3.9421,3.9421,3.9421,3.9421,3.9421,3.9421,3.9421,3.9421,3.9421,3.9421,3.9421,3.9421,3.9421,3.9421,3.9421,3.9391,3.9331,3.9331,3.9391,3.8751,3.8439,3.8571,3.8482,3.8469,3.8469,3.899,3.9272,3.9212,3.9182,3.9182,3.9182,3.9242,3.9302,3.9338,3.9672,3.9788,3.9836,3.9788,3.9819,3.9892,3.9547,3.9463,3.9869,3.9958,3.9927,3.998,4.0296,4.0539,4.0646,4.097,4.1256,4.1522,4.1555,4.1539,4.1555,4.1204,4.1018,4.095,4.0794,4.0605,4.0649,4.079,4.1079,4.1655,4.2021,4.2424,4.2513,4.1695,4.1488,4.2811,4.4481,4.5007,4.4616,4.4921,4.5277,4.5453,4.5367,4.5221,4.5529,4.5379,4.5651,4.5941,4.6198,4.6724,4.7998,4.859,4.8824,4.9742,5.0054,5.0077,3.9421,3.9421,3.9421,3.8907,3.8173,3.7815,3.7386,3.6972,3.7443,3.7653,3.7758,3.8173,3.7843,3.6952,3.7443,3.7653,3.7691,3.8144,3.8379,3.8387,3.876,3.8918,3.8955,3.9228,3.9421,3.9421,3.9421,3.9421,3.9421,3.9421,3.9421,3.9421,3.9421,3.9421,3.9421,3.9421,3.9421,3.9421,3.9421,3.9421,3.9421,3.9421,3.9421,3.9361,3.914,3.899,3.899,3.899,3.899,3.902,3.9242,3.9421,3.9391,3.9499,3.9517,3.9427,3.9517,3.9679,3.9862,4.0021,4.0108,4.0108,4.0108,4.0139,4.0108,3.9968,4.0073,4.0491,4.0301,4.0038,4.0064,4.0296,4.0608,4.0817,4.1173,4.144,4.1572,4.1489,4.1406,4.1304,4.1086,4.0882,4.0842,4.1052,4.1233,4.1361,4.1678,4.226,4.2977,4.3513,4.4135,4.4613,4.4015,4.3568,4.4078,4.5363,4.5989,4.5975,4.6232,4.6652,4.6894,4.6722,4.6477,4.6319,4.6213,4.6106,4.607,4.6898,4.7622,4.8527,4.915,4.95,4.9938,4.9996,5.004,3.9421,3.9421,3.9421,3.9065,3.8567,3.8519,3.8173,3.771,3.8267,3.8519,3.8575,3.9156,3.876,3.7786,3.8248,3.8519,3.8612,3.9137,3.9421,3.9421,3.9421,3.9403,3.9421,3.9421,3.9421,3.9421,3.9421,3.9421,3.9421,3.9421,3.9421,3.9421,3.9421,3.9421,3.9421,3.9421,3.9421,3.9421,3.9421,3.9421,3.9421,3.9421,3.9421,3.9421,3.9421,3.9421,3.9421,3.9421,3.9421,3.9391,3.9421,3.9421,3.9421,3.9535,3.9553,3.9445,3.9643,3.9862,4.0143,4.0335,4.0439,4.0387,4.0422,4.0409,4.0357,4.0318,4.0474,4.0783,4.0509,4.0213,4.0349,4.0522,4.0766,4.1072,4.134,4.1489,4.1555,4.1456,4.1323,4.117,4.1321,4.1255,4.1334,4.1806,4.2204,4.2283,4.2731,4.3553,4.4135,4.4704,4.5176,4.6202,4.5805,4.524,4.5088,4.5538,4.6304,4.66,4.6739,4.6999,4.7721,4.7422,4.7186,4.6602,4.6914,4.7084,4.6948,4.7622,4.842,4.8861,4.9562,5.0321,5.0463,5.0512,5.0763,3.9421,3.9421,3.9421,3.9355,3.9319,3.9301,3.9283,3.9119,3.9283,3.9301,3.9283,3.9355,3.9337,3.9192,3.9228,3.9319,3.9319,3.9355,3.9421,3.9421,3.9421,3.9421,3.9421,3.9421,3.9421,3.9421,3.9421,3.9421,3.9421,3.9421,3.9421,3.9421,3.9421,3.9421,3.9421,3.9421,3.9421,3.9421,3.9421,3.9421,3.9421,3.9421,3.9421,3.9421,3.9421,3.9421,3.9421,3.9421,3.9421,3.9421,3.9421,3.9391,3.9391,3.9457,3.9475,3.9481,3.9768,4.0011,4.0139,4.0677,4.0936,4.0817,4.0916,4.0936,4.0715,4.056,4.0526,4.0574,4.0543,4.0612,4.0933,4.0953,4.1052,4.1072,4.1122,4.1306,4.1555,4.1572,4.1489,4.1434,4.1804,4.2264,4.2864,4.3083,4.3149,4.3167,4.3247,4.3833,4.5051,4.489,4.5478,4.6536,4.6378,4.5468,4.5971,4.5881,4.5751,4.623,4.6637,4.66,4.6776,4.6982,4.7015,4.7062,4.7446,4.7717,4.7803,4.8243,4.8902,4.9619,5.0562,5.1138,5.1222,5.2021,5.2169,3.9421,3.9421,3.9421,3.9421,3.9421,3.9421,3.9421,3.9421,3.9421,3.9421,3.9421,3.9421,3.9421,3.9421,3.9421,3.9421,3.9421,3.9421,3.9421,3.9421,3.9421,3.9421,3.9421,3.9421,3.9421,3.9421,3.9421,3.9421,3.9421,3.9421,3.9421,3.9421,3.9421,3.9421,3.9421,3.9421,3.9421,3.9421,3.9421,3.9421,3.9421,3.9421,3.9421,3.9421,3.9421,3.9421,3.9421,3.9421,3.9421,3.9421,3.9421,3.9463,3.9589,3.9696,3.9945,4.0261,4.0283,4.0487,4.0783,4.1072,4.1187,4.1001,4.1052,4.1018,4.0848,4.0763,4.0746,4.0831,4.0865,4.0967,4.1052,4.112,4.112,4.1137,4.1273,4.1503,4.1555,4.1588,4.1522,4.1465,4.1849,4.2435,4.3149,4.3568,4.4015,4.4506,4.4879,4.5652,4.6714,4.6862,4.7027,4.79,4.7622,4.7033,4.7237,4.6357,4.5945,4.6585,4.7117,4.7951,4.8381,4.8729,4.8844,4.886,4.8893,4.9011,4.9375,4.9749,5.024,5.0826,5.1721,5.1978,5.2077,5.2711,5.2819,3.9421,3.9421,3.9421,3.9421,3.9421,3.9421,3.9421,3.9421,3.9421,3.9421,3.9421,3.9421,3.9421,3.9421,3.9421,3.9421,3.9421,3.9421,3.9421,3.9421,3.9421,3.9421,3.9421,3.9421,3.9421,3.9421,3.9421,3.9421,3.9421,3.9421,3.9421,3.9421,3.9421,3.9421,3.9421,3.9421,3.9421,3.9421,3.9421,3.9421,3.9421,3.9421,3.9421,3.9421,3.9421,3.9421,3.9421,3.9421,3.9427,3.9481,3.9499,3.9625,3.9857,3.9945,4.0191,4.0626,4.066,4.0749,4.1088,4.129,4.129,4.1134,4.1151,4.1086,4.0916,4.0848,4.0899,4.1018,4.1049,4.1081,4.1449,4.1531,4.15,4.1596,4.1958,4.2157,4.1968,4.1984,4.1979,4.2108,4.248,4.3047,4.3689,4.4206,4.4692,4.5229,4.5869,4.6759,4.7605,4.7885,4.8178,4.8736,4.7999,4.7572,4.7523,4.6862,4.662,4.7186,4.7528,4.8597,4.9712,5.0157,5.0512,5.0575,5.0676,5.0809,5.1021,5.1362,5.1744,5.2135,5.255,5.2805,5.3003,5.3267,5.353,3.9421,3.9421,3.9421,3.9421,3.9421,3.9421,3.9421,3.9421,3.9421,3.9421,3.9421,3.9421,3.9421,3.9421,3.9421,3.9421,3.9421,3.9421,3.9421,3.9421,3.9421,3.9421,3.9421,3.9421,3.9421,3.9421,3.9421,3.9421,3.9421,3.9421,3.9421,3.9421,3.9421,3.9421,3.9421,3.9421,3.9421,3.9421,3.9421,3.9421,3.9421,3.9421,3.9421,3.9409,3.9409,3.9427,3.9439,3.9391,3.9481,3.9679,3.9696,3.9844,4.0178,4.0139,4.0191,4.0646,4.0766,4.0848,4.0967,4.1373,4.1473,4.1187,4.1221,4.1156,4.1018,4.0882,4.0882,4.1086,4.1129,4.1316,4.2202,4.2522,4.2519,4.2485,4.3034,4.3183,4.2836,4.2695,4.2848,4.3221,4.3533,4.421,4.488,4.5042,4.5103,4.5392,4.5931,4.6602,4.7288,4.7522,4.7853,4.8402,4.8258,4.7852,4.7622,4.7405,4.7539,4.777,4.7961,4.8609,4.9954,5.071,5.1319,5.1479,5.163,5.1746,5.191,5.2235,5.2275,5.2673,5.313,5.3725,5.4044,5.4329,5.4739,3.9421,3.9421,3.9421,3.9421,3.9421,3.9421,3.9421,3.9421,3.9421,3.9421,3.9421,3.9421,3.9421,3.9421,3.9421,3.9421,3.9421,3.9421,3.9421,3.9421,3.9421,3.9421,3.9391,3.9421,3.9421,3.9421,3.9421,3.9391,3.9409,3.9421,3.9421,3.9421,3.9421,3.9421,3.9421,3.9421,3.9421,3.9421,3.9421,3.9421,3.9421,3.9391,3.9463,3.9589,3.9607,3.9661,3.9798,3.9535,3.9499,3.9714,3.9714,4.0073,4.0701,4.056,4.0888,4.1884,4.1673,4.1639,4.1867,4.1899,4.1753,4.1323,4.1088,4.0936,4.0899,4.078,4.0916,4.1369,4.1784,4.246,4.3213,4.4009,4.4008,4.3384,4.3528,4.3636,4.3263,4.3064,4.3245,4.3698,4.3943,4.4364,4.4837,4.5055,4.5228,4.5674,4.6252,4.6914,4.7522,4.8016,4.8418,4.8845,4.8402,4.8145,4.8162,4.8214,4.8364,4.8546,4.8745,4.9205,5.0441,5.1454,5.2029,5.2351,5.252,5.267,5.2835,5.2979,5.3038,5.3587,5.4322,5.479,5.5126,5.5471,5.5826,3.9421,3.9421,3.9421,3.9421,3.9421,3.9421,3.9421,3.9421,3.9421,3.9421,3.9421,3.9421,3.9421,3.9421,3.9421,3.9421,3.9421,3.9421,3.9421,3.9421,3.9421,3.9421,3.9445,3.9643,3.9768,3.9773,3.972,3.972,3.9773,3.9535,3.9421,3.9421,3.9421,3.9421,3.9421,3.9421,3.9421,3.9421,3.9421,3.9457,3.9499,3.9517,3.9607,3.9768,3.9803,3.991,4.0051,3.9798,3.9714,3.9892,3.998,4.0509,4.1327,4.1141,4.1476,4.2474,4.2506,4.2285,4.2539,4.2492,4.2301,4.19,4.164,4.1542,4.1572,4.1549,4.1936,4.2313,4.302,4.3796,4.4528,4.4826,4.4964,4.4773,4.451,4.4175,4.3791,4.347,4.3479,4.3808,4.4091,4.4446,4.4731,4.5123,4.5345,4.5895,4.664,4.7272,4.7934,4.8497,4.8829,4.8984,4.8845,4.8783,4.8894,4.9021,4.9165,4.9371,4.9576,5.0276,5.1276,5.2183,5.2909,5.2993,5.3129,5.3161,5.331,5.3593,5.3772,5.4649,5.5324,5.5543,5.5825,5.6412,5.6814,3.9421,3.9421,3.9421,3.9421,3.9421,3.9421,3.9421,3.9421,3.9421,3.9421,3.9421,3.9511,3.9511,3.9511,3.966,3.972,3.9529,3.9649,3.9685,3.9703,3.9709,3.9781,3.9732,4.0073,4.0322,4.0461,4.0357,4.0374,4.0512,3.999,3.9517,3.9714,3.975,3.9571,3.975,3.9571,3.9684,3.9755,3.9666,3.9773,3.995,3.9932,4.0021,4.0244,4.0296,4.037,4.0543,4.0439,4.0314,4.0366,4.0505,4.099,4.1689,4.1689,4.2061,4.3141,4.2971,4.2863,4.2894,4.3004,4.3023,4.2887,4.2793,4.2899,4.2956,4.3283,4.3573,4.3815,4.448,4.5245,4.5832,4.5822,4.5736,4.6003,4.5489,4.4919,4.4281,4.3987,4.3882,4.3851,4.4217,4.461,4.4667,4.5216,4.557,4.5917,4.6881,4.7655,4.7999,4.845,4.8876,4.9052,4.912,4.9323,4.9409,4.9884,5.0097,5.052,5.0674,5.1176,5.1864,5.2673,5.3281,5.3433,5.3771,5.3754,5.382,5.4138,5.4542,5.515,5.5659,5.6032,5.6683,5.7355,5.7933,3.9421,3.9421,3.9421,3.9421,3.9421,3.9421,3.9439,3.9421,3.9439,3.9487,3.9511,3.993,4.0176,4.0187,4.0655,4.0876,4.0863,4.0764,4.0732,4.0822,4.123,4.103,4.0691,4.0718,4.0953,4.1137,4.1165,4.1076,4.1227,4.1021,4.0888,4.0942,4.0871,4.0891,4.0942,4.0891,4.1026,4.1079,4.1095,4.1146,4.1312,4.1345,4.1494,4.1657,4.1625,4.1706,4.1885,4.1869,4.1558,4.1074,4.1074,4.1722,4.2769,4.2536,4.2769,4.3802,4.3651,4.3395,4.3535,4.3539,4.3553,4.3785,4.3725,4.3748,4.4381,4.4464,4.4755,4.5189,4.5906,4.6609,4.7224,4.724,4.6958,4.6099,4.5486,4.498,4.4701,4.4502,4.4389,4.4389,4.4505,4.4579,4.4836,4.529,4.5769,4.6024,4.6967,4.8065,4.8326,4.8632,4.9187,4.9289,4.939,4.9677,4.9999,5.0574,5.1083,5.1642,5.1829,5.188,5.2419,5.2943,5.3315,5.3501,5.433,5.4567,5.4584,5.4701,5.5209,5.5768,5.6484,5.7114,5.7894,5.8577,5.9165,4.0287,4.027,4.027,4.0287,4.027,4.027,4.0248,4.0243,4.0238,4.0251,4.0351,4.0655,4.0953,4.1236,4.1586,4.1935,4.2114,4.2055,4.2045,4.212,4.2612,4.2496,4.2128,4.212,4.2374,4.2494,4.246,4.2401,4.2263,4.2084,4.1843,4.1575,4.1657,4.1706,4.1657,4.1706,4.1755,4.1788,4.182,4.1917,4.2093,4.2109,4.2189,4.2348,4.2395,4.2442,4.2489,4.2505,4.2269,4.1885,4.1852,4.2332,4.3302,4.3151,4.3454,4.4516,4.4447,4.4503,4.4614,4.4737,4.5035,4.5218,4.507,4.5253,4.5713,4.5933,4.6337,4.6702,4.7381,4.7762,4.7755,4.749,4.6625,4.5601,4.5042,4.478,4.478,4.4636,4.461,4.4591,4.461,4.4818,4.5123,4.5801,4.6252,4.6743,4.7671,4.8409,4.89,4.9218,4.9593,4.983,5.0067,5.0405,5.0744,5.1251,5.1623,5.2232,5.2739,5.2773,5.301,5.3382,5.3721,5.4178,5.4873,5.5332,5.5247,5.5382,5.6078,5.6708,5.7463,5.821,5.887,5.9439,6.0056,4.1492,4.1492,4.1492,4.1492,4.1441,4.1537,4.1429,4.1476,4.1542,4.1588,4.1635,4.166,4.21,4.2523,4.2775,4.2968,4.3484,4.3496,4.3521,4.3682,4.3991,4.3979,4.3829,4.3549,4.377,4.3953,4.4028,4.3811,4.3589,4.3183,4.2684,4.2559,4.2461,4.2301,4.2443,4.2332,4.2253,4.2411,4.2489,4.2599,4.2738,4.2785,4.2862,4.2923,4.2953,4.2956,4.2892,4.2846,4.2785,4.2738,4.2645,4.2969,4.3543,4.3632,4.4029,4.4662,4.5254,4.5549,4.5843,4.6205,4.6722,4.6735,4.6783,4.6989,4.7091,4.7502,4.7821,4.7867,4.8582,4.8474,4.7867,4.6726,4.5859,4.516,4.4799,4.461,4.4591,4.4591,4.4591,4.4629,4.4629,4.5179,4.5855,4.6568,4.712,4.7289,4.8211,4.8863,4.9324,4.9702,5.0202,5.0761,5.1032,5.1269,5.1623,5.1961,5.2266,5.2638,5.3315,5.3585,5.3653,5.4008,5.4431,5.494,5.5672,5.5843,5.5604,5.6064,5.6933,5.7447,5.8116,5.8912,5.9673,6.0098,6.0667,4.1492,4.1492,4.1492,4.1443,4.1438,4.1876,4.2086,4.2001,4.2562,4.2749,4.2886,4.3283,4.3645,4.3984,4.4421,4.4911,4.5065,4.5037,4.5158,4.5496,4.5563,4.5885,4.5567,4.4685,4.4252,4.4545,4.3956,4.4192,4.4843,4.4836,4.4573,4.4426,4.4266,4.42,4.3742,4.365,4.3728,4.3768,4.3768,4.3798,4.39,4.3929,4.3991,4.4035,4.4083,4.414,4.4136,4.415,4.415,4.4035,4.3713,4.3769,4.4236,4.4413,4.4769,4.5341,4.5635,4.6007,4.6481,4.6786,4.709,4.7616,4.7684,4.7936,4.8511,4.8578,4.8748,4.8781,4.8901,4.8655,4.795,4.7086,4.6237,4.5551,4.503,4.4692,4.4629,4.461,4.4591,4.4742,4.5104,4.5533,4.5841,4.7001,4.7605,4.7967,4.8569,4.9263,4.9796,5.0286,5.0879,5.1607,5.1877,5.208,5.2216,5.2536,5.2773,5.3078,5.3687,5.4381,5.4448,5.477,5.5211,5.5807,5.6542,5.6491,5.6423,5.7278,5.8255,5.853,5.8718,5.942,6.0035,6.0595,6.1214,4.2189,4.2523,4.2735,4.2639,4.2414,4.2928,4.2936,4.2743,4.3292,4.3658,4.3854,4.4413,4.498,4.5458,4.5826,4.6145,4.6448,4.6366,4.6183,4.6238,4.6419,4.6697,4.6517,4.5865,4.5538,4.598,4.5844,4.6032,4.6236,4.6285,4.6042,4.5839,4.5864,4.5715,4.5336,4.5019,4.4884,4.4793,4.4575,4.4497,4.4567,4.4567,4.4567,4.4702,4.4905,4.5142,4.5099,4.5114,4.5331,4.5428,4.523,4.5003,4.5158,4.5447,4.5853,4.6143,4.6602,4.6838,4.7244,4.7631,4.8037,4.836,4.8394,4.8597,4.8917,4.9018,4.9018,4.9018,4.8938,4.8686,4.7967,4.7221,4.6588,4.629,4.5877,4.5624,4.5515,4.5049,4.478,4.503,4.5442,4.6078,4.6761,4.7539,4.8347,4.8869,4.9198,4.9898,5.1048,5.1488,5.1826,5.2367,5.2672,5.2858,5.2942,5.3078,5.323,5.3551,5.3957,5.4737,5.5212,5.5586,5.6044,5.6677,5.7276,5.7601,5.7739,5.8668,5.8995,5.8892,5.9077,5.9755,6.0324,6.0781,6.1506,4.318,4.3694,4.4162,4.4034,4.367,4.4063,4.4075,4.3828,4.4307,4.4908,4.4971,4.5565,4.6261,4.6707,4.6845,4.7184,4.7454,4.7455,4.7127,4.6766,4.7243,4.721,4.6914,4.6978,4.7108,4.7556,4.7224,4.7216,4.7309,4.7347,4.6944,4.6645,4.6678,4.6437,4.6365,4.6041,4.5674,4.5708,4.5384,4.5128,4.5108,4.5108,4.5108,4.5244,4.5582,4.5872,4.5872,4.5906,4.6109,4.6766,4.6887,4.6616,4.638,4.6413,4.6921,4.6936,4.7447,4.7785,4.8056,4.8529,4.8883,4.9018,4.8984,4.8984,4.9018,4.9018,4.9018,4.9018,4.8938,4.872,4.7983,4.7439,4.7018,4.6761,4.6743,4.6778,4.657,4.5642,4.5478,4.5751,4.622,4.683,4.7372,4.8081,4.8951,4.974,5.002,5.059,5.1725,5.2401,5.2536,5.2841,5.3112,5.3196,5.323,5.3281,5.3467,5.3839,5.4211,5.5059,5.5893,5.6625,5.7069,5.7411,5.7892,5.8201,5.8443,5.8772,5.8978,5.8995,5.9332,5.9902,6.0417,6.0915,6.1737,4.4025,4.3891,4.4115,4.4253,4.4282,4.4704,4.5212,4.5897,4.637,4.701,4.7242,4.7472,4.7572,4.7853,4.7935,4.8098,4.8179,4.8097,4.7966,4.7719,4.795,4.7835,4.7736,4.7944,4.8189,4.7922,4.7552,4.7399,4.7961,4.7946,4.7563,4.6978,4.6906,4.6718,4.6312,4.5805,4.6177,4.6515,4.6312,4.6191,4.6191,4.6293,4.6259,4.6259,4.6447,4.6583,4.6616,4.6616,4.6699,4.6834,4.7394,4.7582,4.7413,4.7124,4.7225,4.7616,4.7887,4.8225,4.8665,4.8883,4.9018,4.9018,4.9018,4.9018,4.9018,4.9018,4.9018,4.9018,4.8972,4.872,4.7999,4.7786,4.7423,4.7069,4.695,4.695,4.6879,4.6707,4.6498,4.6793,4.7187,4.7572,4.8048,4.8603,4.9377,5.0073,5.0493,5.115,5.2198,5.2604,5.2706,5.3044,5.3399,5.3433,5.3433,5.3433,5.3551,5.394,5.4466,5.5417,5.6354,5.748,5.8097,5.8254,5.8392,5.8599,5.8823,5.8944,5.8978,5.8995,5.9465,5.9982,6.0524,6.1076,6.1778,4.3361,4.3548,4.4292,4.4427,4.4407,4.5325,4.5718,4.593,4.675,4.7307,4.7618,4.7932,4.8195,4.8324,4.8356,4.842,4.8468,4.8388,4.8292,4.8227,4.8292,4.8324,4.8292,4.8594,4.872,4.8617,4.8078,4.7928,4.87,4.8572,4.8206,4.8071,4.7936,4.7733,4.7394,4.7109,4.7041,4.7293,4.7022,4.6819,4.6887,4.7124,4.7225,4.6955,4.7192,4.7361,4.7394,4.7394,4.7564,4.7936,4.8308,4.8428,4.8342,4.8206,4.8071,4.8376,4.8428,4.8578,4.8951,4.9018,4.9018,4.9018,4.9018,4.9018,4.9018,4.9018,4.9018,4.9018,4.9018,4.8861,4.8513,4.845,4.829,4.8081,4.7885,4.7869,4.7901,4.7901,4.7836,4.777,4.7803,4.8098,4.855,4.9171,4.9869,5.0439,5.0947,5.1758,5.2706,5.2909,5.2976,5.3179,5.3501,5.3501,5.3501,5.3501,5.3501,5.3907,5.4618,5.557,5.6577,5.7586,5.8324,5.872,5.8875,5.8875,5.8944,5.8978,5.8995,5.9012,5.9317,5.9776,6.0555,6.1265,6.1915,4.3052,4.3471,4.4754,4.5016,4.4802,4.5913,4.6339,4.6172,4.6908,4.7412,4.7635,4.8103,4.8468,4.8578,4.861,4.8594,4.8594,4.8452,4.842,4.8436,4.8547,4.8594,4.8673,4.8814,4.8987,4.8923,4.8871,4.9018,4.8954,4.8901,4.8917,4.8545,4.868,4.8766,4.8428,4.765,4.7819,4.7887,4.7413,4.709,4.7361,4.7752,4.7853,4.7327,4.7819,4.8139,4.8124,4.8124,4.8376,4.8714,4.8917,4.8984,4.8984,4.9018,4.9018,4.9018,4.9018,4.9018,4.9018,4.9018,4.9018,4.9018,4.9018,4.9018,4.9018,4.9018,4.9018,4.9018,4.9018,4.9003,4.8892,4.8987,4.8938,4.8907,4.8876,4.8972,4.8829,4.8767,4.8704,4.8578,4.8471,4.8735,4.9254,4.9535,5.0186,5.1116,5.1623,5.2164,5.301,5.323,5.3332,5.3365,5.3501,5.3501,5.3501,5.3501,5.3534,5.3703,5.4618,5.5587,5.6577,5.7552,5.8187,5.8841,5.8909,5.8927,5.8961,5.8995,5.8995,5.903,5.9097,5.963,6.057,6.1265,6.1897,4.4509,4.4348,4.5684,4.629,4.6433,4.6728,4.7367,4.8022,4.817,4.8492,4.8643,4.8809,4.8861,4.8925,4.8925,4.8941,4.8892,4.8845,4.8798,4.8798,4.8879,4.8876,4.8907,4.8987,4.9018,4.9018,4.9018,4.9018,4.9018,4.9018,4.8714,4.8326,4.8293,4.8124,4.8259,4.7767,4.7631,4.8511,4.8124,4.8022,4.8462,4.8714,4.8714,4.8665,4.8714,4.8781,4.8748,4.8748,4.8883,4.8951,4.9018,4.9018,4.9018,4.9018,4.9018,4.9018,4.9018,4.9018,4.9018,4.9018,4.9018,4.9018,4.9018,4.9018,4.9018,4.9018,4.9018,4.9018,4.9018,4.9018,4.9018,4.9018,4.9018,4.9018,4.9018,4.9018,4.9018,4.9018,4.9018,4.9307,4.9159,4.9593,5.0087,5.0254,5.0541,5.1488,5.2334,5.2841,5.3213,5.3416,5.3501,5.3501,5.3484,5.3484,5.3551,5.3534,5.3567,5.3651,5.4582,5.562,5.6507,5.7397,5.8186,5.8668,5.8806,5.8927,5.8978,5.8995,5.8995,5.9064,5.9148,5.9838,6.0736,6.1308,6.1765,4.5114,4.4739,4.5898,4.6454,4.6666,4.7418,4.8055,4.8448,4.8689,4.8845,4.9003,4.9018,4.9018,4.9018,4.9018,4.9018,4.9018,4.9018,4.9018,4.9018,4.9018,4.9018,4.9018,4.9018,4.9018,4.9018,4.9018,4.9018,4.9018,4.8984,4.8781,4.8563,4.8529,4.8597,4.8428,4.8206,4.8443,4.8781,4.8665,4.8462,4.8496,4.8781,4.9018,4.9018,4.9018,4.9018,4.9018,4.9018,4.9018,4.9018,4.9018,4.9018,4.9018,4.9018,4.9018,4.9018,4.9018,4.9018,4.9018,4.9018,4.9018,4.9018,4.9018,4.9018,4.9018,4.9018,4.9018,4.9018,4.9018,4.9018,4.9018,4.9018,4.9018,4.9018,4.9086,4.9086,4.9086,4.9052,4.912,4.9492,4.9981,5.0439,5.0947,5.1285,5.1488,5.1961,5.2672,5.3145,5.3348,5.3433,5.3501,5.3501,5.3484,5.3501,5.3567,5.3583,5.3683,5.3884,5.4612,5.5582,5.6403,5.7259,5.8014,5.8616,5.8909,5.8978,5.8995,5.8995,5.8995,5.9115,5.925,5.9982,6.0691,6.1033,6.157,4.5731,4.5553,4.6422,4.6848,4.7028,4.8138,4.8626,4.8657,4.8861,4.9018,4.9018,4.9018,4.9018,4.9018,4.9018,4.9018,4.9018,4.9018,4.9018,4.9018,4.9018,4.9018,4.9018,4.9018,4.9018,4.9018,4.9018,4.9018,4.9018,4.9018,4.8984,4.9018,4.8883,4.8951,4.8917,4.8631,4.8563,4.8578,4.8849,4.8698,4.8462,4.8781,4.8951,4.9018,4.9018,4.9018,4.9018,4.9018,4.9018,4.9018,4.9018,4.9018,4.9018,4.9018,4.9018,4.9018,4.9018,4.9018,4.9018,4.9018,4.9018,4.9018,4.9018,4.9018,4.9018,4.9018,4.9018,4.9018,4.9018,4.9018,4.9018,4.9018,4.9018,4.9086,4.9206,4.9206,4.9307,4.956,4.9864,5.0304,5.0777,5.1285,5.1792,5.23,5.257,5.2638,5.301,5.3399,5.3518,5.3534,5.3534,5.3517,5.3651,5.3634,5.3633,5.3682,5.3797,5.4065,5.4776,5.5611,5.6468,5.7137,5.7806,5.834,5.8892,5.8995,5.8995,5.8995,5.9012,5.9166,5.94,5.9966,6.0524,6.093,6.1464,4.6716,4.7257,4.7688,4.8014,4.8286,4.8765,4.8972,4.8907,4.8954,4.9018,4.9018,4.9018,4.9018,4.9018,4.9018,4.9018,4.9018,4.9018,4.9018,4.9018,4.9018,4.9018,4.9018,4.9018,4.9018,4.9018,4.9018,4.9018,4.9018,4.9018,4.9018,4.9018,4.9018,4.9018,4.8883,4.8563,4.8259,4.8326,4.8665,4.8901,4.8766,4.8917,4.8984,4.9018,4.9018,4.9018,4.9018,4.9018,4.9018,4.9018,4.9018,4.9018,4.9018,4.9018,4.9018,4.9018,4.9018,4.9018,4.9018,4.9018,4.9018,4.9018,4.9018,4.9018,4.9018,4.9018,4.9018,4.9018,4.9018,4.9018,4.9018,4.9018,4.9187,4.9357,4.9661,4.9965,5.0168,5.0491,5.0795,5.1167,5.1539,5.1928,5.2367,5.2841,5.301,5.3078,5.3112,5.3501,5.3534,5.3551,5.3551,5.3601,5.3783,5.3849,5.3782,5.3864,5.3979,5.4211,5.475,5.5622,5.6549,5.715,5.7856,5.8409,5.8995,5.8995,5.9012,5.9047,5.9115,5.9216,5.9564,6.0219,6.0974,6.159,6.2049,4.7671,4.8114,4.8243,4.8372,4.8531,4.8845,4.9018,4.9018,4.9018,4.9018,4.9018,4.9018,4.9018,4.9018,4.9018,4.9018,4.9018,4.9018,4.9018,4.9018,4.9018,4.9018,4.9018,4.9018,4.9018,4.9018,4.9018,4.9018,4.9018,4.9018,4.9018,4.9018,4.9018,4.9018,4.8849,4.8665,4.836,4.8191,4.8529,4.88,4.8462,4.8815,4.9018,4.9018,4.9018,4.9018,4.9018,4.9018,4.9018,4.9018,4.9018,4.9018,4.9018,4.9018,4.9018,4.9018,4.9018,4.9018,4.9018,4.9018,4.9018,4.9018,4.9018,4.9018,4.9018,4.9018,4.9018,4.9018,4.9052,4.912,4.9052,4.939,4.9763,4.9864,5.0202,5.0642,5.0947,5.1269,5.1607,5.1911,5.2114,5.2401,5.2841,5.3315,5.3382,5.3433,5.3467,5.3518,5.3568,5.3651,5.3668,5.3718,5.3899,5.3995,5.3979,5.4044,5.4209,5.4526,5.4876,5.5856,5.6887,5.7524,5.818,5.8718,5.9098,5.9199,5.9249,5.9183,5.935,5.9792,6.0125,6.0529,6.1358,6.2205,6.2515,4.8276,4.8499,4.8594,4.8642,4.8689,4.8892,4.9018,4.9018,4.9018,4.9018,4.9018,4.9018,4.9018,4.9018,4.9018,4.9018,4.9018,4.9018,4.9018,4.9018,4.9018,4.9018,4.9018,4.9018,4.9018,4.9018,4.9018,4.9018,4.9018,4.9018,4.9018,4.9018,4.9018,4.9018,4.9018,4.8984,4.8698,4.8496,4.8612,4.8815,4.8394,4.8714,4.9018,4.9018,4.9018,4.9018,4.9018,4.9018,4.9018,4.9018,4.9018,4.9018,4.9018,4.9018,4.9018,4.9018,4.9018,4.9018,4.9018,4.9018,4.9018,4.9018,4.9018,4.9018,4.9018,4.9018,4.9018,4.9052,4.9154,4.9323,4.939,4.9965,5.0405,5.0574,5.1116,5.1555,5.1691,5.1979,5.2317,5.2621,5.2807,5.2942,5.3078,5.3416,5.3467,5.3518,5.3518,5.3534,5.3635,5.3735,5.3834,5.3866,5.3997,5.4076,5.4139,5.4711,5.5219,5.5285,5.5724,5.6501,5.7346,5.7967,5.8386,5.8788,5.9131,5.945,5.9681,5.9811,6.016,6.0575,6.0942,6.1307,6.1801,6.2541,6.2654,4.8499,4.8531,4.8829,4.8987,4.8938,4.9003,4.9018,4.9018,4.9018,4.9018,4.9018,4.9018,4.9018,4.9018,4.9018,4.9018,4.9018,4.9018,4.9018,4.9018,4.9018,4.9018,4.9018,4.9018,4.9018,4.9018,4.9018,4.9018,4.9018,4.9018,4.9018,4.9018,4.9018,4.9018,4.9018,4.9018,4.8984,4.8969,4.8984,4.8917,4.8917,4.8951,4.8984,4.9018,4.9018,4.9018,4.9018,4.9018,4.9018,4.9018,4.9018,4.9018,4.9018,4.9018,4.9018,4.9018,4.9018,4.9018,4.9018,4.9018,4.9018,4.9018,4.9018,4.9086,4.9052,4.9086,4.9255,4.9526,4.9796,5.0033,5.0338,5.071,5.1032,5.137,5.1928,5.2334,5.2469,5.2588,5.2892,5.3027,5.3264,5.3467,5.345,5.3484,5.3501,5.3501,5.3484,5.3568,5.3684,5.3816,5.3982,5.4063,5.4161,5.4595,5.4911,5.5756,5.6229,5.6245,5.6539,5.7284,5.7807,5.8311,5.868,5.8995,5.9373,5.9818,6.0215,6.0605,6.1667,6.2738,6.2051,6.2209,6.2586,6.2755,6.278,4.8848,4.8863,4.8938,4.9018,4.9018,4.9018,4.9018,4.9018,4.9018,4.9018,4.9018,4.9018,4.9018,4.9018,4.9086,4.912,4.9086,4.9018,4.9018,4.9052,4.912,4.9018,4.9052,4.9187,4.912,4.9018,4.9018,4.912,4.9018,4.9086,4.9052,4.9018,4.9018,4.9018,4.9018,4.9018,4.9018,4.8984,4.9018,4.9018,4.9018,4.9018,4.9018,4.9018,4.9018,4.9018,4.9018,4.9018,4.9018,4.9018,4.9018,4.9018,4.9018,4.9018,4.9018,4.9018,4.9018,4.9018,4.9018,4.9018,4.9018,4.9052,4.9086,4.9289,4.9643,4.9729,4.9965,5.0288,5.0574,5.0811,5.093,5.1522,5.1894,5.2097,5.2536,5.2976,5.3179,5.323,5.3399,5.3365,5.3501,5.3518,5.3501,5.3635,5.3668,5.3685,5.3701,5.3768,5.3866,5.4013,5.4161,5.4225,5.4391,5.4993,5.5684,5.6672,5.7099,5.7013,5.7409,5.81,5.8523,5.881,5.9232,5.9667,5.9943,6.0235,6.1392,6.2648,6.4249,6.4981,6.4015,6.3212,6.3313,6.3184,6.2793,4.9018,4.9018,4.9018,4.9018,4.9018,4.9018,4.9018,4.9018,4.9018,4.912,4.9357,4.939,4.9593,4.9729,4.9763,4.9747,4.9747,4.9796,4.9796,4.9763,4.9796,4.9898,4.9848,4.9713,4.995,4.9747,4.9713,4.9763,4.9458,4.9424,4.9255,4.9086,4.9018,4.9018,4.9018,4.9018,4.9018,4.9018,4.9018,4.9018,4.9018,4.9018,4.9018,4.9018,4.9018,4.9018,4.9018,4.9018,4.9018,4.9018,4.9018,4.9018,4.9018,4.9018,4.9154,4.9289,4.939,4.9526,4.9796,4.9492,4.9627,4.9898,4.956,4.9763,5.0236,5.0304,5.0574,5.0897,5.1336,5.1505,5.1674,5.23,5.2638,5.2841,5.2976,5.3416,5.3484,5.3501,5.3501,5.3501,5.3518,5.3517,5.3601,5.3717,5.3833,5.3866,5.3882,5.4063,5.428,5.4413,5.4695,5.4863,5.5081,5.5756,5.6672,5.7783,5.8006,5.7834,5.8285,5.8892,5.9181,5.9485,5.9923,6.0341,6.0601,6.1306,6.3239,6.4751,6.5647,6.5917,6.538,6.4746,6.4249,6.3613,6.3013,4.9018,4.9018,4.9018,4.9018,4.9018,4.9086,4.9086,4.9086,4.9086,4.9492,5.0117,5.0135,5.0371,5.0998,5.11,5.0998,5.0964,5.0998,5.0964,5.0964,5.0795,5.093,5.0964,5.093,5.0761,5.0964,5.093,5.0457,5.0135,4.9898,4.9593,4.9221,4.9086,4.9052,4.9018,4.9018,4.9018,4.9018,4.9018,4.9018,4.9018,4.9018,4.9018,4.9018,4.9018,4.9018,4.9018,4.9018,4.9052,4.9086,4.9052,4.9052,4.9052,4.9052,4.9492,4.9914,5.0117,5.0473,5.0694,5.0338,5.0574,5.0829,5.0574,5.0744,5.0913,5.1014,5.1235,5.1607,5.2013,5.2198,5.2401,5.2875,5.3298,5.3365,5.3365,5.3501,5.3501,5.3501,5.3501,5.3518,5.3517,5.3584,5.3801,5.3949,5.4595,5.4874,5.5085,5.5478,5.5548,5.5187,5.5487,5.591,5.6232,5.6691,5.7596,5.8545,5.8854,5.8666,5.9047,5.9553,5.9824,5.9953,6.0184,6.0566,6.112,6.2327,6.4312,6.5539,6.6293,6.6256,6.5778,6.5338,6.4567,6.387,6.3319,4.9018,4.9018,4.9018,4.9018,4.9086,4.956,4.9812,4.9796,4.9812,5.0202,5.0913,5.0879,5.1082,5.1201,5.1201,5.1269,5.1269,5.1201,5.1201,5.1269,5.1438,5.1302,5.1269,5.1336,5.1269,5.1269,5.1235,5.1235,5.0811,5.0473,5.0117,4.9796,4.9424,4.9221,4.9154,4.9052,4.9086,4.9052,4.9052,4.9018,4.9018,4.9018,4.9018,4.9018,4.9018,4.9018,4.9018,4.9018,4.9187,4.9627,4.9221,4.9154,4.9778,4.9812,5.0101,5.0761,5.0897,5.0998,5.1133,5.0998,5.1201,5.1776,5.1725,5.1758,5.1894,5.1928,5.2029,5.2385,5.2655,5.2841,5.2909,5.323,5.3501,5.3501,5.3501,5.3501,5.3518,5.3517,5.3517,5.3601,5.3618,5.3968,5.4148,5.5006,5.5626,5.5981,5.6355,5.6776,5.6892,5.6528,5.6463,5.6887,5.7295,5.7741,5.814,5.8969,5.9346,5.9604,5.9762,5.98,5.9771,5.9901,6.0271,6.1084,6.2138,6.3676,6.551,6.6169,6.6156,6.6072,6.5668,6.5338,6.4884,6.4127,6.3429,4.9018,4.9018,4.9018,4.9154,4.9492,4.9898,5.0387,5.0845,5.0676,5.0947,5.1573,5.1641,5.181,5.2148,5.2216,5.2198,5.2182,5.2283,5.2249,5.2266,5.2013,5.2216,5.2148,5.2046,5.2216,5.2114,5.2013,5.208,5.1589,5.0947,5.0541,5.0507,4.9984,4.9916,4.995,4.9999,4.9763,4.9492,4.9221,4.9052,4.9018,4.9018,4.9018,4.9052,4.9052,4.9052,4.9086,4.9086,4.9424,4.9965,4.9526,4.9796,5.0371,5.0574,5.0608,5.1133,5.1167,5.1607,5.2013,5.1844,5.2148,5.2536,5.2739,5.2773,5.2773,5.2773,5.2976,5.3213,5.3332,5.3467,5.3467,5.3501,5.3501,5.3501,5.3501,5.3501,5.3517,5.3551,5.3635,5.3718,5.4001,5.4381,5.4988,5.5951,5.6741,5.7276,5.775,5.8194,5.8276,5.8028,5.7884,5.8063,5.8403,5.88,5.9146,5.9283,5.9457,5.9646,5.965,5.9687,5.9636,6.0088,6.0649,6.1953,6.3415,6.4609,6.5445,6.5523,6.5508,6.5448,6.5301,6.4787,6.4494,6.42,6.3539,4.9052,4.9154,4.9154,4.9695,5.0218,5.0371,5.1116,5.2232,5.1725,5.1792,5.2334,5.2401,5.2739,5.3078,5.3129,5.3196,5.3129,5.3129,5.3095,5.345,5.3162,5.3129,5.3162,5.3433,5.3061,5.3298,5.3298,5.2807,5.2334,5.1725,5.1269,5.1302,5.1066,5.0897,5.0829,5.0863,5.0558,5.0168,4.9729,4.9424,4.9086,4.9018,4.9052,4.912,4.9154,4.9187,4.9255,4.9357,4.9492,4.9999,5.0304,5.0574,5.1048,5.1302,5.1336,5.1539,5.1742,5.2216,5.2723,5.2672,5.279,5.3162,5.3467,5.3348,5.3281,5.3247,5.3382,5.345,5.3467,5.3501,5.3501,5.3518,5.3518,5.3534,5.3568,5.3618,5.3685,5.3785,5.3969,5.4153,5.4538,5.5049,5.623,5.7203,5.818,5.8681,5.9412,5.9896,5.9759,5.9614,5.9399,5.932,5.9556,5.978,5.9569,5.9658,5.9564,5.9619,5.9636,5.9718,5.9814,6.041,6.113,6.2284,6.3412,6.4043,6.4701,6.4649,6.4701,6.4897,6.464,6.4163,6.3906,6.3796,6.3539,4.9357,4.9898,5.0439,5.1116,5.1725,5.1792,5.2266,5.3179,5.3044,5.301,5.3179,5.3213,5.3281,5.3467,5.3501,5.3501,5.3501,5.3501,5.3501,5.3467,5.3501,5.3501,5.3501,5.3501,5.3501,5.3501,5.3433,5.3382,5.301,5.2418,5.2013,5.1979,5.1708,5.1472,5.1438,5.1438,5.1235,5.0913,5.0694,4.9984,4.9323,4.9187,4.9187,4.9593,4.9846,5.0101,5.0288,5.0592,5.1082,5.1589,5.115,5.1404,5.1979,5.1979,5.2351,5.279,5.2689,5.2976,5.3213,5.3247,5.3298,5.3332,5.3501,5.3501,5.3467,5.3501,5.3501,5.3501,5.3501,5.3501,5.3518,5.3534,5.3534,5.3601,5.3667,5.3784,5.3867,5.4135,5.4352,5.4787,5.5154,5.6179,5.7419,5.8464,5.9451,6.044,6.1464,6.1948,6.1607,6.1385,6.094,6.0805,6.0805,6.0826,6.0415,5.9972,5.9879,5.9797,5.9797,5.986,6.0005,6.1254,6.2388,6.2415,6.3038,6.3816,6.4061,6.3531,6.3637,6.4053,6.4016,6.3539,6.3319,6.3209,6.3086,4.9729,5.0184,5.0913,5.1607,5.2232,5.23,5.2739,5.3399,5.3501,5.3501,5.3501,5.3501,5.3518,5.3518,5.3501,5.3534,5.3518,5.3501,5.3501,5.3501,5.3501,5.3501,5.3501,5.3501,5.3501,5.3501,5.3501,5.3433,5.3365,5.3179,5.2841,5.2723,5.2317,5.2148,5.2148,5.2182,5.1979,5.1708,5.1674,5.1032,5.0017,5.0017,5.0085,5.0541,5.0676,5.0913,5.0964,5.1235,5.1641,5.2198,5.2198,5.2063,5.2334,5.2232,5.2469,5.2739,5.2875,5.3145,5.3382,5.3501,5.3501,5.3501,5.3501,5.3501,5.3501,5.3501,5.3501,5.3501,5.3501,5.3501,5.3517,5.3534,5.3584,5.3667,5.38,5.3915,5.4251,5.4619,5.5128,5.5761,5.6493,5.7645,5.8751,5.9564,6.0544,6.1475,6.262,6.2731,6.2605,6.2528,6.2242,6.1987,6.1782,6.1351,6.0726,6.0328,6.0097,6.0017,6.0033,6.0254,6.064,6.2397,6.3639,6.3167,6.3153,6.3812,6.3815,6.3281,6.3013,6.3343,6.3196,6.2903,6.2793,6.2793,6.2829,5.0218,5.0455,5.1298,5.1958,5.25,5.2534,5.2957,5.3533,5.3584,5.3601,5.3668,5.3718,5.3651,5.3584,5.3518,5.3517,5.3551,5.3551,5.3534,5.3501,5.3501,5.3501,5.3501,5.3501,5.3501,5.3501,5.3501,5.3501,5.3467,5.3348,5.3348,5.3467,5.3501,5.3467,5.3501,5.3399,5.3027,5.2638,5.2401,5.2114,5.1674,5.1302,5.1201,5.1235,5.1336,5.137,5.1472,5.1641,5.1945,5.2351,5.2976,5.2909,5.2773,5.2638,5.2638,5.2807,5.2841,5.3112,5.3348,5.3501,5.3501,5.3501,5.3501,5.3518,5.3568,5.3602,5.3602,5.3771,5.3771,5.3619,5.3669,5.3888,5.3971,5.4137,5.4285,5.4518,5.4954,5.534,5.5993,5.6746,5.78,5.8986,5.9985,6.0783,6.1514,6.2458,6.278,6.2793,6.278,6.2717,6.2565,6.2321,6.2099,6.1626,6.112,6.0855,6.0651,6.056,6.062,6.0751,6.1354,6.3148,6.392,6.3262,6.3398,6.4302,6.3976,6.3417,6.316,6.3013,6.2866,6.2793,6.2793,6.2793,6.2793,5.0811,5.196,5.313,5.3699,5.3802,5.3836,5.3923,5.4076,5.406,5.406,5.4157,5.4425,5.4441,5.4044,5.3635,5.3635,5.3899,5.3751,5.3568,5.3501,5.3501,5.3501,5.3501,5.3501,5.3501,5.3501,5.3501,5.3501,5.3501,5.3501,5.3501,5.3501,5.3501,5.3501,5.3501,5.3433,5.3365,5.3112,5.3145,5.296,5.2672,5.2232,5.1725,5.1826,5.2097,5.2486,5.2875,5.3044,5.3145,5.3281,5.3365,5.3315,5.3247,5.3112,5.3112,5.3078,5.3078,5.3213,5.3467,5.3534,5.3517,5.3551,5.3619,5.3771,5.3838,5.3972,5.4158,5.4666,5.4582,5.4141,5.4208,5.4832,5.5117,5.545,5.5715,5.607,5.6475,5.6696,5.7045,5.7798,5.8653,5.9923,6.1222,6.1749,6.2006,6.2641,6.2692,6.2717,6.278,6.278,6.273,6.2592,6.2412,6.2179,6.1828,6.1584,6.1386,6.1236,6.125,6.152,6.2372,6.3932,6.4302,6.338,6.4114,6.5199,6.464,6.3576,6.3392,6.3246,6.2939,6.2793,6.2793,6.2793,6.2793]}]]